[[{"header":{"parameterUnit":"m.s-1","parameterCategory":1,"la1":30.6,"la2":29.2853,"lo1":-89.7004,"lo2":-87.6739,"dx":0.0162,"dy":0.0183,"nx":112,"ny":82,"refTime":"2023-02-04T06:00:00:Z","depth":0,"parameterNumber":2,"parameterNumberName":"U-component_of_WINDS"},"data":[0.0,0.0,0.0,0.0,0.0,0.0,0.0,0.0,0.0,0.0,0.0,0.0,0.0,0.0,0.0,0.0,0.0,0.0,0.0,0.0,0.0,0.0,0.0,0.0,0.0,0.0,0.0,0.0,0.0,0.0,0.0,0.0,0.0,0.0,0.0,0.0,0.0,0.0,0.0,0.0,0.0,0.0,0.0,0.0,0.0,0.0,0.0,0.0,0.0,0.0,0.0,0.0,0.0,0.0,0.0,0.0,0.0,0.0,0.0,0.0,0.0,0.0,0.0,0.0,0.0,0.0,0.0,0.0,0.0,0.0,0.0,0.0,0.0,0.0,0.0,0.0,0.0,0.0,0.0,0.0,0.0,0.0,0.0,0.0,0.0,0.0,0.0,0.0,0.0,0.0,-2.3887,-2.3887,-2.3555,-2.3296,-2.3296,-2.3296,-2.3257,-2.3198,0.0,0.0,0.0,0.0,0.0,0.0,0.0,0.0,0.0,0.0,0.0,0.0,0.0,0.0,0.0,0.0,0.0,0.0,0.0,0.0,0.0,0.0,0.0,0.0,0.0,0.0,0.0,0.0,0.0,0.0,0.0,0.0,0.0,0.0,0.0,0.0,0.0,0.0,0.0,0.0,0.0,0.0,0.0,0.0,0.0,0.0,0.0,0.0,0.0,0.0,0.0,0.0,0.0,0.0,0.0,0.0,0.0,0.0,0.0,0.0,0.0,0.0,0.0,0.0,0.0,0.0,0.0,0.0,0.0,0.0,0.0,0.0,0.0,0.0,0.0,0.0,0.0,0.0,0.0,0.0,0.0,0.0,0.0,0.0,0.0,0.0,0.0,0.0,0.0,0.0,0.0,0.0,0.0,0.0,0.0,0.0,0.0,0.0,0.0,0.0,0.0,0.0,0.0,0.0,-2.4316,-2.4316,-2.4258,-2.4173,-2.4173,-2.4173,-2.4062,-2.3711,0.0,0.0,0.0,0.0,0.0,0.0,0.0,0.0,0.0,0.0,0.0,0.0,0.0,0.0,0.0,0.0,0.0,0.0,0.0,0.0,0.0,0.0,0.0,0.0,0.0,0.0,0.0,0.0,0.0,0.0,0.0,0.0,0.0,0.0,0.0,0.0,0.0,0.0,0.0,0.0,0.0,0.0,0.0,0.0,0.0,0.0,0.0,0.0,0.0,0.0,0.0,0.0,0.0,0.0,0.0,0.0,0.0,0.0,0.0,0.0,0.0,0.0,0.0,0.0,0.0,0.0,0.0,0.0,0.0,0.0,0.0,0.0,0.0,0.0,0.0,0.0,0.0,0.0,0.0,0.0,0.0,0.0,0.0,0.0,0.0,0.0,0.0,0.0,0.0,0.0,0.0,0.0,0.0,0.0,0.0,0.0,0.0,0.0,0.0,0.0,0.0,0.0,0.0,-2.4766,-2.4668,-2.4434,-2.4414,-2.4414,-2.4414,-2.4414,-2.4336,-2.4141,-2.3945,0.0,0.0,0.0,0.0,0.0,0.0,0.0,0.0,0.0,0.0,0.0,0.0,0.0,0.0,0.0,0.0,0.0,0.0,0.0,0.0,0.0,0.0,0.0,0.0,0.0,0.0,0.0,0.0,0.0,0.0,0.0,0.0,0.0,0.0,0.0,0.0,0.0,0.0,0.0,0.0,0.0,0.0,0.0,0.0,0.0,0.0,0.0,0.0,0.0,0.0,0.0,0.0,0.0,0.0,0.0,0.0,0.0,0.0,0.0,0.0,0.0,0.0,0.0,0.0,0.0,0.0,0.0,0.0,0.0,0.0,0.0,0.0,0.0,0.0,0.0,0.0,0.0,0.0,0.0,0.0,0.0,0.0,0.0,0.0,0.0,0.0,0.0,0.0,0.0,0.0,0.0,0.0,0.0,0.0,0.0,0.0,0.0,0.0,0.0,0.0,0.0,0.0,-2.5215,-2.5098,-2.4766,-2.4727,-2.4727,-2.4727,-2.4727,-2.4687,-2.457,-2.4668,0.0,0.0,0.0,0.0,0.0,0.0,0.0,0.0,0.0,0.0,0.0,0.0,0.0,0.0,0.0,0.0,0.0,0.0,0.0,0.0,0.0,0.0,0.0,0.0,0.0,0.0,0.0,0.0,0.0,0.0,0.0,0.0,0.0,0.0,0.0,0.0,0.0,0.0,0.0,0.0,0.0,0.0,0.0,0.0,0.0,0.0,0.0,0.0,0.0,0.0,0.0,0.0,0.0,0.0,0.0,0.0,0.0,0.0,0.0,0.0,0.0,0.0,0.0,0.0,0.0,0.0,0.0,0.0,0.0,0.0,0.0,0.0,0.0,0.0,0.0,0.0,0.0,0.0,0.0,0.0,0.0,0.0,0.0,0.0,0.0,0.0,0.0,0.0,0.0,0.0,0.0,0.0,0.0,0.0,0.0,0.0,0.0,0.0,0.0,0.0,0.0,0.0,-2.5635,-2.5635,-2.5596,-2.5596,-2.5596,-2.5596,-2.5596,-2.5469,-2.5039,-2.541,0.0,0.0,0.0,0.0,0.0,0.0,0.0,0.0,0.0,0.0,0.0,0.0,0.0,0.0,0.0,0.0,0.0,0.0,0.0,0.0,0.0,0.0,0.0,0.0,0.0,0.0,0.0,0.0,0.0,0.0,0.0,0.0,0.0,0.0,0.0,0.0,0.0,0.0,0.0,0.0,0.0,0.0,0.0,0.0,0.0,0.0,0.0,0.0,0.0,0.0,0.0,0.0,0.0,0.0,0.0,0.0,0.0,0.0,0.0,0.0,0.0,0.0,0.0,0.0,0.0,0.0,0.0,0.0,0.0,0.0,0.0,0.0,0.0,0.0,0.0,0.0,0.0,0.0,0.0,0.0,0.0,0.0,0.0,0.0,0.0,0.0,0.0,0.0,0.0,0.0,0.0,0.0,0.0,0.0,0.0,0.0,0.0,0.0,0.0,0.0,0.0,0.0,-2.5693,-2.5693,-2.5693,-2.5693,-2.5693,-2.5693,-2.5693,-2.5615,-2.5488,0.0,0.0,0.0,0.0,0.0,0.0,0.0,0.0,0.0,0.0,0.0,0.0,0.0,0.0,0.0,0.0,0.0,0.0,0.0,0.0,0.0,0.0,0.0,0.0,0.0,0.0,0.0,0.0,0.0,0.0,0.0,0.0,0.0,0.0,0.0,0.0,0.0,0.0,0.0,0.0,0.0,0.0,0.0,0.0,0.0,0.0,0.0,0.0,0.0,0.0,0.0,0.0,0.0,0.0,0.0,0.0,0.0,0.0,0.0,0.0,0.0,0.0,0.0,0.0,0.0,0.0,0.0,0.0,0.0,0.0,0.0,0.0,0.0,0.0,0.0,0.0,0.0,0.0,0.0,0.0,0.0,0.0,0.0,0.0,0.0,0.0,0.0,0.0,0.0,0.0,0.0,0.0,0.0,0.0,0.0,0.0,0.0,0.0,0.0,0.0,0.0,0.0,-2.5693,-2.5693,-2.5693,-2.5693,-2.5693,-2.5693,-2.5693,-2.5693,-2.5693,-2.5693,0.0,0.0,0.0,0.0,0.0,0.0,0.0,0.0,0.0,0.0,0.0,0.0,0.0,0.0,0.0,0.0,0.0,0.0,0.0,0.0,0.0,0.0,0.0,0.0,0.0,0.0,0.0,0.0,0.0,0.0,0.0,0.0,0.0,0.0,0.0,0.0,0.0,0.0,0.0,0.0,0.0,0.0,0.0,0.0,0.0,0.0,0.0,0.0,0.0,0.0,0.0,0.0,0.0,0.0,0.0,0.0,0.0,0.0,0.0,0.0,0.0,0.0,0.0,0.0,0.0,0.0,0.0,0.0,0.0,0.0,0.0,0.0,0.0,0.0,0.0,0.0,0.0,0.0,0.0,0.0,0.0,0.0,0.0,0.0,0.0,0.0,0.0,0.0,0.0,0.0,0.0,0.0,0.0,0.0,0.0,0.0,0.0,0.0,0.0,0.0,0.0,0.0,-2.5693,-2.5693,-2.5693,-2.5693,-2.5693,-2.5693,-2.5693,-2.5693,-2.5693,0.0,0.0,0.0,0.0,0.0,0.0,0.0,0.0,0.0,0.0,0.0,0.0,0.0,0.0,0.0,0.0,0.0,0.0,0.0,0.0,0.0,0.0,0.0,0.0,0.0,0.0,0.0,0.0,0.0,0.0,0.0,0.0,0.0,0.0,0.0,0.0,0.0,0.0,0.0,0.0,0.0,0.0,0.0,0.0,0.0,0.0,0.0,0.0,0.0,0.0,0.0,0.0,0.0,0.0,0.0,0.0,0.0,0.0,0.0,0.0,0.0,0.0,0.0,0.0,0.0,0.0,0.0,0.0,0.0,0.0,0.0,0.0,0.0,0.0,0.0,0.0,0.0,0.0,0.0,0.0,0.0,0.0,0.0,0.0,0.0,0.0,0.0,0.0,0.0,0.0,0.0,0.0,0.0,0.0,0.0,0.0,0.0,0.0,0.0,0.0,0.0,0.0,0.0,-2.5693,-2.5693,-2.5693,-2.5693,-2.5693,-2.5693,-2.5693,-2.5693,-2.5693,-2.5693,0.0,0.0,0.0,0.0,0.0,0.0,0.0,0.0,0.0,0.0,0.0,0.0,0.0,0.0,0.0,0.0,0.0,0.0,0.0,0.0,0.0,0.0,0.0,0.0,0.0,0.0,0.0,0.0,0.0,0.0,0.0,0.0,0.0,0.0,0.0,0.0,0.0,0.0,0.0,0.0,0.0,0.0,0.0,0.0,0.0,0.0,0.0,0.0,0.0,0.0,0.0,0.0,0.0,0.0,0.0,0.0,0.0,0.0,0.0,0.0,0.0,0.0,0.0,0.0,0.0,0.0,0.0,0.0,0.0,0.0,0.0,0.0,0.0,0.0,0.0,0.0,0.0,0.0,0.0,0.0,0.0,0.0,0.0,0.0,0.0,0.0,0.0,0.0,0.0,0.0,0.0,0.0,0.0,0.0,0.0,0.0,0.0,0.0,0.0,0.0,0.0,0.0,-2.5693,-2.5693,-2.5693,-2.5693,-2.5693,-2.5693,-2.5693,-2.5693,-2.5693,-2.5693,0.0,0.0,0.0,0.0,0.0,0.0,0.0,0.0,0.0,0.0,0.0,0.0,0.0,0.0,0.0,0.0,0.0,0.0,0.0,0.0,0.0,0.0,0.0,0.0,0.0,0.0,0.0,0.0,0.0,0.0,0.0,0.0,0.0,0.0,0.0,0.0,0.0,0.0,0.0,0.0,0.0,0.0,0.0,0.0,0.0,0.0,0.0,0.0,0.0,0.0,0.0,0.0,0.0,0.0,0.0,0.0,0.0,0.0,0.0,0.0,0.0,0.0,0.0,0.0,0.0,0.0,0.0,0.0,0.0,0.0,0.0,0.0,0.0,0.0,0.0,0.0,0.0,0.0,0.0,0.0,0.0,0.0,0.0,0.0,0.0,0.0,0.0,0.0,0.0,0.0,0.0,0.0,0.0,0.0,0.0,0.0,0.0,0.0,0.0,0.0,0.0,0.0,-2.581,-2.5771,-2.5752,-2.5752,-2.5713,-2.5693,-2.5693,-2.5693,-2.5693,-2.5693,0.0,0.0,0.0,0.0,0.0,0.0,0.0,0.0,0.0,0.0,0.0,0.0,0.0,0.0,0.0,0.0,0.0,0.0,0.0,0.0,0.0,0.0,0.0,0.0,0.0,0.0,0.0,0.0,0.0,0.0,0.0,0.0,0.0,0.0,0.0,0.0,0.0,0.0,0.0,0.0,0.0,0.0,0.0,0.0,0.0,0.0,0.0,0.0,0.0,0.0,0.0,0.0,0.0,0.0,0.0,0.0,0.0,0.0,0.0,0.0,-2.6544,-2.6088,0.0,0.0,0.0,0.0,0.0,0.0,0.0,0.0,0.0,0.0,0.0,0.0,0.0,0.0,0.0,0.0,0.0,0.0,0.0,0.0,0.0,0.0,0.0,0.0,0.0,0.0,0.0,0.0,0.0,0.0,0.0,0.0,0.0,0.0,0.0,0.0,0.0,0.0,0.0,0.0,-2.6738,-2.6445,-2.625,-2.625,-2.5937,-2.5693,-2.5693,-2.5693,-2.5693,-2.5693,-2.5693,0.0,0.0,0.0,0.0,0.0,0.0,0.0,0.0,0.0,0.0,0.0,0.0,0.0,0.0,0.0,0.0,0.0,0.0,0.0,0.0,0.0,0.0,0.0,0.0,0.0,0.0,0.0,0.0,0.0,0.0,0.0,0.0,0.0,0.0,0.0,0.0,0.0,0.0,0.0,0.0,0.0,0.0,0.0,0.0,0.0,0.0,0.0,0.0,0.0,0.0,0.0,0.0,0.0,0.0,0.0,0.0,0.0,0.0,0.0,-2.7137,-2.6778,0.0,0.0,0.0,0.0,0.0,0.0,0.0,0.0,0.0,0.0,0.0,0.0,0.0,0.0,0.0,0.0,0.0,0.0,0.0,0.0,0.0,0.0,0.0,0.0,0.0,0.0,0.0,0.0,0.0,0.0,0.0,0.0,0.0,0.0,0.0,0.0,0.0,0.0,0.0,0.0,-2.7012,-2.6836,-2.6699,-2.6699,-2.6484,-2.6298,-2.6298,-2.6298,-2.6298,-2.6298,-2.6298,0.0,0.0,0.0,0.0,0.0,0.0,0.0,0.0,0.0,0.0,0.0,0.0,0.0,0.0,0.0,0.0,0.0,0.0,0.0,0.0,0.0,0.0,0.0,0.0,0.0,0.0,0.0,0.0,0.0,0.0,0.0,0.0,0.0,0.0,0.0,0.0,0.0,0.0,0.0,0.0,0.0,0.0,0.0,0.0,0.0,0.0,0.0,0.0,0.0,0.0,0.0,0.0,0.0,-2.7926,-2.8067,-2.7906,-2.8121,-2.8247,-2.8301,-2.7745,-2.7691,-2.7853,-2.7368,0.0,0.0,0.0,0.0,0.0,0.0,0.0,0.0,0.0,0.0,0.0,0.0,0.0,0.0,0.0,0.0,0.0,0.0,0.0,0.0,0.0,0.0,-2.8301,-2.8301,-2.8301,-2.8301,-2.8301,0.0,0.0,0.0,0.0,0.0,0.0,0.0,0.0,0.0,0.0,0.0,-2.7246,-2.7168,-2.7129,-2.7129,-2.707,-2.7012,-2.7012,-2.7012,-2.7012,-2.7012,-2.7012,-2.6855,0.0,0.0,0.0,0.0,0.0,0.0,0.0,0.0,0.0,0.0,0.0,0.0,0.0,0.0,0.0,0.0,0.0,0.0,0.0,0.0,0.0,0.0,0.0,0.0,0.0,0.0,0.0,0.0,0.0,0.0,0.0,0.0,-2.796,-2.8228,0.0,0.0,0.0,0.0,0.0,0.0,0.0,0.0,0.0,0.0,0.0,0.0,0.0,-2.7906,-2.7906,-2.7638,-2.7476,-2.7368,-2.7476,-2.7638,-2.7906,-2.796,-2.8067,-2.8301,-2.8247,0.0,-2.7906,-2.7799,0.0,0.0,0.0,0.0,0.0,0.0,0.0,0.0,0.0,0.0,0.0,0.0,0.0,0.0,0.0,0.0,0.0,0.0,0.0,0.0,0.0,0.0,-2.8301,-2.8301,-2.8301,-2.8301,-2.8301,-2.8301,-2.8301,-2.8301,-2.8301,-2.8301,0.0,0.0,0.0,0.0,0.0,0.0,-2.8125,-2.7812,-2.763,-2.763,-2.7246,-2.7012,-2.7012,-2.7012,-2.7012,-2.7012,-2.7012,-2.6992,-2.6934,-2.6934,0.0,0.0,0.0,0.0,0.0,0.0,0.0,0.0,0.0,0.0,0.0,0.0,0.0,0.0,0.0,0.0,0.0,0.0,0.0,0.0,0.0,0.0,0.0,0.0,0.0,0.0,0.0,0.0,0.0,-2.7368,-2.7422,-2.7584,-2.7225,-2.7062,0.0,0.0,0.0,0.0,0.0,0.0,0.0,0.0,0.0,-2.7584,-2.7638,-2.7691,-2.7906,-2.7745,-2.7584,-2.7368,-2.7368,-2.7584,-2.7906,-2.7906,-2.8067,-2.8301,-2.8301,-2.8228,-2.8121,-2.796,-2.7745,-2.7476,0.0,0.0,0.0,0.0,-2.7206,-2.726,-2.7584,-2.7691,-2.7691,-2.7691,0.0,0.0,0.0,0.0,0.0,0.0,0.0,-2.8301,-2.8301,-2.8301,-2.8301,-2.8301,-2.8301,-2.8301,-2.8301,-2.8301,-2.8301,-2.8301,-2.8301,-2.8301,-2.8301,-2.8301,0.0,0.0,0.0,-2.8301,-2.8301,-2.8125,-2.8027,-2.8027,-2.7851,-2.7734,-2.7734,-2.7734,-2.7734,-2.7734,-2.7734,-2.7637,-2.7383,-2.7383,-2.7266,0.0,0.0,0.0,0.0,0.0,0.0,0.0,0.0,0.0,0.0,0.0,0.0,0.0,0.0,0.0,0.0,0.0,0.0,0.0,0.0,0.0,0.0,0.0,0.0,0.0,0.0,0.0,0.0,-2.7098,-2.7098,-2.7098,-2.6899,-2.6791,0.0,0.0,0.0,0.0,0.0,0.0,-2.6591,-2.67,-2.6899,-2.726,-2.7422,-2.7638,-2.7906,-2.8022,-2.7918,-2.7701,-2.7706,-2.7908,-2.8234,-2.8234,-2.8284,-2.8457,-2.8457,-2.8398,-2.8301,-2.8067,-2.796,-2.7906,-2.7638,-2.7476,-2.7422,-2.7476,-2.753,-2.7584,-2.7906,-2.8014,-2.8014,-2.8014,-2.796,-2.7853,-2.7584,0.0,0.0,0.0,0.0,-2.8301,-2.8301,-2.8301,-2.8301,-2.8301,-2.8301,-2.8301,-2.8301,-2.8301,-2.8301,-2.8301,-2.8301,-2.8301,-2.8301,-2.8301,0.0,-2.8301,-2.8301,-2.8301,-2.8301,-2.8301,-2.8301,-2.8301,-2.8301,-2.8301,-2.8301,-2.8301,-2.8301,-2.8301,-2.8301,-2.8144,-2.7885,-2.7832,-2.7676,-2.7344,0.0,0.0,0.0,0.0,0.0,0.0,0.0,0.0,0.0,0.0,0.0,0.0,0.0,0.0,0.0,0.0,0.0,0.0,0.0,0.0,0.0,0.0,0.0,0.0,0.0,0.0,0.0,0.0,0.0,-2.7368,-2.7152,0.0,0.0,0.0,0.0,-2.6646,-2.6591,-2.6591,-2.6591,-2.6845,-2.6989,-2.7043,-2.7584,-2.7906,-2.7906,-2.8276,-2.8468,-2.8432,-2.8593,-2.8784,-2.9064,-2.9064,-2.9,-2.8887,-2.8887,-2.8652,-2.8301,-2.8301,-2.8121,-2.7906,-2.7906,-2.7691,-2.7422,-2.7745,-2.7853,-2.7906,-2.8194,-2.8301,-2.8301,-2.8301,-2.8121,-2.7906,-2.7906,-2.7906,0.0,0.0,-2.8067,-2.8301,-2.8301,-2.8301,-2.8301,-2.8301,-2.8301,-2.8301,-2.8301,-2.8301,-2.8301,-2.8301,-2.8301,-2.8301,-2.8301,0.0,-2.8301,-2.8301,-2.8301,-2.8301,-2.8301,-2.8301,-2.8301,-2.8301,-2.8301,-2.8301,-2.8301,-2.8301,-2.8301,-2.8301,-2.8301,-2.8281,-2.8262,-2.8262,-2.8262,-2.8223,-2.8223,0.0,0.0,0.0,0.0,0.0,0.0,0.0,0.0,0.0,0.0,0.0,0.0,0.0,0.0,0.0,0.0,0.0,0.0,0.0,0.0,0.0,0.0,0.0,0.0,0.0,0.0,0.0,0.0,-2.6899,-2.6791,0.0,-2.6736,-2.6646,-2.6591,-2.6591,-2.6591,-2.6701,-2.6958,-2.7068,-2.7345,-2.7772,-2.8162,-2.8384,-2.8384,-2.8722,-2.8799,-2.8631,-2.8652,-2.8841,-2.9066,-2.9066,-2.9213,-2.9336,-2.9336,-2.9258,-2.9121,-2.9121,-2.8735,-2.8174,-2.8174,-2.8067,-2.796,-2.8121,-2.8174,-2.8174,-2.8301,-2.8301,-2.8301,-2.8301,-2.8228,-2.8174,-2.8174,-2.8315,-2.8529,-2.8529,-2.8852,-2.9121,-2.9121,-2.9121,-2.9121,-2.9121,-2.9121,-2.9121,-2.9121,-2.9121,-2.9121,-2.9121,-2.8672,-2.8301,-2.8301,-2.8301,-2.8301,-2.8301,-2.8301,-2.8301,-2.8301,-2.8301,-2.8301,-2.8301,-2.8301,-2.8301,-2.8301,-2.8301,-2.8301,-2.8301,-2.8301,-2.8301,-2.8301,-2.8301,-2.8301,-2.8301,-2.8301,-2.8301,0.0,0.0,0.0,0.0,0.0,0.0,0.0,0.0,0.0,0.0,0.0,0.0,0.0,0.0,0.0,0.0,0.0,0.0,0.0,0.0,0.0,0.0,0.0,0.0,0.0,-2.6682,-2.6591,-2.6591,-2.6591,-2.6646,-2.6774,-2.6793,-2.6848,-2.6976,-2.6976,-2.7105,-2.7361,-2.7492,-2.7715,-2.8049,-2.8502,-2.8728,-2.8728,-2.9087,-2.9277,-2.9221,-2.9374,-2.9565,-2.9735,-2.9735,-2.9752,-2.9785,-2.9785,-2.9707,-2.9626,-2.9626,-2.9238,-2.873,-2.873,-2.873,-2.873,-2.873,-2.873,-2.873,-2.873,-2.873,-2.873,-2.873,-2.873,-2.873,-2.873,-2.8906,-2.9141,-2.9141,-2.9355,-2.9626,-2.9626,-2.9626,-2.9626,-2.9626,-2.9626,-2.9626,-2.9626,-2.9626,-2.9626,-2.9626,-2.9101,-2.873,-2.873,-2.873,-2.873,-2.873,-2.873,-2.873,-2.873,-2.873,-2.873,-2.873,-2.873,-2.873,-2.873,-2.873,-2.8672,-2.8516,-2.8496,-2.8437,-2.8301,-2.8301,-2.8301,-2.8301,-2.8301,-2.8301,-2.8301,0.0,0.0,0.0,0.0,0.0,0.0,0.0,0.0,0.0,0.0,0.0,0.0,0.0,0.0,0.0,0.0,0.0,0.0,0.0,0.0,0.0,0.0,0.0,-2.6591,-2.6591,-2.6591,-2.6609,-2.6609,-2.6756,-2.7215,-2.7196,-2.7361,-2.7785,-2.7822,-2.7822,-2.784,-2.8068,-2.8086,-2.7858,-2.8427,-2.8766,-2.8766,-2.947,-2.9948,-3.0215,-3.0684,-3.0898,-3.0898,-3.0898,-3.0644,-3.0215,-3.0215,-2.998,-2.9665,-2.9665,-2.9665,-2.9665,-2.9646,-2.9626,-2.9626,-2.9626,-2.9626,-2.9626,-2.9626,-2.9626,-2.9626,-2.9626,-2.9626,-2.9626,-2.9626,-2.9646,-2.9646,-2.9646,-2.9646,-2.9665,-2.9665,-2.9665,-2.9665,-2.9665,-2.9665,-2.9665,-2.9665,-2.9665,-2.9665,-2.9665,-2.9665,-2.9609,-2.957,-2.9626,-2.9626,-2.9626,-2.9626,0.0,-2.9626,-2.9626,-2.9626,-2.9626,-2.9626,-2.9626,-2.9626,-2.9626,-2.9394,-2.8965,-2.8945,-2.875,-2.8359,-2.834,-2.832,-2.832,-2.8301,-2.8301,-2.8301,0.0,0.0,0.0,0.0,0.0,0.0,0.0,0.0,0.0,0.0,0.0,0.0,0.0,0.0,0.0,0.0,0.0,0.0,0.0,0.0,0.0,-2.8024,-2.7638,-2.6956,-2.6736,-2.6701,-2.6976,-2.7013,-2.7289,-2.7845,-2.7769,-2.7768,-2.8049,-2.7879,-2.795,-2.8205,-2.8281,-2.8584,-2.9037,-2.9406,-2.9581,-2.9581,-3.0238,-3.0529,-3.0335,-3.0704,-3.0898,-3.0898,-3.0898,-3.082,-3.0703,-3.0703,-3.0644,-3.0527,-3.0527,-3.0527,-3.0469,-2.9824,-2.9626,-2.9626,-2.9626,-2.9626,-2.9626,-2.9626,-2.9626,-2.9626,-2.9626,-2.9626,-2.9626,-2.9626,-2.9785,-3.0019,-3.0019,-3.0273,-3.0527,-3.0527,-3.0527,-3.0527,-3.0527,-3.0527,-3.0527,-3.0527,-3.0527,-3.0527,-3.0527,-3.0527,-3.0332,-2.9744,-2.9626,-2.9626,-2.9626,-2.9626,-2.9626,-2.9626,-2.9626,-2.9626,-2.9626,-2.9626,-2.9626,-2.9626,-2.9626,-2.9512,-2.9394,-2.9394,-2.9336,-2.9219,-2.9219,-2.9062,-2.875,-2.8437,-2.8301,0.0,0.0,0.0,0.0,0.0,0.0,0.0,0.0,0.0,0.0,0.0,0.0,0.0,0.0,0.0,0.0,0.0,0.0,0.0,0.0,0.0,0.0,-2.8242,-2.7932,-2.7382,-2.7179,-2.7215,-2.7566,-2.7603,-2.7864,-2.8386,-2.8423,-2.8479,-2.8549,-2.851,-2.8602,-2.8861,-2.8997,-2.9149,-2.949,-2.9745,-2.9922,-2.9922,-3.0294,-3.0528,-3.0645,-3.082,-3.0898,-3.0898,-3.0898,-3.0898,-3.0898,-3.0898,-3.0898,-3.0898,-3.0898,-3.0898,-3.084,0.0,0.0,0.0,0.0,-3.0117,-3.0117,-3.0117,-3.0117,-3.0117,-3.0117,-3.0117,-3.0117,-3.0117,-3.0293,-3.0488,-3.0488,-3.0684,-3.0898,-3.0898,-3.0898,-3.0898,-3.0898,-3.0898,-3.0898,-3.0898,-3.0898,-3.0898,-3.0898,-3.0898,0.0,-3.0215,-3.0117,-3.0117,-3.0117,-3.0117,-3.0117,-3.0117,-3.0117,-3.0117,-3.0117,-3.0117,-3.0344,-3.0834,-3.089,0.0,0.0,0.0,-3.0286,-2.9626,-3.0107,0.0,0.0,0.0,-2.9621,-2.9621,-2.9621,0.0,0.0,-2.892,-2.8301,0.0,0.0,0.0,0.0,0.0,0.0,0.0,0.0,0.0,0.0,0.0,0.0,0.0,0.0,0.0,0.0,-2.815,-2.795,-2.8008,-2.7969,-2.8008,-2.818,-2.8294,-2.85,-2.8853,-2.918,-2.9273,-2.9135,-2.9331,-2.9509,-2.945,-2.9686,0.0,0.0,0.0,-2.9998,-2.9998,-3.0094,-3.0428,-3.0976,-3.1035,-3.1016,-3.0957,-3.0957,-3.0937,-3.0898,-3.0898,-3.0898,-3.0898,-3.0898,-3.0898,-3.0898,-3.0898,-3.0898,-3.0898,-3.0898,-3.0898,-3.0898,-3.0898,0.0,0.0,-3.0898,-3.0898,-3.0898,-3.0898,-3.0898,-3.0898,-3.0898,-3.0898,-3.0898,-3.0898,-3.0898,-3.0898,-3.0898,-3.0995,-3.1054,-3.0957,-3.0995,-3.1054,-3.0957,-3.0898,-3.0898,-3.0898,-3.0898,-3.0898,-3.0898,-3.0898,-3.0898,-3.0898,-3.0898,-3.0898,-3.0898,-3.0995,0.0,-3.2628,-3.2799,-3.2669,-3.212,-3.2099,-3.1467,-3.0231,-3.1127,-3.1086,-2.9908,-3.099,-3.155,-3.1387,-3.155,-3.2146,-3.3143,-3.0204,-2.8846,0.0,0.0,0.0,0.0,0.0,0.0,0.0,0.0,0.0,0.0,0.0,0.0,0.0,0.0,0.0,-2.8865,-2.881,-2.8855,-2.9149,-2.8913,-2.8685,-2.8373,-2.8762,-2.9277,-2.9634,-2.9554,-2.9533,-2.9686,-2.9568,-2.939,-2.9094,-2.939,-2.9627,-2.9804,-3.0263,-3.0553,-3.0773,-3.1438,-3.1672,-3.1571,-3.1793,0.0,-3.1406,-3.1406,-3.1211,-3.0898,-3.0898,-3.0898,-3.0898,-3.0898,-3.0898,-3.0898,-3.0898,-3.0898,-3.0898,-3.0898,-3.0898,-3.0898,-3.0898,-3.0898,-3.0898,-3.0898,-3.0898,-3.0898,-3.0898,-3.0898,0.0,-3.0898,-3.0898,-3.0898,-3.0898,-3.0898,-3.0898,-3.0898,-3.1614,-3.2076,-3.1112,-3.1672,-3.2076,-3.1112,-3.0898,-3.0898,-3.0898,-3.0898,-3.0898,-3.0898,-3.0898,-3.0898,-3.0898,-3.0898,-3.0898,-3.0898,-3.1787,-3.2457,-3.2685,-3.3515,-3.3642,-3.2597,-3.254,-3.2839,-3.3463,-3.3387,-3.2754,-3.1558,-3.2392,-3.2362,-3.1387,-3.2362,-3.293,-3.3143,-3.2543,-3.2244,0.0,0.0,0.0,0.0,0.0,0.0,0.0,0.0,0.0,0.0,0.0,-2.8755,-2.8938,0.0,-2.9035,-2.9213,-2.9094,-2.9094,-2.945,-2.945,-2.9434,-2.9404,-2.9367,-2.95,-2.9844,-2.9922,-2.9938,-2.9987,-2.9987,-3.0081,-3.0366,-3.0366,-3.0487,-3.0806,-3.1016,-3.1232,-3.1353,-3.1747,-3.1924,-3.1924,-3.2107,-3.2051,-3.1836,-3.1836,-3.1738,-3.1523,-3.1523,-3.1523,-3.1504,-3.1289,-3.1211,-3.1191,-3.0976,-3.0898,-3.0898,-3.0898,-3.0898,-3.0898,-3.0898,-3.0898,-3.0898,-3.0898,-3.0898,-3.0898,-3.0898,-3.0898,-3.0898,-3.0898,-3.1344,-3.1787,-3.1787,-3.1787,-3.1787,-3.1787,-3.2227,-3.2576,-3.2223,-3.3132,-3.3862,-3.3538,-3.296,-3.249,-3.249,-3.249,-3.2114,-3.1074,-3.0898,-3.1112,-3.173,-3.1787,-3.2018,-3.2607,-3.3176,-3.3797,-3.4413,-3.4947,-3.5057,-3.4525,-3.3909,-3.3797,-3.4391,-3.4758,-3.4406,-3.3245,-3.4185,-3.4378,-3.3781,-3.4378,-3.497,-3.5557,-3.561,-3.4751,0.0,0.0,0.0,0.0,0.0,0.0,0.0,-2.7252,-2.7805,-2.7914,-2.8465,-2.9002,-2.9094,-2.9094,-2.9213,-2.945,-2.9331,-2.9272,-2.9568,-2.9761,-3.0113,-3.0566,-3.0154,-2.9917,-3.0094,-3.0407,-3.0479,-3.0358,-3.0479,-3.0872,-3.1478,-3.1356,-3.1417,-3.1619,-3.1757,-3.1815,-3.1815,-3.1954,-3.2176,-3.2422,-3.2422,-3.2363,-3.2285,-3.2285,-3.2246,-3.2229,-3.2229,-3.2229,-3.2148,-3.1797,-3.1641,-3.1601,-3.1269,-3.1133,-3.1113,-3.0957,-3.0898,-3.0898,-3.0898,-3.1054,-3.1228,-3.1015,-3.1228,-3.1498,-3.1054,-3.1054,-3.1248,-3.1055,-3.1908,-3.283,-3.2913,-3.3163,-3.3335,-3.3335,-3.3507,-3.3726,-3.3854,-3.4841,-3.5751,-3.5975,-3.5189,-3.4484,-3.4484,-3.4484,-3.3782,-3.1799,-3.1524,-3.1991,-3.3163,-3.3106,-3.3335,-3.4224,-3.4787,-3.5569,-3.6749,-3.6639,-3.6539,-3.6719,-3.56,-3.4924,-3.5113,-3.6068,-3.6013,-3.4781,-3.5936,-3.6449,-3.6177,-3.6449,-3.7066,-3.7974,-3.7974,-3.6596,-2.6646,-2.6646,-2.6591,-2.6591,-2.6591,-2.6683,0.0,-2.7382,-2.7753,-2.8226,-2.8602,-2.8944,-2.9375,-2.945,-2.945,-2.9509,-2.9686,-2.9804,-2.9863,-2.9964,-3.037,-3.1267,-3.1326,-3.1188,-3.0871,-3.1035,-3.11,-3.1096,-3.1096,-3.1054,-3.0803,-3.1313,-3.1497,-3.1294,-3.1903,-3.2238,-3.2238,-3.2918,-3.3218,-3.3281,-3.3281,-3.3086,-3.2734,-3.2734,-3.2519,-3.2229,-3.2229,-3.2229,-3.2229,-3.2109,-3.209,-3.209,-3.2051,-3.2031,-3.1934,-3.1172,-3.0898,-3.0898,-3.0898,-3.1614,-3.2285,-3.1228,-3.2342,-3.3607,-3.1498,-3.1672,-3.2367,-3.1624,-3.2351,-3.3406,-3.382,-3.4806,-3.5656,-3.5656,-3.6461,-3.694,-3.5953,-3.6665,-3.7201,-3.6214,-3.5867,-3.5751,-3.5751,-3.5751,-3.5322,-3.3945,-3.3767,-3.4219,-3.5483,-3.463,-3.3983,-3.4101,-3.6117,-3.7924,-3.9141,-3.8204,-3.7906,-3.8472,-3.7362,-3.6965,-3.7548,-3.7708,-3.7203,-3.6013,-3.7173,-3.7281,-3.6177,-3.7281,-3.7868,-3.7974,-3.7974,-3.782,-2.6591,-2.6591,-2.6591,-2.6591,-2.6736,-2.6902,-2.7142,-2.7567,-2.8013,-2.8336,-2.8864,-2.9303,-2.9471,-2.9627,-2.9804,-2.9981,-2.9981,-3.0016,-3.0244,-3.0493,-3.0822,-3.1252,-3.1866,-3.2046,-3.1491,-3.1443,-3.1593,-3.1822,-3.1841,-3.1894,-3.1998,-3.2036,-3.2161,-3.2205,-3.2502,-3.2724,-3.2913,-3.3277,-3.3418,-3.3418,-3.3418,-3.332,-3.3164,-3.3164,-3.3066,-3.2891,-3.2704,-3.2723,-3.2891,-3.2451,-3.2293,-3.2273,-3.2205,-3.1924,-3.1581,-3.1638,-3.1641,-3.1641,-3.1641,-3.1979,-3.2315,-3.18,-3.2315,-3.3062,-3.2827,-3.312,-3.3609,-3.4031,-3.5005,-3.6029,-3.617,-3.664,-3.7041,-3.7041,-3.744,-3.7759,-3.7517,-3.8469,-3.9269,-3.9035,-3.8364,-3.7875,-3.7875,-3.7875,-3.7699,-3.717,-3.6003,-3.5635,-3.6869,-3.6582,-3.6525,-3.7212,-3.8199,-3.903,-3.9554,-3.9141,-3.8991,-3.9242,-3.8808,-3.8658,-3.8936,-3.8936,-3.855,-3.7753,-3.8186,-3.8096,-3.7281,-3.7761,-3.7974,-3.7974,-3.7974,-3.7974,-2.6646,-2.6646,-2.6682,-2.6682,-2.6865,-2.7104,-2.7419,-2.7995,-2.8575,-2.8695,-2.9245,-2.9745,-2.9745,-2.9922,-3.0098,-3.0392,-3.037,-3.0443,-3.061,-3.1038,-3.1427,-3.1612,-3.2324,-3.2665,-3.2231,-3.2088,-3.2161,-3.245,-3.2469,-3.2604,-3.2912,-3.274,-3.2721,-3.2912,-3.2994,-3.3102,-3.3228,-3.3355,-3.3355,-3.3228,-3.3355,-3.3355,-3.3292,-3.3355,-3.3355,-3.3228,-3.2994,-3.2994,-3.3082,-3.2541,-3.2406,-3.245,-3.2328,-3.1965,-3.1698,-3.2623,-3.277,-3.2573,-3.2693,-3.3155,-3.3674,-3.3335,-3.3674,-3.4268,-3.4543,-3.4837,-3.5269,-3.5983,-3.7071,-3.8033,-3.8171,-3.8446,-3.8731,-3.8731,-3.8731,-3.8847,-3.922,-4.0002,-4.0739,-4.11,-4.0455,-3.9767,-3.9767,-3.9767,-3.9767,-3.9767,-3.8445,-3.7735,-3.8617,-3.8389,-3.8674,-3.993,-3.9682,-3.9626,-3.9986,-4.0042,-3.997,-3.9826,-3.9826,-3.9753,-3.9609,-3.9609,-3.9417,-3.9056,-3.9032,-3.8839,-3.8431,-3.8431,-3.8431,-3.8431,-3.8431,-3.8431,-2.67,-2.6791,-2.6989,-2.6989,-2.7086,-2.7381,-2.7995,-2.8747,-2.9315,-2.9456,-2.9962,-3.0392,-3.0392,-3.0392,-3.0392,-3.0392,-3.0975,-3.1325,-3.1007,-3.1738,-3.2401,-3.2711,-3.2831,-3.3019,-3.3316,-3.3063,-3.2892,-3.2892,-3.2912,-3.2912,-3.2912,-3.3165,-3.3228,-3.2912,-3.3228,-3.3228,-3.2931,-3.3228,-3.3228,-3.2931,-3.3228,-3.3228,-3.2912,-3.3228,-3.3228,-3.2912,-3.2912,-3.274,-3.2422,-3.2403,-3.2594,-3.2829,-3.2511,-3.2575,-3.3,-3.4342,-3.4289,-3.3593,-3.3912,-3.5598,-3.744,-3.6294,-3.744,-3.8974,-3.664,-3.6755,-3.7554,-3.6868,-3.7587,-3.8689,-3.9055,-4.0094,-4.1067,-4.1067,-4.1067,-4.1067,-4.1091,-4.1148,-4.1172,-4.1172,-4.1172,-4.1115,-4.1115,-4.1115,-4.1115,-4.1115,-4.1091,-4.1067,-4.1067,-3.9978,-3.9663,-4.1009,-3.9978,-3.9721,-4.1009,-4.1124,-4.0908,-4.0403,-4.0379,-4.0138,-3.9633,-3.9609,-3.9609,-3.9585,-3.9585,-3.9585,-3.9561,-3.9561,-3.9561,-3.9561,-3.9561,-3.9561,-2.6881,-2.7303,-2.7729,-2.7729,-2.7939,-2.8352,-2.8804,-2.9126,-2.9353,-2.971,-3.0098,-3.0392,-3.0392,-3.0567,-3.0704,-3.0704,-3.1171,-3.1501,-3.1411,-3.2115,-3.2723,-3.287,-3.3087,-3.3292,-3.3355,-3.3102,-3.2975,-3.3228,-3.3038,-3.2912,-3.2912,-3.2994,-3.3038,-3.2912,-3.2975,-3.3102,-3.3228,-3.3355,-3.3355,-3.3228,-3.3355,-3.3228,-3.2912,-3.3228,-3.3102,-3.2549,-3.2549,-3.2613,-3.2804,-3.3461,-3.3882,-3.432,-3.5294,-3.5479,-3.5273,-3.6133,-3.6729,-3.6925,-3.641,-3.6768,-3.7421,-3.7006,-3.7421,-3.8069,-3.8128,-3.842,-3.8873,-3.9488,-3.9998,-4.0358,-4.0466,-4.0884,-4.1172,-4.1172,-4.1172,-4.1172,-4.1172,-4.1172,-4.1172,-4.1172,-4.1172,-4.1293,-4.1653,-4.1701,-4.1822,-4.2241,-4.1629,-4.1172,-4.1172,-4.0826,-4.0687,-4.1115,-4.0803,-4.0687,-4.1172,-4.1172,-4.11,-4.0932,-4.0908,-4.0836,-4.0667,-4.0643,-4.0499,-4.0138,-4.0138,-3.9946,-3.9609,-3.9609,-3.9609,-3.9609,-3.9609,-3.9609,-2.7339,-2.7729,-2.814,-2.8403,-2.8596,-2.8842,-2.9336,-2.9584,-2.9774,-3.0041,-3.0333,-3.0567,-3.0567,-3.0762,-3.0898,-3.0898,-3.1367,-3.1776,-3.1825,-3.2533,-3.3062,-3.3082,-3.3292,-3.3418,-3.3418,-3.3102,-3.3038,-3.3355,-3.3165,-3.3102,-3.3102,-3.3102,-3.3038,-3.2912,-3.3038,-3.3102,-3.3228,-3.3355,-3.3418,-3.3418,-3.3292,-3.3165,-3.3102,-3.3292,-3.3102,-3.2613,-3.3102,-3.3355,-3.3461,-3.4133,-3.4632,-3.5005,-3.5909,-3.6072,-3.5949,-3.7287,-3.8186,-3.8602,-3.8127,-3.8268,-3.8684,-3.8684,-3.8684,-3.8885,-3.965,-3.9908,-4.0083,-4.0942,-4.1172,-4.1172,-4.1172,-4.1172,-4.122,-4.1413,-4.1461,-4.1509,-4.1701,-4.1749,-4.1749,-4.1749,-4.1749,-4.1846,-4.2265,-4.2313,-4.2434,-4.2771,-4.2182,-4.1749,-4.1749,-4.1749,-4.1749,-4.1749,-4.1749,-4.1749,-4.1749,-4.1749,-4.1677,-4.1485,-4.1461,-4.1389,-4.1196,-4.1172,-4.1028,-4.0691,-4.0691,-4.0523,-4.0162,-4.0162,-4.0162,-4.0162,-4.0162,-4.0162,-2.8007,-2.814,-2.8309,-2.9008,-2.9013,-2.9027,-2.968,-3.0161,-3.0392,-3.045,-3.0704,-3.0898,-3.0898,-3.0898,-3.0898,-3.0898,-3.1601,-3.2229,-3.2229,-3.2891,-3.3418,-3.3418,-3.3418,-3.3418,-3.3418,-3.3102,-3.3058,-3.3355,-3.3355,-3.3355,-3.3418,-3.3374,-3.3267,-3.295,-3.3223,-3.3306,-3.2988,-3.3306,-3.3476,-3.3457,-3.314,-3.314,-3.3355,-3.3418,-3.3228,-3.2912,-3.4258,-3.4632,-3.432,-3.4507,-3.4757,-3.5005,-3.4798,-3.4922,-3.554,-3.797,-3.8885,-3.8885,-3.9226,-4.0188,-4.1172,-4.1172,-4.1172,-4.1172,-4.1172,-4.1196,-4.122,-4.122,-4.1244,-4.1268,-4.1268,-4.1268,-4.1389,-4.1894,-4.2014,-4.2158,-4.2699,-4.2819,-4.2819,-4.2819,-4.2843,-4.2867,-4.2867,-4.2891,-4.2916,-4.2916,-4.2916,-4.2891,-4.2819,-4.2819,-4.2819,-4.2819,-4.2819,-4.2819,-4.2819,-4.2819,-4.2602,-4.2038,-4.2014,-4.1798,-4.1293,-4.1268,-4.1268,-4.1268,-4.1244,-4.122,-4.122,-4.1196,-4.1172,-4.1172,-4.1172,-4.1172,-2.8377,-2.9005,-2.9676,-2.9906,-2.9968,-3.0102,-3.0548,-3.049,-3.045,-3.0704,-3.082,-3.0898,-3.0898,-3.0898,-3.0898,-3.0898,-3.1601,-3.2229,-3.2229,-3.2891,-3.3418,-3.3418,-3.3418,-3.3418,-3.3418,-3.3292,-3.3292,-3.3418,-3.3165,-3.3102,-3.3355,-3.3456,-3.3437,-3.3373,-3.3505,-3.3677,-3.3854,-3.418,-3.4219,-3.3906,-3.3842,-3.3539,-3.3038,-3.3292,-3.3102,-3.2549,-3.3165,-3.3355,-3.3398,-3.5396,-3.6377,-3.6864,-3.8744,-3.9533,-3.972,-4.0764,-4.0964,-4.0858,-4.1353,-4.1353,-4.1172,-4.1172,-4.1172,-4.1172,-4.1172,-4.1461,-4.1774,-4.1774,-4.2062,-4.241,-4.241,-4.241,-4.2458,-4.2578,-4.2627,-4.2651,-4.2795,-4.2819,-4.2819,-4.2819,-4.3072,-4.3313,-4.3313,-4.3673,-4.3938,-4.3938,-4.3938,-4.3649,-4.2916,-4.2819,-4.2819,-4.2819,-4.2819,-4.2819,-4.2819,-4.2819,-4.2771,-4.2627,-4.2627,-4.2554,-4.2434,-4.241,-4.241,-4.241,-4.1966,-4.1774,-4.1832,-4.1365,-4.1172,-4.1172,-4.1172,-4.1172,-2.8904,-2.9482,-3.0082,-3.0449,-3.0451,-3.0509,-3.082,-3.0762,-3.0704,-3.084,-3.0898,-3.0898,-3.0898,-3.0898,-3.0898,-3.0898,-3.1601,-3.2229,-3.2229,-3.2891,-3.3418,-3.3418,-3.3418,-3.3418,-3.3418,-3.3594,-3.3711,-3.3711,-3.352,-3.352,-3.3711,-3.3798,-3.377,-3.3554,-3.3605,-3.3804,-3.42,-3.4398,-3.4459,-3.4336,-3.4225,-3.3914,-3.3489,-3.3682,-3.3553,-3.3211,-3.4157,-3.4839,-3.5346,-3.6809,-3.7819,-3.8553,-3.9988,-4.0608,-4.0691,-4.1615,-4.1793,-4.1661,-4.1945,-4.1781,-4.1459,-4.1635,-4.1753,-4.187,-4.187,-4.2086,-4.2386,-4.2386,-4.2602,-4.2819,-4.2819,-4.2819,-4.2867,-4.3048,-4.3096,-4.3168,-4.3409,-4.3457,-4.3457,-4.3457,-4.3697,-4.3866,-4.3866,-4.4069,-4.4285,-4.4285,-4.4285,-4.4069,-4.3529,-4.3457,-4.3457,-4.3457,-4.3457,-4.3457,-4.3457,-4.3457,-4.3361,-4.3096,-4.3096,-4.3,-4.2819,-4.2819,-4.2819,-4.2819,-4.253,-4.2386,-4.2386,-4.2073,-4.187,-4.187,-4.187,-4.187,-2.9495,-2.981,-3.0065,-3.0742,-3.0645,-3.0509,-3.082,-3.0898,-3.0898,-3.082,-3.0879,-3.0879,-3.0762,-3.084,-3.0898,-3.082,-3.1601,-3.2229,-3.2229,-3.2891,-3.3418,-3.3418,-3.3418,-3.3437,-3.3496,-3.3848,-3.4101,-3.4096,-3.4154,-3.4154,-3.4096,-3.4131,-3.3984,-3.369,-3.3775,-3.3908,-3.426,-3.4326,-3.4487,-3.4654,-3.4363,-3.4211,-3.4087,-3.4087,-3.42,-3.451,-3.597,-3.7169,-3.8184,-3.8373,-3.8938,-3.9854,-3.9978,-4.0101,-4.0225,-4.1443,-4.1855,-4.1855,-4.1925,-4.1949,-4.2047,-4.2207,-4.252,-4.276,-4.276,-4.2867,-4.2916,-4.2916,-4.2904,-4.2976,-4.2976,-4.2976,-4.3072,-4.3529,-4.3625,-4.3746,-4.4189,-4.4285,-4.4285,-4.4285,-4.4285,-4.4285,-4.4285,-4.4285,-4.4285,-4.4285,-4.4285,-4.4285,-4.4285,-4.4285,-4.4285,-4.4285,-4.4285,-4.4285,-4.4285,-4.4285,-4.4069,-4.3649,-4.3625,-4.3433,-4.306,-4.2976,-4.2976,-4.2976,-4.2964,-4.2916,-4.2916,-4.2843,-4.2819,-4.2819,-4.2819,-4.2819,-3.0059,-3.018,-3.0354,-3.0801,-3.0645,-3.0509,-3.082,-3.0898,-3.082,-3.0509,-3.0704,-3.0704,-3.0176,-3.0528,-3.082,-3.0509,-3.1482,-3.2229,-3.2229,-3.2891,-3.3418,-3.3418,-3.3418,-3.3555,-3.3926,-3.4023,-3.4154,-3.4178,-3.4478,-3.4517,-3.4216,-3.3956,-3.3811,-3.3803,-3.4352,-3.4557,-3.4371,-3.4986,-3.495,-3.4403,-3.4336,-3.4079,-3.3671,-3.3671,-3.4379,-3.5536,-3.584,-3.6742,-3.8016,-3.9085,-3.9645,-3.9916,-4.0984,-4.1434,-4.1541,-4.2146,-4.2186,-4.2009,-4.249,-4.2818,-4.2988,-4.2445,-4.234,-4.246,-4.27,-4.3048,-4.3385,-4.3385,-4.3721,-4.4021,-4.4021,-4.4021,-4.4045,-4.4117,-4.4141,-4.4165,-4.4261,-4.4285,-4.4285,-4.4285,-4.4285,-4.4285,-4.4285,-4.4285,-4.4285,-4.4285,-4.4285,-4.4285,-4.4285,-4.4285,-4.4285,-4.4285,-4.4285,-4.4285,-4.4285,-4.4285,-4.4237,-4.4141,-4.4141,-4.4093,-4.4021,-4.4021,-4.4021,-4.4021,-4.3625,-4.3385,-4.3385,-4.2952,-4.2819,-4.2819,-4.2819,-4.2819,-3.0195,-3.0412,-3.0704,-3.084,-3.0762,-3.0704,-3.0879,-3.0898,-3.082,-3.045,-3.0704,-3.0704,-3.0039,-3.047,-3.0762,-3.045,-3.1422,-3.2229,-3.2229,-3.2891,-3.3418,-3.3418,-3.3418,-3.3594,-3.4023,-3.4148,-3.4262,-3.4489,-3.4594,-3.4497,-3.428,-3.412,-3.3959,-3.3798,-3.4163,-3.437,-3.437,-3.4715,-3.4827,-3.4618,-3.4433,-3.4252,-3.4064,-3.4787,-3.5505,-3.6216,-3.7139,-3.8248,-3.9473,-4.0047,-4.0639,-4.1143,-4.1791,-4.2063,-4.2087,-4.2319,-4.2286,-4.2183,-4.2627,-4.2886,-4.3044,-4.3047,-4.3211,-4.3333,-4.3516,-4.3746,-4.3938,-4.3938,-4.4069,-4.4285,-4.4285,-4.4285,-4.4285,-4.4285,-4.4285,-4.4285,-4.4285,-4.4285,-4.4285,-4.4285,-4.4285,-4.4285,-4.4285,-4.4285,-4.4285,-4.4285,-4.4285,-4.4285,-4.4285,-4.4285,-4.4285,-4.4285,-4.4285,-4.4285,-4.4285,-4.4285,-4.4285,-4.4285,-4.4285,-4.4285,-4.4285,-4.4285,-4.4285,-4.4285,-4.4021,-4.3938,-4.3938,-4.3697,-4.3577,-4.3577,-4.3577,-4.3577,-3.0351,-3.049,-3.0704,-3.084,-3.0762,-3.0704,-3.0898,-3.0898,-3.0762,-3.0392,-3.0645,-3.0645,-2.9863,-3.0352,-3.0762,-3.0333,-3.1362,-3.2229,-3.2229,-3.2891,-3.3418,-3.3418,-3.3418,-3.3633,-3.416,-3.4185,-3.4345,-3.4796,-3.4458,-3.424,-3.4176,-3.4271,-3.4094,-3.3817,-3.3886,-3.4024,-3.4232,-3.437,-3.4646,-3.5108,-3.4834,-3.4902,-3.5226,-3.6316,-3.7038,-3.7374,-3.8772,-4.004,-4.11,-4.11,-4.1614,-4.2275,-4.2275,-4.2275,-4.2275,-4.2275,-4.2275,-4.2339,-4.2593,-4.2759,-4.3012,-4.349,-4.395,-4.4223,-4.4285,-4.4285,-4.4285,-4.4285,-4.4285,-4.4285,-4.4285,-4.4285,-4.4285,-4.4285,-4.4285,-4.4285,-4.4285,-4.4285,-4.4285,-4.4285,-4.4285,-4.4285,-4.4285,-4.4285,-4.4285,-4.4285,-4.4285,-4.4333,-4.4453,-4.4453,-4.4501,-4.4621,-4.4429,-4.4285,-4.4285,-4.4285,-4.4285,-4.4285,-4.4285,-4.4285,-4.4285,-4.4285,-4.4285,-4.4285,-4.4285,-4.4285,-4.4285,-4.4285,-4.4285,-4.4285,-4.4285,-4.4285,-3.082,-3.0431,-3.0157,-3.0762,-3.047,-3.0157,-3.0762,-3.0898,-3.0704,-3.0098,-3.047,-3.0528,-2.929,-3.0058,-3.0704,-3.0039,-3.1243,-3.2229,-3.2229,-3.2891,-3.3418,-3.3418,-3.3418,-3.375,-3.4551,-3.4379,-3.4413,-3.4876,-3.4283,-3.3868,-3.3831,-3.3868,-3.3817,-3.3817,-3.4163,-3.4163,-3.3886,-3.4232,-3.4834,-3.5821,-3.5753,-3.6479,-3.7734,-3.7868,-3.8663,-3.9866,-4.0062,-4.0862,-4.2148,-4.2148,-4.2212,-4.2275,-4.2275,-4.2275,-4.2275,-4.2275,-4.2275,-4.2275,-4.2339,-4.2759,-4.3263,-4.3326,-4.3576,-4.3888,-4.4223,-4.4285,-4.4285,-4.4285,-4.4285,-4.4285,-4.4285,-4.4285,-4.4285,-4.4285,-4.4285,-4.4285,-4.4285,-4.4285,-4.4285,-4.4285,-4.4285,-4.4285,-4.4285,-4.4285,-4.4285,-4.4285,-4.4285,-4.4453,-4.4933,-4.5005,-4.5173,-4.5718,-4.4861,-4.4285,-4.4285,-4.4285,-4.4285,-4.4285,-4.4285,-4.4285,-4.4285,-4.4285,-4.4285,-4.4285,-4.4285,-4.4285,-4.4285,-4.4285,-4.4285,-4.4285,-4.4285,-4.4285,-3.0898,-3.0704,-3.0528,-3.0567,-3.0392,-3.0216,-3.0274,-3.047,-3.0392,-2.9804,-3.0352,-3.0587,-2.9509,-2.9981,-3.0509,0.0,0.0,0.0,-3.1764,-3.2367,-3.2831,-3.3082,-3.3292,-3.3642,-3.4321,-3.4068,-3.3964,-3.4245,-3.4746,-3.4677,-3.3886,-3.3817,-3.3817,-3.3817,-3.3955,-3.3955,-3.3817,-3.4815,-3.548,-3.5889,-3.6816,-3.7534,-3.8134,-3.8993,-3.967,-4.0257,-4.1077,-4.1806,-4.2275,-4.2275,-4.2275,-4.2275,-4.2275,-4.2275,-4.2275,-4.2275,-4.2275,-4.2339,-4.2759,-4.3075,-4.3389,-4.3764,-4.395,-4.4137,-4.4285,-4.4285,-4.4285,-4.4285,-4.4285,-4.4285,-4.4285,-4.4285,-4.4285,-4.4285,-4.4285,-4.4285,-4.4285,-4.4285,-4.4285,-4.4285,-4.4549,-4.4765,-4.4765,-4.5029,-4.5221,-4.5221,-4.5221,-4.5317,-4.551,-4.5597,-4.5694,-4.591,-4.5549,-4.5101,-4.4789,-4.4765,-4.4621,-4.4309,-4.4285,-4.4285,-4.4285,-4.4285,-4.4285,-4.4285,-4.4285,-4.4285,-4.4285,-4.4285,-4.4285,-4.4285,-4.4285,-4.4285,-3.0762,-3.0704,-3.0587,-3.0567,-3.0333,-3.0098,-3.0039,-3.0157,-3.0098,-2.9627,-3.0117,-3.0352,-2.9509,-2.9863,-3.0216,0.0,0.0,-3.0819,-3.1421,-3.1965,-3.2387,-3.2746,-3.3038,-3.3514,-3.4123,-3.4431,-3.4528,-3.4433,-3.5753,-3.6141,-3.5139,-3.507,-3.4677,-3.3817,-3.3817,-3.4024,-3.4421,-3.5412,-3.6344,-3.722,-3.82,-3.8927,-3.9408,-4.0409,-4.0797,-4.0862,-4.187,-4.2275,-4.2275,-4.2275,-4.2275,-4.2275,-4.2275,-4.2275,-4.2275,-4.2275,-4.2339,-4.2529,-4.3012,-4.3263,-4.3514,-4.4013,-4.4223,-4.4285,-4.4285,-4.4285,-4.4285,-4.4285,-4.4285,-4.4285,-4.4285,-4.4285,-4.4285,-4.4285,-4.4405,-4.4525,-4.4525,-4.4645,-4.4741,-4.4741,-4.5053,-4.5317,-4.5317,-4.5669,-4.5934,-4.5934,-4.5934,-4.5982,-4.615,-4.615,-4.6223,-4.6367,-4.6391,-4.6102,-4.5429,-4.5317,-4.5213,-4.4765,-4.4741,-4.4741,-4.4741,-4.4741,-4.4741,-4.4741,-4.4597,-4.4525,-4.4525,-4.4357,-4.4285,-4.4285,-4.4285,-4.4285,-3.0392,-3.0157,-3.0039,-3.0704,-3.0235,-2.9686,-3.0274,-3.0157,-2.9804,-2.9568,-2.9745,-2.9745,-2.9094,-2.9509,-2.9804,-2.9568,-3.0103,0.0,-3.1157,-3.1841,-3.2344,-3.2365,-3.2676,-3.3258,-3.4104,-3.587,-3.6634,-3.5957,-3.7266,-3.8067,-3.8067,-3.8067,-3.6749,-3.3886,-3.3817,-3.449,-3.5889,-3.5889,-3.7354,-4.0127,-4.0192,-4.0926,-4.2275,-4.2275,-4.2275,-4.2275,-4.2275,-4.2275,-4.2275,-4.2275,-4.2275,-4.2275,-4.2275,-4.2275,-4.2275,-4.2275,-4.2529,-4.2822,-4.2822,-4.3263,-4.3802,-4.3802,-4.4013,-4.4285,-4.4285,-4.4285,-4.4285,-4.4285,-4.4285,-4.4285,-4.4285,-4.4285,-4.4285,-4.4285,-4.4693,-4.5053,-4.5053,-4.5549,-4.591,-4.591,-4.591,-4.591,-4.591,-4.5934,-4.5934,-4.5934,-4.5934,-4.6102,-4.6631,-4.6704,-4.6896,-4.7425,-4.7473,-4.7064,-4.6006,-4.591,-4.591,-4.591,-4.591,-4.591,-4.591,-4.591,-4.591,-4.591,-4.5342,-4.5053,-4.5053,-4.4549,-4.4285,-4.4285,-4.4285,-4.4285,-3.0039,-2.9981,-2.9922,-2.9922,-2.9745,-2.9509,-2.945,-2.9568,-2.9568,-2.9213,-2.9568,-2.9804,-2.939,-2.9509,-2.9686,-2.9745,-2.9621,-2.9837,-3.0709,-3.1819,-3.2432,-3.2091,-3.2868,-3.3939,-3.5171,-3.6958,-3.7888,-3.7467,-3.8729,-3.9125,-3.8134,-3.8067,-3.7199,-3.5275,-3.6209,-3.6479,-3.5889,-3.7868,-3.9277,-4.0192,-4.1206,-4.187,-4.2275,-4.2275,-4.2275,-4.2275,-4.2275,-4.2275,-4.2275,-4.2275,-4.2275,-4.2275,-4.2275,-4.2275,-4.2275,-4.2275,-4.2529,-4.2822,-4.3075,-4.3451,-4.3826,-4.4075,-4.4223,-4.4285,-4.4285,-4.4285,-4.4285,-4.4285,-4.4285,-4.4285,-4.4285,-4.4549,-4.4813,-4.4813,-4.5221,-4.5669,-4.5669,-4.5814,-4.5934,-4.5934,-4.6223,-4.6463,-4.6463,-4.6752,-4.6992,-4.6992,-4.6992,-4.7064,-4.7233,-4.7257,-4.7305,-4.7473,-4.7497,-4.7209,-4.6535,-4.6463,-4.6319,-4.5958,-4.5934,-4.5934,-4.5934,-4.5934,-4.5934,-4.5934,-4.5766,-4.5669,-4.5669,-4.5501,-4.5237,-4.4813,-4.4453,-4.4285,0.0,-2.9745,-2.9745,-2.9686,-2.9509,-2.9272,-2.9213,-2.9272,-2.9272,-2.9035,-2.9272,-2.9509,-2.9331,-2.9331,-2.939,-2.9509,-2.9272,-2.9389,-3.0568,-3.1825,-3.2869,-3.3364,-3.4418,-3.5321,-3.6099,-3.8138,-3.9277,-3.8927,-4.0192,-4.0603,-3.9736,-3.967,-3.9014,-3.7534,-3.7868,-3.7934,-3.7554,-3.9277,-4.0473,-4.0991,-4.187,-4.2275,-4.2275,-4.2275,-4.2275,-4.2275,-4.2275,-4.2275,0.0,-4.2275,-4.2275,-4.2275,-4.2275,-4.2275,-4.2275,-4.2275,-4.2593,-4.3012,-4.3263,-4.3639,-4.4013,-4.4223,-4.4285,-4.4285,-4.4285,-4.4285,-4.4285,-4.4285,-4.4429,-4.4573,-4.4573,-4.4981,-4.5366,-4.5366,-4.5838,-4.6223,-4.6223,-4.6391,-4.6511,-4.6511,-4.6776,-4.7016,-4.7016,-4.7281,-4.7497,-4.7497,-4.7497,-4.7497,-4.7497,-4.7497,-4.7497,-4.7497,-4.7497,-4.7377,-4.704,-4.7016,-4.6872,-4.6535,-4.6511,-4.6511,-4.6511,-4.6511,-4.6511,-4.6511,-4.6319,-4.6223,-4.6223,-4.603,-4.5766,-4.5429,-4.4837,-4.4573,0.0,0.0,0.0,0.0,-2.939,-2.9094,-2.939,-2.9213,0.0,-2.8975,-2.8975,-2.8975,-2.8975,-2.8975,-2.8975,-2.8975,-2.8975,-2.9389,-3.0506,-3.1883,-3.3599,-3.5785,-3.6771,-3.7127,-3.6914,-3.9239,-4.0646,-4.0387,-4.1527,-4.2275,-4.2275,-4.2275,-4.1678,-4.0409,-3.9059,-3.8993,-4.0192,-4.0279,-4.1013,-4.2275,-4.2275,-4.2275,-4.2275,-4.2275,-4.2275,-4.2275,-4.2275,-4.2275,-4.2275,-4.2275,-4.2275,-4.2275,-4.2275,-4.2275,-4.2275,-4.2275,-4.2696,-4.3326,-4.3326,-4.3764,-4.4285,-4.4285,-4.4285,-4.4285,-4.4285,-4.4285,-4.4285,-4.4333,-4.4693,-4.5077,-4.5125,-4.551,-4.5982,-4.5982,-4.6391,-4.6776,-4.6776,-4.7161,-4.7497,-4.7497,-4.7497,-4.7497,-4.7497,-4.7497,-4.7497,-4.7497,-4.7497,-4.7497,-4.7497,-4.7497,-4.7497,-4.7497,-4.7497,-4.7497,-4.7497,-4.7497,-4.7497,-4.7497,-4.7497,-4.7497,-4.7497,-4.7497,-4.7497,-4.7497,-4.7016,-4.6776,-4.6776,-4.6247,-4.5982,-4.5958,-4.5429,-4.5125,0.0,0.0,0.0,0.0,-2.9094,-2.9035,0.0,-2.9035,-2.8975,-2.8975,-2.8975,-2.8975,-2.8975,-2.8975,-2.8975,-2.8975,-2.8975,-2.9329,-3.0199,-3.2013,-3.4265,-3.7028,-3.6931,-3.7233,-3.8625,-3.9658,-4.0634,-4.1719,-4.2148,-4.2275,-4.2275,-4.2275,-4.2148,-4.1806,-4.1463,-4.0926,-4.0214,-4.1271,-4.1998,-4.2275,-4.2275,-4.2275,-4.2275,-4.2275,-4.2275,-4.2275,-4.2275,-4.2275,-4.2275,-4.2275,-4.2275,-4.2275,-4.2275,-4.2275,-4.2275,-4.2275,-4.2696,-4.3326,-4.3326,-4.3764,-4.4285,-4.4285,-4.4285,-4.4285,-4.4285,-4.4285,-4.4381,-4.4765,-4.4981,-4.5173,-4.5645,-4.6126,-4.6535,-4.6535,-4.6944,-4.7305,-4.7305,-4.7425,-4.7497,-4.7497,-4.7497,-4.7497,-4.7497,-4.7497,-4.7497,-4.7497,-4.7497,-4.7497,-4.7497,-4.7497,-4.7497,-4.7497,-4.7497,-4.7497,-4.7497,-4.7497,-4.7497,-4.7497,-4.7497,-4.7497,-4.7497,-4.7497,-4.7497,-4.7497,-4.7377,-4.7305,-4.7305,-4.6776,-4.6535,-4.6511,-4.5982,-4.5742,-2.8975,-2.8975,-2.8975,-2.8975,-2.8975,-2.8975,-2.8975,0.0,-2.8975,-2.8975,-2.8975,-2.8975,-2.8975,-2.8975,-2.8975,-2.8975,-2.9658,-3.089,-3.2934,-3.394,-3.5561,-3.8134,-3.8254,-3.868,-3.9933,-4.045,-4.1158,-4.2229,-4.2275,-4.2275,-4.2275,-4.2275,-4.2275,-4.2275,-4.2275,-4.1934,-4.1206,-4.1934,-4.2275,-4.2275,-4.2275,-4.2275,-4.2275,-4.2275,-4.2275,-4.2275,-4.2275,-4.2402,-4.2529,-4.2339,-4.2402,-4.2529,-4.2529,-4.2466,-4.2339,-4.2633,-4.3012,-4.3326,-4.3514,-4.3888,-4.4285,-4.4285,-4.4285,-4.4285,-4.4285,-4.4453,-4.4717,-4.5005,-4.5414,-4.5934,-4.6199,-4.668,-4.7064,-4.7064,-4.7305,-4.7497,-4.7497,-4.7497,-4.7497,-4.7497,-4.7497,-4.7497,-4.7497,-4.7497,-4.7497,-4.7497,-4.7497,-4.7497,-4.7497,-4.7497,-4.7497,-4.7497,-4.7497,-4.7497,-4.7497,-4.7497,-4.7497,-4.7497,-4.7497,-4.7497,-4.7497,-4.7497,-4.7497,-4.7497,-4.7497,-4.7497,-4.7497,-4.7209,-4.7064,-4.7064,-4.6535,-4.6295,-2.8975,-2.8975,-2.8975,-2.8975,-2.8975,-2.8975,-2.8975,0.0,-2.8975,-2.8975,-2.8975,-2.8975,-2.8975,-2.8975,-2.8975,-2.8975,-3.0539,-3.2892,-3.6242,-3.6363,-3.6907,-3.9049,-3.9675,-4.0135,-4.0663,-4.1099,-4.1558,-4.2063,-4.2178,-4.2224,-4.2224,-4.2229,-4.2275,-4.2275,-4.2275,-4.2275,-4.2275,-4.2275,-4.2275,-4.2275,-4.2275,-4.2275,-4.2275,-4.2275,-4.2275,-4.2275,-4.2339,-4.2529,-4.2759,-4.2529,-4.2633,-4.2886,-4.2886,-4.2696,-4.2529,-4.3075,-4.3326,-4.3428,-4.374,-4.4075,-4.4285,-4.4285,-4.4285,-4.4309,-4.4381,-4.4765,-4.5197,-4.5293,-4.603,-4.6728,-4.6824,-4.7161,-4.7497,-4.7497,-4.7497,-4.7497,-4.7497,-4.7497,-4.7497,-4.7497,-4.7497,-4.7497,-4.7497,-4.7497,-4.7497,-4.7497,-4.7497,-4.7497,-4.7497,-4.7497,-4.7497,-4.7497,-4.7497,-4.7497,-4.7497,-4.7497,-4.7497,-4.7497,-4.7497,-4.7497,-4.7497,-4.7497,-4.7497,-4.7497,-4.7497,-4.7497,-4.7497,-4.7497,-4.7497,-4.7497,-4.704,-4.6824,-2.8975,-2.8975,-2.8975,-2.8975,-2.8975,-2.8975,-2.8975,-2.8975,-2.8975,-2.8975,-2.8975,-2.8975,-2.8975,-2.8975,-2.8975,-2.8975,-3.0768,-3.3175,-3.6286,-3.6943,-3.7632,-3.9108,-3.9377,-3.9607,-4.0195,-4.031,-4.0502,-4.1007,-4.1443,-4.1696,-4.1696,-4.2109,-4.2275,-4.2275,-4.2275,-4.2275,-4.2275,-4.2275,-4.2275,-4.2275,-4.2275,-4.2275,-4.2275,-4.2275,-4.2275,-4.2339,-4.2593,-4.2759,-4.2822,-4.3075,-4.32,-4.32,-4.32,-4.32,-4.3137,-4.3263,-4.3514,-4.374,-4.4075,-4.4285,-4.4285,-4.4285,-4.4285,-4.4381,-4.4813,-4.5381,-4.5886,-4.6343,-4.6583,-4.6824,-4.7257,-4.7449,-4.7497,-4.7497,-4.7497,-4.7497,-4.7497,-4.7497,-4.7497,-4.7497,-4.7497,-4.7497,-4.7497,-4.7497,-4.7497,-4.7497,-4.7497,-4.7497,-4.7497,-4.7497,-4.7497,-4.7497,-4.7497,-4.7497,-4.7497,-4.7497,-4.7497,-4.7497,-4.7497,-4.7497,-4.7497,-4.7497,-4.7497,-4.7497,-4.7497,-4.7497,-4.7497,-4.7497,-4.7497,-4.7497,-4.7425,-4.7377,-2.8975,-2.8975,-2.8975,-2.8975,-2.8975,-2.8975,-2.8975,-2.8975,-2.8975,-2.8975,-2.8975,-2.8975,-2.8975,-2.8975,-2.958,-3.1485,-3.2016,-3.3578,-3.7547,-3.7657,-3.779,-3.9108,-3.9308,-3.9492,-4.0057,-4.0126,-4.0272,-4.0778,-4.103,-4.1168,-4.1168,-4.1397,-4.165,-4.1903,-4.1926,-4.2063,-4.2275,-4.2275,-4.2275,-4.2275,-4.2275,-4.2275,-4.2275,-4.2275,-4.2402,-4.2593,-4.2696,-4.3012,-4.3326,-4.3326,-4.3451,-4.3553,-4.3553,-4.3451,-4.3326,-4.3514,-4.3764,-4.4075,-4.4223,-4.4285,-4.4285,-4.4285,-4.4477,-4.4765,-4.5005,-4.5694,-4.6391,-4.6631,-4.692,-4.7185,-4.7449,-4.7497,-4.7497,-4.7497,-4.7497,-4.7497,-4.7497,-4.7497,-4.7497,-4.7497,-4.7497,-4.7497,-4.7497,-4.7497,-4.7497,-4.7497,-4.7497,-4.7497,-4.7497,-4.7497,-4.7497,-4.7497,-4.7497,-4.7497,-4.7497,-4.7497,-4.7497,-4.7497,-4.7497,-4.7497,-4.7497,-4.7497,-4.7497,-4.7497,-4.7497,-4.7497,-4.7497,-4.7497,-4.7497,-4.7497,-4.7497,-4.7497,-2.8975,-2.892,-2.8865,-2.8957,-2.8975,-2.8975,-2.8975,-2.8975,-2.8975,-2.8975,-2.8975,-2.8975,-2.8975,-2.8975,-3.0109,-3.3528,-3.3274,-3.418,-3.8676,-3.8432,-3.8171,-3.9167,-3.9308,-3.9446,-3.9836,-3.9882,-4.0043,-4.0433,-4.0571,-4.064,-4.064,-4.0755,-4.1007,-4.1374,-4.1512,-4.1765,-4.2155,-4.227,-4.2275,-4.2275,-4.2275,-4.2275,-4.2275,-4.2275,-4.2466,-4.2696,-4.2822,-4.32,-4.3678,-4.3576,-4.3701,-4.395,-4.395,-4.3764,-4.3576,-4.3826,-4.4075,-4.4285,-4.4285,-4.4285,-4.4285,-4.4285,-4.4645,-4.5101,-4.5221,-4.5982,-4.6728,-4.6872,-4.7185,-4.7497,-4.7497,-4.7497,-4.7497,-4.7497,-4.7497,-4.7497,-4.7497,-4.7497,-4.7497,-4.7497,-4.7497,-4.7497,-4.7497,-4.7497,-4.7497,-4.7497,-4.7497,-4.7497,-4.7497,-4.7497,-4.7497,-4.7497,-4.7497,-4.7497,-4.7497,-4.7497,-4.7497,-4.7497,-4.7497,-4.7497,-4.7497,-4.7497,-4.7497,-4.7497,-4.7497,-4.7497,-4.7497,-4.7497,-4.7497,-4.7497,-4.7497,-4.7497,-2.8975,-2.8718,-2.8517,-2.8902,-2.8975,-2.8975,-2.8975,-2.8975,-2.8975,-2.8975,-2.8975,-2.8975,-2.8975,-2.8975,-3.0109,-3.3528,-3.4028,-3.5193,-3.8794,-3.9249,-3.9167,-3.9308,-3.9308,-3.9331,-3.9354,-3.9354,-3.9377,-3.9423,-3.9859,-4.0172,-4.0172,-4.0571,-4.0846,-4.0869,-4.1329,-4.1604,-4.1627,-4.2109,-4.2275,-4.2275,-4.2275,-4.2275,-4.2275,-4.2275,-4.2339,-4.2402,-4.3012,-4.3326,-4.3389,-4.395,-4.4223,-4.4285,-4.4285,-4.4223,-4.4223,-4.4285,-4.4285,-4.4285,-4.4285,-4.4285,-4.4285,-4.4285,-4.4645,-4.5173,-4.5718,-4.6271,-4.6824,-4.7305,-4.7473,-4.7497,-4.7497,-4.7497,-4.7497,-4.7497,-4.7497,-4.7497,-4.7497,-4.7497,-4.7497,-4.7497,-4.7497,-4.7497,-4.7497,-4.7497,-4.7497,-4.7497,-4.7497,-4.7497,-4.7497,-4.7497,-4.7497,-4.7497,-4.7497,-4.7497,-4.7497,-4.7497,-4.7497,-4.7497,-4.7497,-4.7497,-4.7497,-4.7497,-4.7497,-4.7497,-4.7497,-4.7497,-4.7497,-4.7497,-4.7497,-4.7497,-4.7497,-4.7497,-2.8297,-2.8113,-2.8095,-2.8517,-2.8627,-2.8682,-2.892,-2.8975,-2.8975,-2.8975,-2.8975,-2.8975,-2.8975,-2.8975,-3.0109,-3.3528,-3.4087,-3.5312,-3.8794,-3.9308,-3.9308,-3.9308,-3.9308,-3.9308,-3.9308,-3.9308,-3.9308,-3.9308,-3.9469,-3.9584,-3.9584,-3.9767,-4.002,-4.0341,-4.0586,-4.1,-4.1558,-4.2015,-4.2206,-4.2275,-4.2275,-4.2275,-4.2275,-4.2275,-4.2529,-4.2949,-4.32,-4.3514,-4.395,-4.4223,-4.4285,-4.4285,-4.4285,-4.4285,-4.4285,-4.4285,-4.4285,-4.4285,-4.4285,-4.4285,-4.4333,-4.4669,-4.5125,-4.5718,-4.6247,-4.6776,-4.7233,-4.7449,-4.7497,-4.7497,-4.7497,-4.7497,-4.7497,-4.7497,-4.7497,-4.7497,-4.7497,-4.7497,-4.7497,-4.7497,-4.7497,-4.7497,-4.7497,-4.7497,-4.7497,-4.7497,-4.7497,-4.7497,-4.7497,-4.7497,-4.7497,-4.7497,-4.7497,-4.7497,-4.7497,-4.7497,-4.7497,-4.7497,-4.7497,-4.7497,-4.7497,-4.7497,-4.7497,-4.7497,-4.7497,-4.7497,-4.7497,-4.7497,-4.7497,-4.7497,-4.7497,-4.7497,-2.7838,-2.773,-2.7767,-2.826,-2.8297,-2.8333,-2.8865,-2.8975,-2.8975,-2.8975,-2.8975,-2.8975,-2.8975,-2.8975,-3.0109,-3.3528,-3.4087,-3.5312,-3.8794,-3.9308,-3.9308,-3.9308,-3.9308,-3.9308,-3.9308,-3.9308,-3.9308,-3.9308,-3.9308,-3.9308,-3.9308,-3.9308,-3.9469,-3.9873,-4.0034,-4.0448,-4.1161,-4.1769,-4.2179,-4.2213,-4.25,-4.2529,-4.2275,-4.2275,-4.257,-4.3137,-4.3263,-4.3639,-4.4161,-4.4285,-4.4285,-4.4285,-4.4285,-4.4285,-4.4285,-4.4285,-4.4285,-4.4285,-4.4285,-4.4405,-4.4597,-4.4957,-4.5597,-4.6247,-4.6607,-4.7088,-4.7497,-4.7497,-4.7497,-4.7497,-4.7497,-4.7497,-4.7497,-4.7497,-4.7497,-4.7497,-4.7497,-4.7497,-4.7497,-4.7497,-4.7497,-4.7497,-4.7497,-4.7497,-4.7497,-4.7497,-4.7497,-4.7497,-4.7497,-4.7497,-4.7497,-4.7497,-4.7497,-4.7497,-4.7497,-4.7497,-4.7497,-4.7497,-4.7497,-4.7497,-4.7497,-4.7497,-4.7497,-4.7497,-4.7497,-4.7497,-4.7497,-4.7497,-4.7497,-4.7497,-4.7497,-4.7497,-2.7803,-2.7528,-2.7361,-2.8187,-2.8077,-2.8042,-2.8792,-2.8975,-2.8975,-2.8975,-2.8975,-2.8975,-2.8975,-2.9035,-3.0168,-3.3528,-3.4087,-3.5312,-3.8794,-3.9308,-3.9308,-3.9308,-3.9308,-3.9308,-3.9308,-3.9308,-3.9308,-3.9308,-3.9308,-3.9308,-3.9308,-3.9308,-3.9308,-3.9308,-3.985,-4.0103,-4.0126,-4.1422,-4.2118,-4.2118,-4.2942,-4.2949,-4.2339,-4.2339,-4.2466,-4.2822,-4.3137,-4.349,-4.3802,-4.4137,-4.4285,-4.4285,-4.4285,-4.4285,-4.4285,-4.4285,-4.4285,-4.4285,-4.4285,-4.4621,-4.5077,-4.5077,-4.5862,-4.6704,-4.6728,-4.7088,-4.7497,-4.7497,-4.7497,-4.7497,-4.7497,-4.7497,-4.7497,-4.7497,-4.7497,-4.7497,-4.7497,-4.7497,-4.7497,-4.7497,-4.7497,-4.7497,-4.7497,-4.7497,-4.7497,-4.7497,-4.7497,-4.7497,-4.7497,-4.7497,-4.7497,-4.7497,-4.7497,-4.7497,-4.7497,-4.7497,-4.7497,-4.7497,-4.7497,-4.7497,-4.7497,-4.7497,-4.7497,-4.7497,-4.7497,-4.7497,-4.7497,-4.7497,-4.7497,-4.7497,-4.7497,-4.7497,-2.7013,-2.6848,-2.6958,-2.7746,-2.7914,-2.8042,-2.8792,-2.8975,-2.8975,-2.8975,-2.9667,-3.002,-2.9153,-3.0412,-3.2024,-3.3372,-3.4625,-3.6246,-3.8455,-3.9078,-3.9308,-3.9308,-3.9308,-3.9308,-3.9308,-3.9308,-3.9308,-3.9308,-3.9308,-3.9308,-3.9308,-3.9308,-3.9308,-3.9308,-3.9446,-3.9698,-4.0126,-4.1317,-4.1929,-4.2118,-4.313,-4.3428,-4.3012,-4.3012,-4.32,-4.349,-4.3615,-4.3826,-4.4137,-4.4285,-4.4285,-4.4285,-4.4285,-4.4285,-4.4285,-4.4285,-4.4285,-4.4285,-4.4285,-4.4621,-4.5125,-4.5573,-4.615,-4.6776,-4.7161,-4.7377,-4.7497,-4.7497,-4.7497,-4.7497,-4.7497,-4.7497,-4.7497,-4.7497,-4.7497,-4.7497,-4.7497,-4.7497,-4.7497,-4.7497,-4.7497,-4.7497,-4.7497,-4.7497,-4.7497,-4.7497,-4.7497,-4.7497,-4.7497,-4.7497,-4.7497,-4.7497,-4.7497,-4.7497,-4.7497,-4.7497,-4.7497,-4.7497,-4.7497,-4.7497,-4.7497,-4.7497,-4.7497,-4.7497,-4.7497,-4.7497,-4.7497,-4.7497,-4.7497,-4.7497,-4.7497,-4.7497,-2.6646,-2.6591,-2.6774,-2.762,-2.7822,-2.8042,-2.8792,-2.8975,-2.8975,-2.8975,-2.9962,-3.0587,-2.9844,-3.1323,-3.2939,-3.3938,-3.5006,-3.6387,-3.8308,-3.8826,-3.9078,-3.9285,-3.9308,-3.9308,-3.9308,-3.9308,-3.9308,-3.9308,-3.9308,-3.9308,-3.9308,-3.9308,-3.9308,-3.9308,-3.9308,-3.9446,-3.9744,-4.1098,-4.1855,-4.1999,-4.3346,-4.3888,-4.3701,-4.3451,-4.349,-4.3802,-4.395,-4.4075,-4.4285,-4.4285,-4.4285,-4.4285,-4.4285,-4.4285,-4.4285,-4.4285,-4.4285,-4.4309,-4.4525,-4.4957,-4.5549,-4.6054,-4.6583,-4.7088,-4.7401,-4.7497,-4.7497,-4.7497,-4.7497,-4.7497,-4.7497,-4.7497,-4.7497,-4.7497,-4.7497,-4.7497,-4.7497,-4.7497,-4.7497,-4.7497,-4.7497,-4.7497,-4.7497,-4.7497,-4.7497,-4.7497,-4.7497,-4.7497,-4.7497,-4.7497,-4.7497,-4.7497,-4.7497,-4.7497,-4.7497,-4.7497,-4.7497,-4.7497,-4.7497,-4.7497,-4.7497,-4.7497,-4.7497,-4.7497,-4.7497,-4.7497,-4.7497,-4.7497,-4.7497,-4.7497,-4.7497,-4.7497,-2.6591,-2.6591,-2.6774,-2.762,-2.7877,-2.8077,-2.881,-2.8975,-2.8975,-2.8975,-3.0079,-3.0937,-3.082,-3.1937,-3.343,-3.4902,-3.5238,-3.6067,-3.8183,-3.8527,-3.8757,-3.9193,-3.9285,-3.9308,-3.9308,-3.9308,-3.9308,-3.9308,-3.9308,-3.9308,-3.9308,-3.9308,-3.9308,-3.9308,-3.9308,-3.9367,-3.9367,-4.0971,-4.1788,-4.1835,-4.3463,-4.4237,-4.4285,-4.3639,-4.3576,-4.3864,-4.4161,-4.4285,-4.4285,-4.4285,-4.4285,-4.4285,-4.4285,-4.4285,-4.4285,-4.4285,-4.4285,-4.4357,-4.4885,-4.5414,-4.6006,-4.6535,-4.7064,-4.7497,-4.7497,-4.7497,-4.7497,-4.7497,-4.7497,-4.7497,-4.7497,-4.7497,-4.7497,-4.7497,-4.7497,-4.7497,-4.7497,-4.7497,-4.7497,-4.7497,-4.7497,-4.7497,-4.7497,-4.7497,-4.7521,-4.7569,-4.7569,-4.7593,-4.7642,-4.7642,-4.7642,-4.7642,-4.7642,-4.7642,-4.7642,-4.7642,-4.7642,-4.7642,-4.7593,-4.7593,-4.7642,-4.7545,-4.7497,-4.7497,-4.7497,-4.7497,-4.7497,-4.7497,-4.7497,-4.7497,-4.7497,-4.7521,-2.6591,-2.6591,-2.6774,-2.762,-2.8242,-2.8773,-2.8938,-2.8975,-2.8975,-2.8975,-3.0684,-3.1937,-3.0995,-3.336,-3.5345,-3.4712,-3.5737,-3.6769,-3.7277,-3.8068,-3.8619,-3.8734,-3.9078,-3.9308,-3.9308,-3.9308,-3.9308,-3.9308,-3.9308,-3.9308,-3.9308,-3.9308,-3.9308,-3.9308,-3.9567,-3.9684,-3.9684,-4.094,-4.1757,-4.222,-4.3203,-4.3853,-4.4285,-4.4161,-4.4099,-4.4223,-4.4285,-4.4285,-4.4285,-4.4285,-4.4285,-4.4285,-4.4285,-4.4285,-4.4285,-4.4285,-4.4285,-4.4357,-4.4885,-4.5414,-4.6006,-4.6535,-4.7064,-4.7497,-4.7497,-4.7497,-4.7497,-4.7497,-4.7497,-4.7497,-4.7497,-4.7497,-4.7497,-4.7497,-4.7497,-4.7497,-4.7497,-4.7497,-4.7497,-4.7497,-4.7497,-4.7497,-4.7497,-4.7497,-4.7642,-4.805,-4.8122,-4.8267,-4.8676,-4.8748,-4.8748,-4.8748,-4.8748,-4.8748,-4.8748,-4.8748,-4.8748,-4.8748,-4.8363,-4.8315,-4.8724,-4.7954,-4.7497,-4.7497,-4.7497,-4.7497,-4.7497,-4.7497,-4.7497,-4.7497,-4.7497,-4.7714,-2.6591,-2.6591,-2.6774,-2.762,-2.837,-2.8975,-2.8975,-2.8975,-2.8975,-2.8975,-3.0917,-3.2395,-3.1785,-3.4224,-3.6091,-3.5488,-3.6099,-3.6759,-3.6956,-3.7494,-3.8022,-3.8527,-3.8803,-3.9055,-3.9285,-3.9308,-3.9308,-3.9308,-3.9308,-3.9367,-3.9544,-3.9567,-3.9567,-3.9567,-3.9837,-3.9896,-3.9802,-4.0964,-4.1781,-4.228,-4.3083,-4.3818,-4.4285,-4.4285,-4.4285,-4.4285,-4.4285,-4.4285,-4.4285,-4.4285,-4.4285,-4.4285,-4.4285,-4.4285,-4.4285,-4.4285,-4.4453,-4.4741,-4.5269,-4.5862,-4.6391,-4.692,-4.7281,-4.7497,-4.7497,-4.7497,-4.7497,-4.7497,-4.7497,-4.7497,-4.7497,-4.7497,-4.7497,-4.7497,-4.7497,-4.7497,-4.7497,-4.7497,-4.7497,-4.7497,-4.7497,-4.7497,-4.7497,-4.7714,-4.805,-4.8579,-4.8676,-4.8772,-4.9036,-4.9084,-4.9084,-4.9084,-4.9084,-4.9084,-4.9084,-4.9084,-4.9084,-4.9084,-4.882,-4.8796,-4.906,-4.8555,-4.8267,-4.8267,-4.8267,-4.8267,-4.8267,-4.8267,-4.8267,-4.8267,-4.8267,-4.8411,-2.6591,-2.6683,-2.694,-2.76,-2.837,-2.8975,-2.8975,-2.9153,-2.9272,-2.9035,-3.0917,-3.2623,-3.2623,-3.4614,-3.6332,-3.6332,-3.6332,-3.6415,-3.6828,-3.6933,-3.7379,-3.8344,-3.8527,-3.878,-3.9262,-3.9308,-3.9308,-3.9308,-3.9367,-3.9508,-3.9802,-3.9861,-3.9861,-3.9861,-4.013,-4.0188,-3.9978,-4.0928,-4.1745,-4.2424,-4.324,-4.389,-4.4285,-4.4285,-4.4285,-4.4285,-4.4285,-4.4285,-4.4285,-4.4285,-4.4285,-4.4285,-4.4285,-4.4285,-4.4285,-4.4381,-4.4693,-4.5149,-4.5838,-4.6343,-4.68,-4.7329,-4.7497,-4.7497,-4.7497,-4.7497,-4.7497,-4.7497,-4.7497,-4.7497,-4.7497,-4.7497,-4.7497,-4.7497,-4.7497,-4.7497,-4.7497,-4.7497,-4.7497,-4.7497,-4.7569,-4.7642,-4.7642,-4.8074,-4.8603,-4.9133,-4.9205,-4.9253,-4.9349,-4.9349,-4.9349,-4.9349,-4.9349,-4.9349,-4.9349,-4.9349,-4.9349,-4.9349,-4.9277,-4.9253,-4.9349,-4.9277,-4.9253,-4.9349,-4.9181,-4.9084,-4.9084,-4.9084,-4.9084,-4.9084,-4.9084,-4.9133,-2.6591,-2.7086,-2.7693,-2.7803,-2.837,-2.8975,-2.8975,-2.9785,-3.0255,-2.9213,-3.0917,-3.2623,-3.2623,-3.4614,-3.6332,-3.6332,-3.6332,-3.6355,-3.6369,-3.6759,-3.7242,-3.7816,-3.8298,-3.878,-3.9262,-3.9308,-3.9308,-3.9308,-3.9567,-3.9743,-3.9802,-4.0013,-4.0165,-4.0165,-4.0479,-4.0619,-4.0561,-4.1038,-4.1739,-4.2784,-4.3708,-4.4213,-4.4285,-4.4285,-4.4285,-4.4285,-4.4285,-4.4285,-4.4285,-4.4285,-4.4285,-4.4285,-4.4285,-4.4285,-4.4333,-4.4789,-4.5005,-4.5221,-4.6271,-4.6655,-4.68,-4.7329,-4.7497,-4.7497,-4.7497,-4.7497,-4.7497,-4.7497,-4.7497,-4.7497,-4.7497,-4.7497,-4.7497,-4.7497,-4.7497,-4.7497,-4.7497,-4.7497,-4.7497,-4.7497,-4.7882,-4.8195,-4.8195,-4.8628,-4.9157,-4.9686,-4.9758,-4.9926,-5.0431,-5.0479,-5.0479,-5.0479,-5.0479,-5.0479,-5.0479,-5.0479,-5.0479,-5.0479,-5.0022,-4.9974,-5.0455,-5.0022,-4.9998,-5.0479,-4.9565,-4.9084,-4.9084,-4.9084,-4.9084,-4.9084,-4.9084,-4.9325,-2.6591,-2.7013,-2.7546,-2.7767,-2.8223,-2.8718,-2.8938,-2.939,-2.9844,-2.9962,-3.1381,-3.2623,-3.2623,-3.4614,-3.6332,-3.6332,-3.6332,-3.6332,-3.6332,-3.6461,-3.6805,-3.7311,-3.7816,-3.8344,-3.8849,-3.9147,-3.9367,-3.9567,-3.9743,-3.9919,-4.027,-4.0421,-4.0479,-4.0479,-4.0826,-4.0908,-4.0735,-4.1,-4.1701,-4.2843,-4.3842,-4.4285,-4.4285,-4.4285,-4.4285,-4.4285,-4.4285,-4.4285,-4.4285,-4.4285,-4.4285,-4.4285,-4.4285,-4.4285,-4.4357,-4.4885,-4.5269,-4.5694,-4.6439,-4.692,-4.7185,-4.7425,-4.7497,-4.7497,-4.7497,-4.7497,-4.7497,-4.7497,-4.7497,-4.7497,-4.7497,-4.7497,-4.7497,-4.7497,-4.7497,-4.7497,-4.7497,-4.7497,-4.7593,-4.7882,-4.8363,-4.882,-4.9133,-4.9373,-4.971,-5.0263,-5.0335,-5.0431,-5.0672,-5.0696,-5.0696,-5.0696,-5.0696,-5.0696,-5.0696,-5.0696,-5.0696,-5.0696,-5.0479,-5.0455,-5.0696,-5.0455,-5.0455,-5.0696,-5.0239,-4.9998,-4.9998,-4.9998,-4.9998,-4.9998,-4.9998,-5.0119,-2.6591,-2.6885,-2.7251,-2.7601,-2.8003,-2.8462,-2.8773,-2.9415,-3.006,-3.0704,-3.2281,-3.3473,-3.3134,-3.4836,-3.6332,-3.6332,-3.6332,-3.6332,-3.6332,-3.6332,-3.6461,-3.6911,-3.7471,-3.7999,-3.8527,-3.9091,-3.9544,-3.9802,-3.9919,-4.0211,-4.0677,-4.0792,-4.085,-4.085,-4.1057,-4.1081,-4.085,-4.1345,-4.199,-4.2843,-4.3842,-4.4285,-4.4285,-4.4285,-4.4285,-4.4285,-4.4285,-4.4285,-4.4285,-4.4285,-4.4285,-4.4285,-4.4285,-4.4357,-4.4549,-4.5077,-4.5669,-4.6199,-4.6728,-4.7161,-4.7497,-4.7497,-4.7497,-4.7497,-4.7497,-4.7497,-4.7497,-4.7497,-4.7497,-4.7497,-4.7497,-4.7497,-4.7497,-4.7497,-4.7593,-4.769,-4.769,-4.769,-4.7858,-4.8387,-4.8916,-4.9397,-4.9806,-4.9974,-5.0215,-5.0648,-5.0696,-5.0696,-5.0696,-5.0696,-5.0696,-5.0696,-5.0696,-5.0696,-5.0696,-5.0696,-5.0696,-5.0696,-5.0696,-5.0696,-5.0696,-5.0696,-5.0696,-5.0696,-5.0696,-5.0696,-5.0696,-5.0696,-5.0696,-5.0696,-5.0696,-5.0696,-2.6591,-2.6885,-2.7178,-2.7196,-2.7801,-2.8407,-2.8425,-3.0527,-3.2109,-3.1053,-3.3663,-3.5763,-3.458,-3.5433,-3.6332,-3.6332,-3.6332,-3.6332,-3.6332,-3.6332,-3.6461,-3.6911,-3.7471,-3.7999,-3.8527,-3.9325,-3.9802,-3.9802,-4.0328,-4.0677,-4.0735,-4.1024,-4.1172,-4.1172,-4.1196,-4.1196,-4.1172,-4.2182,-4.2771,-4.2843,-4.3842,-4.4285,-4.4285,-4.4285,-4.4285,-4.4285,-4.4285,-4.4285,-4.4285,-4.4285,-4.4285,-4.4285,-4.4285,-4.4597,-4.5101,-4.5694,-4.6223,-4.6752,-4.7281,-4.7473,-4.7497,-4.7497,-4.7497,-4.7497,-4.7497,-4.7497,-4.7497,-4.7497,-4.7497,-4.7497,-4.7497,-4.7497,-4.7497,-4.7497,-4.7882,-4.8243,-4.8243,-4.8243,-4.8411,-4.894,-4.9469,-4.983,-4.9924,-5.0311,-5.0672,-5.0696,-5.0696,-5.0696,-5.0696,-5.0696,-5.0696,-5.0696,-5.0696,-5.0696,-5.0696,-5.0696,-5.0696,-5.0696,-5.0696,-5.0696,-5.0696,-5.0696,-5.0696,-5.0696,-5.0696,-5.0696,-5.0696,-5.0696,-5.0696,-5.0696,-5.0696,-5.0696,-2.6591,-2.6683,-2.6866,-2.7123,-2.7581,-2.8058,-2.8333,-2.9367,-3.0626,-3.1707,-3.2395,-3.3381,-3.53,-3.5982,-3.6332,-3.6332,-3.6332,-3.6332,-3.6332,-3.6332,-3.6346,-3.653,-3.7288,-3.7862,-3.8045,-3.914,-3.9861,-4.0013,-4.0421,-4.0792,-4.1024,-4.1115,-4.1172,-4.1172,-4.1172,-4.1172,-4.1172,-4.223,-4.2819,-4.2843,-4.3842,-4.4285,-4.4285,-4.4285,-4.4285,-4.4285,-4.4285,-4.4285,-4.4285,-4.4285,-4.4285,-4.4285,-4.4285,-4.4621,-4.5125,-4.5718,-4.6247,-4.68,-4.7329,-4.7497,-4.7497,-4.7497,-4.7497,-4.7497,-4.7497,-4.7497,-4.7497,-4.7497,-4.7497,-4.7497,-4.7497,-4.7497,-4.7593,-4.793,-4.8411,-4.8892,-4.9229,-4.9301,-4.9349,-4.9541,-5.0022,-5.0407,-5.0407,-5.0576,-5.0696,-5.0696,-5.0696,-5.0696,-5.0696,-5.0696,-5.0696,-5.0696,-5.0696,-5.0696,-5.0696,-5.0696,-5.0696,-5.0696,-5.0696,-5.0696,-5.0696,-5.0696,-5.0696,-5.0696,-5.0696,-5.0696,-5.0696,-5.0696,-5.0696,-5.0696,-5.0696,-5.0696,-2.6591,-2.6591,-2.6646,-2.6921,-2.738,-2.7895,-2.8113,-2.9214,-3.0684,-3.2281,-3.2623,-3.3381,-3.5872,-3.6332,-3.6332,-3.6332,-3.6332,-3.6332,-3.644,-3.6386,-3.6332,-3.644,-3.7229,-3.7849,-3.7963,-3.9175,-4.0071,-4.0363,-4.0653,-4.0966,-4.1196,-4.1172,-4.1172,-4.1172,-4.1172,-4.1172,-4.1172,-4.223,-4.2819,-4.2843,-4.3842,-4.4285,-4.4285,-4.4285,-4.4285,-4.4285,-4.4285,-4.4285,-4.4285,-4.4285,-4.4285,-4.4309,-4.4477,-4.4885,-4.539,-4.6006,-4.6535,-4.7016,-4.7377,-4.7497,-4.7497,-4.7497,-4.7497,-4.7497,-4.7497,-4.7497,-4.7497,-4.7497,-4.7497,-4.7545,-4.7714,-4.7906,-4.8171,-4.87,-4.9084,-4.9493,-5.0022,-4.9998,-4.9926,-5.0119,-5.0455,-5.0696,-5.0696,-5.0696,-5.0696,-5.0696,-5.0696,-5.0696,-5.0696,-5.0696,-5.0696,-5.0696,-5.0696,-5.0696,-5.0696,-5.0696,-5.0696,-5.0696,-5.0696,-5.0696,-5.0696,-5.0696,-5.0696,-5.0696,-5.0696,-5.0696,-5.0696,-5.0696,-5.0696,-5.0696,-5.0696,-5.0696,0.0,0.0,0.0,-2.6591,-2.7178,-2.7822,-2.7822,-3.0233,-3.2488,-3.2566,-3.4447,-3.6145,-3.62,-3.6277,-3.6277,-3.6277,-3.6332,-3.6386,-3.6657,-3.6495,-3.644,-3.6657,-3.7396,-3.7963,-3.8268,-3.9463,-4.0363,-4.0677,-4.1024,-4.1172,-4.1172,-4.1172,-4.1172,-4.1172,-4.1172,-4.1196,-4.1196,-4.2289,-4.2819,-4.2867,-4.3842,-4.4285,-4.4285,-4.4285,-4.4285,-4.4285,-4.4285,-4.4285,-4.4285,-4.4285,-4.4285,-4.4357,-4.4885,-4.5477,-4.6006,-4.6535,-4.704,-4.7497,-4.7497,-4.7497,-4.7497,-4.7497,-4.7497,-4.7497,-4.7497,-4.7497,-4.7497,-4.7497,-4.7521,-4.7642,-4.8171,-4.87,-4.9229,-4.9758,-4.9878,-5.0046,-5.06,-5.0287,-5.0046,-5.06,-5.0696,-5.0696,-5.0696,-5.0696,-5.0696,-5.0696,-5.0696,-5.0696,-5.0696,-5.0696,-5.0696,-5.0696,-5.0696,-5.0696,-5.0696,-5.0696,-5.0696,-5.0696,-5.0696,-5.0696,-5.0696,-5.0696,-5.0696,-5.0696,-5.0696,-5.0696,-5.0696,-5.0696,-5.0696,-5.0696,-5.0696,-5.0696,-2.6591,0.0,0.0,0.0,0.0,0.0,-2.7822,-2.895,-3.0236,-3.1091,-3.1842,-3.2871,-3.4692,-3.4991,-3.5268,-3.6145,-3.6332,-3.6332,-3.6386,-3.6495,-3.6603,-3.6712,-3.7705,-3.8503,-3.8583,-3.9807,-4.0595,-4.0677,-4.1024,-4.1172,-4.1172,-4.1172,-4.1172,-4.1172,-4.1172,-4.1365,-4.1749,-4.2482,-4.2952,-4.3313,-4.3949,-4.4285,-4.4285,-4.4285,-4.4285,-4.4285,-4.4285,-4.4285,-4.4285,-4.4285,-4.4525,-4.4861,-4.5005,-4.563,-4.6511,-4.6655,-4.704,-4.7497,-4.7497,-4.7497,-4.7497,-4.7497,-4.7497,-4.7497,-4.7497,-4.7497,-4.7497,-4.7497,-4.7786,-4.8195,-4.8724,-4.9253,-4.9686,-4.983,-5.0191,-5.0503,-5.0672,-5.0576,-5.0527,-5.0672,-5.0696,-5.0696,-5.0696,-5.0696,-5.0696,-5.0696,-5.0696,-5.0696,-5.0696,-5.0696,-5.0696,-5.0696,-5.0696,-5.0696,-5.0696,-5.0696,-5.0696,-5.0696,-5.0696,-5.0696,-5.0696,-5.0696,-5.0696,-5.0696,-5.0696,-5.0696,-5.0696,-5.0696,-5.0696,-5.0696,-5.0696,-5.0696,0.0,0.0,0.0,0.0,0.0,0.0,-2.7985,-2.8925,-2.9962,-3.0645,-3.1632,-3.2758,-3.4246,-3.4936,-3.5488,-3.6223,-3.6332,-3.6332,-3.644,-3.658,-3.6766,-3.685,-3.7926,-3.8727,-3.8918,-3.9978,-4.0792,-4.0908,-4.1081,-4.1172,-4.1172,-4.1172,-4.1172,-4.1172,-4.1172,-4.1437,-4.1966,-4.2554,-4.3024,-4.3529,-4.4021,-4.4285,-4.4285,-4.4285,-4.4285,-4.4285,-4.4285,-4.4405,-4.4621,-4.4621,-4.4789,-4.5125,-4.5558,-4.6175,-4.6728,-4.6968,-4.7233,-4.7497,-4.7497,-4.7497,-4.7497,-4.7497,-4.7497,-4.7497,-4.7497,-4.7497,-4.7545,-4.7762,-4.8363,-4.9012,-4.9325,-4.9806,-5.0215,-5.0215,-5.0455,-5.0696,-5.0696,-5.0696,-5.0696,-5.0696,-5.0696,-5.0696,-5.0696,-5.0696,-5.0696,-5.0696,-5.0696,-5.0696,-5.0696,-5.0696,-5.0696,-5.0696,-5.0696,-5.0696,-5.0696,-5.0696,-5.0696,-5.0696,-5.0696,-5.0696,-5.0696,-5.0696,-5.0696,-5.0696,-5.0696,-5.0696,-5.0696,-5.0696,-5.0696,-5.0696,-5.0696,-5.0696,0.0,0.0,0.0,0.0,-2.7601,0.0,-2.8315,-2.956,-3.0587,-3.0587,-3.2473,-3.4078,-3.4078,-3.508,-3.5927,-3.6091,-3.6091,-3.62,-3.658,-3.6688,-3.6796,-3.7066,-3.8044,-3.8847,-3.9197,-4.0126,-4.0836,-4.1172,-4.1172,-4.1172,-4.1172,-4.1172,-4.1172,-4.1172,-4.1244,-4.1533,-4.2062,-4.2591,-4.3096,-4.3601,-4.4045,-4.4285,-4.4285,-4.4285,-4.4285,-4.4285,-4.4357,-4.4645,-4.5077,-4.5197,-4.5309,-4.5342,-4.6343,-4.6752,-4.6848,-4.7329,-4.7497,-4.7497,-4.7497,-4.7497,-4.7497,-4.7497,-4.7497,-4.7497,-4.7497,-4.7545,-4.7714,-4.8291,-4.9133,-4.9878,-4.995,-5.0335,-5.0696,-5.0696,-5.0696,-5.0696,-5.0696,-5.0696,-5.0696,-5.0696,-5.0696,-5.0696,-5.0696,-5.0696,-5.0696,-5.0696,-5.0696,-5.0696,-5.0696,-5.0696,-5.0696,-5.0696,-5.0696,-5.0696,-5.0696,-5.0696,-5.0696,-5.0696,-5.0696,-5.0696,-5.0696,-5.0696,-5.0696,-5.0696,-5.0696,-5.0696,-5.0696,-5.0696,-5.0696,-5.0696,-5.0696,-5.0696,0.0,0.0,0.0,-2.7693,-2.7967,0.0,-2.837,-2.8877,-2.9331,-2.9331,-3.0529,-3.1516,-3.1516,-3.2509,-3.3642,-3.4692,-3.488,-3.5212,-3.62,-3.6742,-3.7012,-3.7066,-3.8065,-3.8964,-3.945,-4.0074,-4.0658,-4.1148,-4.1172,-4.1172,-4.1172,-4.1172,-4.1172,-4.1172,-4.1605,-4.2062,-4.2651,-4.312,-4.3649,-4.4117,-4.4237,-4.4285,-4.4285,-4.4285,-4.4285,-4.4309,-4.4741,-4.4981,-4.5213,-4.6054,-4.6415,-4.6439,-4.6631,-4.6968,-4.7353,-4.7473,-4.7497,-4.7497,-4.7497,-4.7497,-4.7497,-4.7497,-4.7497,-4.7497,-4.7497,-4.781,-4.8339,-4.9301,-4.971,-4.9974,-5.0431,-5.0624,-5.0696,-5.0696,-5.0696,-5.0696,-5.0696,-5.0696,-5.0696,-5.0696,-5.0696,-5.0696,-5.0696,-5.0696,-5.0696,-5.0696,-5.0696,-5.0696,-5.0696,-5.0696,-5.0696,-5.0696,-5.0696,-5.0696,-5.0696,-5.0696,-5.0696,-5.0696,-5.0696,-5.0696,-5.0696,-5.0696,-5.0696,-5.0696,-5.0696,-5.0696,-5.0696,-5.0696,-5.0696,-5.0696,-5.0696,-5.0696,-2.782,-2.7822,-2.7877,-2.8022,-2.8242,0.0,0.0,-2.8847,-2.8975,-2.8975,-2.9962,-3.082,-3.082,-3.1765,-3.3021,-3.4302,-3.4469,-3.4936,-3.6145,-3.6742,-3.7089,-3.7089,-3.8102,-3.9032,-3.9561,-4.009,-4.0619,-4.1148,-4.1172,-4.1172,-4.1172,-4.1172,-4.1172,-4.1172,-4.1701,-4.2289,-4.2819,-4.3265,-4.3794,-4.4285,-4.4285,-4.4285,-4.4285,-4.4285,-4.4429,-4.4693,-4.4957,-4.5366,-4.5958,-4.6487,-4.6872,-4.7112,-4.7112,-4.7257,-4.7497,-4.7497,-4.7497,-4.7497,-4.7497,-4.7497,-4.7497,-4.7497,-4.7497,-4.7545,-4.781,-4.8459,-4.9181,-4.971,-5.007,-5.0335,-5.0624,-5.0696,-5.0696,-5.0696,-5.0696,-5.0696,-5.0696,-5.0696,-5.0696,-5.0696,-5.0696,-5.0696,-5.0696,-5.0696,-5.0696,-5.0696,-5.0696,-5.0696,-5.0696,-5.0696,-5.0696,-5.0696,-5.0696,-5.0696,-5.0696,-5.0696,-5.0696,-5.0696,-5.0696,-5.0696,-5.0696,-5.0696,-5.0696,-5.0696,-5.0696,-5.0696,-5.0696,-5.0696,-5.0696,-5.0696,-5.0696,-5.0696,-2.8095,-2.8061,-2.8077,-2.8425,-2.8517,-2.859,0.0,0.0,0.0,-2.8975,-2.9785,-3.047,-3.047,-3.1265,-3.2276,-3.3372,-3.3669,-3.4236,-3.5545,-3.6356,-3.685,-3.7012,-3.8006,-3.8912,-3.9482,-4.013,-4.0715,-4.1148,-4.1172,-4.1172,-4.1172,-4.1172,-4.1172,-4.1172,-4.1798,-4.2386,-4.2819,-4.3361,-4.389,-4.4285,-4.4285,-4.4285,-4.4285,-4.4381,-4.4669,-4.5077,-4.5357,-4.5934,-4.6728,-4.6824,-4.7112,-4.7497,-4.7497,-4.7497,-4.7497,-4.7497,-4.7497,-4.7497,-4.7497,-4.7497,-4.7497,-4.7497,-4.7569,-4.7762,-4.8411,-4.9181,-4.9878,-4.9998,-5.0359,-5.0696,-5.0696,-5.0696,-5.0696,-5.0696,-5.0696,-5.0696,-5.0696,-5.0696,-5.0696,-5.0696,-5.0696,-5.0696,-5.0696,-5.0696,-5.0696,-5.0696,-5.0696,-5.0696,-5.0696,-5.0696,-5.0696,-5.0696,-5.0696,-5.0696,-5.0696,-5.0696,-5.0696,-5.0696,-5.0696,-5.0696,-5.0696,-5.0696,-5.0696,-5.0696,-5.0696,-5.0696,-5.0696,-5.0696,-5.0696,-5.0696,-5.0696,-5.0696,-2.8865,-2.8847,-2.8847,-2.8902,-2.892,-2.892,-2.8975,0.0,-2.8975,-2.8975,0.0,-2.9213,-2.9213,0.0,0.0,-3.0066,-3.0769,-3.1808,-3.3419,-3.4719,-3.5827,-3.6634,-3.7566,-3.8371,-3.9181,-4.0386,-4.1124,-4.1172,-4.1172,-4.1172,-4.1172,-4.1172,-4.1172,-4.1172,-4.2158,-4.2747,-4.2819,-4.3746,-4.4213,-4.4285,-4.4285,-4.4285,-4.4309,-4.4765,-4.5005,-4.5125,-4.6126,-4.6607,-4.6752,-4.7209,-4.7449,-4.7497,-4.7497,-4.7497,-4.7497,-4.7497,-4.7497,-4.7497,-4.7497,-4.7497,-4.7497,-4.7497,-4.781,-4.8387,-4.9373,-4.9782,-4.9974,-5.0479,-5.0648,-5.0696,-5.0696,-5.0696,-5.0696,-5.0696,-5.0696,-5.0696,-5.0696,-5.0696,-5.0696,-5.0696,-5.0696,-5.0696,-5.0696,-5.0696,-5.0696,-5.0696,-5.0696,-5.0696,-5.0696,-5.0696,-5.0696,-5.0696,-5.0696,-5.0696,-5.0696,-5.0696,-5.0696,-5.0696,-5.0696,-5.0696,-5.0696,-5.0696,-5.0696,-5.0696,-5.0696,-5.0696,-5.0696,-5.0696,-5.0696,-5.0696,-5.0696,-5.0696,-2.8975,-2.8975,-2.8975,-2.8975,-2.8975,-2.8975,-2.8975,-2.8975,-2.8975,-2.8975,0.0,0.0,0.0,0.0,0.0,0.0,-3.0586,-3.1377,-3.2984,-3.4406,-3.564,-3.658,-3.7441,-3.8353,-3.9323,-4.0226,-4.086,-4.1172,-4.1172,-4.1172,-4.1172,-4.1485,-4.1629,-4.1629,-4.2663,-4.3192,-4.3192,-4.3962,-4.4285,-4.4285,-4.4285,-4.4285,-4.4309,-4.4837,-4.5245,-4.5645,-4.6391,-4.6896,-4.7185,-4.7401,-4.7497,-4.7497,-4.7497,-4.7497,-4.7497,-4.7497,-4.7497,-4.7497,-4.7497,-4.7497,-4.7545,-4.7858,-4.8531,-4.9277,-4.9734,-5.0095,-5.0407,-5.0648,-5.0696,-5.0696,-5.0696,-5.0696,-5.0696,-5.0696,-5.0696,-5.0696,-5.0696,-5.0696,-5.0696,-5.0696,-5.0696,-5.0696,-5.0696,-5.0696,-5.0696,-5.0696,-5.0696,-5.0696,-5.0696,-5.0696,-5.0696,-5.0696,-5.0696,-5.0696,-5.0696,-5.0696,-5.0696,-5.0696,-5.0696,-5.0696,-5.0696,-5.0696,-5.0696,-5.0696,-5.0696,-5.0696,-5.0696,-5.0696,-5.0696,-5.0696,-5.0696,-5.0696,-2.8975,-2.8975,-2.8975,-2.8975,-2.8975,-2.8975,-2.8975,-2.8975,-2.8975,-2.8975,-2.8975,0.0,0.0,0.0,0.0,0.0,0.0,-3.0916,-3.2538,-3.3973,-3.5201,-3.62,-3.7369,-3.8521,-3.9513,-4.009,-4.0619,-4.1148,-4.1172,-4.1172,-4.1172,-4.1677,-4.1966,-4.1966,-4.2976,-4.3505,-4.3505,-4.3997,-4.4285,-4.4285,-4.4285,-4.4357,-4.4525,-4.5053,-4.5645,-4.6175,-4.6704,-4.7136,-4.7497,-4.7497,-4.7497,-4.7497,-4.7497,-4.7497,-4.7497,-4.7497,-4.7497,-4.7497,-4.7497,-4.7593,-4.7834,-4.8507,-4.9253,-4.9902,-5.0046,-5.0383,-5.0696,-5.0696,-5.0696,-5.0696,-5.0696,-5.0696,-5.0696,-5.0696,-5.0696,-5.0696,-5.0696,-5.0696,-5.0696,-5.0696,-5.0696,-5.0696,-5.0696,-5.0696,-5.0696,-5.0696,-5.0696,-5.0696,-5.0696,-5.0696,-5.0696,-5.0696,-5.0696,-5.0696,-5.0696,-5.0696,-5.0696,-5.0696,-5.0696,-5.0696,-5.0696,-5.0696,-5.0696,-5.0696,-5.0696,-5.0696,-5.0696,-5.0696,-5.0696,-5.0696,-5.0696,-5.0696,-2.8975,-2.8975,-2.8975,-2.8975,-2.8975,-2.8975,-2.8975,-2.8975,-2.8975,-2.8975,-2.8975,-2.8975,-2.8975,0.0,0.0,0.0,0.0,0.0,0.0,-3.2878,-3.4035,-3.53,-3.7208,-3.8735,-3.9506,-4.009,-4.0619,-4.1148,-4.1172,-4.1172,-4.1172,-4.1677,-4.1966,-4.1966,-4.2976,-4.3505,-4.3505,-4.3997,-4.4285,-4.4285,-4.4285,-4.4549,-4.5053,-4.5645,-4.6199,-4.6728,-4.7257,-4.7473,-4.7497,-4.7497,-4.7497,-4.7497,-4.7497,-4.7497,-4.7497,-4.7497,-4.7497,-4.7497,-4.7497,-4.7834,-4.8435,-4.9469,-4.983,-4.9974,-5.0503,-5.0696,-5.0696,-5.0696,-5.0696,-5.0696,-5.0696,-5.0696,-5.0696,-5.0696,-5.0696,-5.0696,-5.0696,-5.0696,-5.0696,-5.0696,-5.0696,-5.0696,-5.0696,-5.0696,-5.0696,-5.0696,-5.0696,-5.0696,-5.0696,-5.0696,-5.0696,-5.0696,-5.0696,-5.0696,-5.0696,-5.0696,-5.0696,-5.0696,-5.0696,-5.0696,-5.0696,-5.0696,-5.0696,-5.0696,-5.0696,-5.0696,-5.0696,-5.0696,-5.0696,-5.0696,-5.0696,-5.0696,-2.9379,-2.9177,-2.8975,-2.8975,-2.8975,-2.8975,-2.8975,-2.8975,-2.8975,-2.8975,-2.8975,-2.8975,-2.8975,0.0,0.0,0.0,0.0,0.0,0.0,-3.3819,-3.5717,-3.6989,-3.7577,-3.8323,-3.9458,-3.9777,-4.0234,-4.1124,-4.1172,-4.1341,-4.1677,-4.2265,-4.2639,-4.2976,-4.3697,-4.3997,-4.3997,-4.4189,-4.4285,-4.4285,-4.4285,-4.4573,-4.5101,-4.5694,-4.6223,-4.6752,-4.7281,-4.7497,-4.7497,-4.7497,-4.7497,-4.7497,-4.7497,-4.7497,-4.7497,-4.7497,-4.7497,-4.7545,-4.7906,-4.8363,-4.894,-4.9638,-5.0119,-5.0455,-5.0648,-5.0696,-5.0696,-5.0696,-5.0696,-5.0696,-5.0696,-5.0696,-5.0696,-5.0696,-5.0696,-5.0696,-5.0696,-5.0696,-5.0696,-5.0696,-5.0696,-5.0696,-5.0696,-5.0696,-5.0696,-5.0696,-5.0696,-5.0696,-5.0696,-5.0696,-5.0696,-5.0696,-5.0696,-5.0696,-5.0696,-5.0696,-5.0696,-5.0696,-5.0696,-5.0696,-5.0696,-5.0696,-5.0696,-5.0696,-5.0696,-5.0696,-5.0696,-5.0696,-5.0696,-5.0696,-5.0696,-5.0696,-2.98,-2.9617,-2.9415,-2.9415,-2.9415,-2.9379,-2.9232,-2.9195,-2.9159,-2.9012,-2.8975,-2.8975,-2.8975,0.0,0.0,0.0,0.0,0.0,0.0,-3.4481,-3.6557,-3.7868,-3.7838,-3.8216,-3.9513,-3.9609,-4.0042,-4.11,-4.1172,-4.1413,-4.1942,-4.253,-4.3,-4.3505,-4.3997,-4.4285,-4.4285,-4.4285,-4.4285,-4.4285,-4.4477,-4.4837,-4.5366,-4.5958,-4.6487,-4.7016,-4.7353,-4.7497,-4.7497,-4.7497,-4.7497,-4.7497,-4.7497,-4.7497,-4.7497,-4.7497,-4.7617,-4.7858,-4.8387,-4.8916,-4.9445,-4.9998,-5.0407,-5.0696,-5.0696,-5.0696,-5.0696,-5.0696,-5.0696,-5.0696,-5.0696,-5.0696,-5.0696,-5.0696,-5.0696,-5.0696,-5.0696,-5.0696,-5.0696,-5.0696,-5.0696,-5.0696,-5.0696,-5.0696,-5.0696,-5.0696,-5.0696,-5.0696,-5.0696,-5.0696,-5.0696,-5.0696,-5.0696,-5.0696,-5.0696,-5.0696,-5.0696,-5.0696,-5.0696,-5.0696,-5.0696,-5.0696,-5.0888,-5.1249,-5.0888,-5.0888,-5.1273,-5.0888,-5.0696,-5.0696,-5.0696,-5.0696]},{"header":{"parameterUnit":"m.s-1","parameterCategory":1,"la1":30.6,"la2":29.2853,"lo1":-89.7004,"lo2":-87.6739,"dx":0.0162,"dy":0.0183,"nx":112,"ny":82,"refTime":"2023-02-04T06:00:00:Z","depth":0,"parameterNumber":3,"parameterNumberName":"V-component_of_WINDS"},"data":[0.0,0.0,0.0,0.0,0.0,0.0,0.0,0.0,0.0,0.0,0.0,0.0,0.0,0.0,0.0,0.0,0.0,0.0,0.0,0.0,0.0,0.0,0.0,0.0,0.0,0.0,0.0,0.0,0.0,0.0,0.0,0.0,0.0,0.0,0.0,0.0,0.0,0.0,0.0,0.0,0.0,0.0,0.0,0.0,0.0,0.0,0.0,0.0,0.0,0.0,0.0,0.0,0.0,0.0,0.0,0.0,0.0,0.0,0.0,0.0,0.0,0.0,0.0,0.0,0.0,0.0,0.0,0.0,0.0,0.0,0.0,0.0,0.0,0.0,0.0,0.0,0.0,0.0,0.0,0.0,0.0,0.0,0.0,0.0,0.0,0.0,0.0,0.0,0.0,0.0,4.1373,4.1373,4.0798,4.0451,4.0451,4.0451,4.0383,4.0282,0.0,0.0,0.0,0.0,0.0,0.0,0.0,0.0,0.0,0.0,0.0,0.0,0.0,0.0,0.0,0.0,0.0,0.0,0.0,0.0,0.0,0.0,0.0,0.0,0.0,0.0,0.0,0.0,0.0,0.0,0.0,0.0,0.0,0.0,0.0,0.0,0.0,0.0,0.0,0.0,0.0,0.0,0.0,0.0,0.0,0.0,0.0,0.0,0.0,0.0,0.0,0.0,0.0,0.0,0.0,0.0,0.0,0.0,0.0,0.0,0.0,0.0,0.0,0.0,0.0,0.0,0.0,0.0,0.0,0.0,0.0,0.0,0.0,0.0,0.0,0.0,0.0,0.0,0.0,0.0,0.0,0.0,0.0,0.0,0.0,0.0,0.0,0.0,0.0,0.0,0.0,0.0,0.0,0.0,0.0,0.0,0.0,0.0,0.0,0.0,0.0,0.0,0.0,0.0,4.2117,4.2117,4.2016,4.1974,4.1974,4.1974,4.1677,4.1068,0.0,0.0,0.0,0.0,0.0,0.0,0.0,0.0,0.0,0.0,0.0,0.0,0.0,0.0,0.0,0.0,0.0,0.0,0.0,0.0,0.0,0.0,0.0,0.0,0.0,0.0,0.0,0.0,0.0,0.0,0.0,0.0,0.0,0.0,0.0,0.0,0.0,0.0,0.0,0.0,0.0,0.0,0.0,0.0,0.0,0.0,0.0,0.0,0.0,0.0,0.0,0.0,0.0,0.0,0.0,0.0,0.0,0.0,0.0,0.0,0.0,0.0,0.0,0.0,0.0,0.0,0.0,0.0,0.0,0.0,0.0,0.0,0.0,0.0,0.0,0.0,0.0,0.0,0.0,0.0,0.0,0.0,0.0,0.0,0.0,0.0,0.0,0.0,0.0,0.0,0.0,0.0,0.0,0.0,0.0,0.0,0.0,0.0,0.0,0.0,0.0,0.0,0.0,4.2895,4.2726,4.232,4.2286,4.2286,4.2286,4.2286,4.2151,4.1813,4.1474,0.0,0.0,0.0,0.0,0.0,0.0,0.0,0.0,0.0,0.0,0.0,0.0,0.0,0.0,0.0,0.0,0.0,0.0,0.0,0.0,0.0,0.0,0.0,0.0,0.0,0.0,0.0,0.0,0.0,0.0,0.0,0.0,0.0,0.0,0.0,0.0,0.0,0.0,0.0,0.0,0.0,0.0,0.0,0.0,0.0,0.0,0.0,0.0,0.0,0.0,0.0,0.0,0.0,0.0,0.0,0.0,0.0,0.0,0.0,0.0,0.0,0.0,0.0,0.0,0.0,0.0,0.0,0.0,0.0,0.0,0.0,0.0,0.0,0.0,0.0,0.0,0.0,0.0,0.0,0.0,0.0,0.0,0.0,0.0,0.0,0.0,0.0,0.0,0.0,0.0,0.0,0.0,0.0,0.0,0.0,0.0,0.0,0.0,0.0,0.0,0.0,0.0,4.3673,4.347,4.2895,4.2828,4.2828,4.2828,4.2828,4.276,4.2557,4.2726,0.0,0.0,0.0,0.0,0.0,0.0,0.0,0.0,0.0,0.0,0.0,0.0,0.0,0.0,0.0,0.0,0.0,0.0,0.0,0.0,0.0,0.0,0.0,0.0,0.0,0.0,0.0,0.0,0.0,0.0,0.0,0.0,0.0,0.0,0.0,0.0,0.0,0.0,0.0,0.0,0.0,0.0,0.0,0.0,0.0,0.0,0.0,0.0,0.0,0.0,0.0,0.0,0.0,0.0,0.0,0.0,0.0,0.0,0.0,0.0,0.0,0.0,0.0,0.0,0.0,0.0,0.0,0.0,0.0,0.0,0.0,0.0,0.0,0.0,0.0,0.0,0.0,0.0,0.0,0.0,0.0,0.0,0.0,0.0,0.0,0.0,0.0,0.0,0.0,0.0,0.0,0.0,0.0,0.0,0.0,0.0,0.0,0.0,0.0,0.0,0.0,0.0,4.4513,4.4513,4.4445,4.4445,4.4445,4.4445,4.4445,4.4113,4.3369,4.4012,0.0,0.0,0.0,0.0,0.0,0.0,0.0,0.0,0.0,0.0,0.0,0.0,0.0,0.0,0.0,0.0,0.0,0.0,0.0,0.0,0.0,0.0,0.0,0.0,0.0,0.0,0.0,0.0,0.0,0.0,0.0,0.0,0.0,0.0,0.0,0.0,0.0,0.0,0.0,0.0,0.0,0.0,0.0,0.0,0.0,0.0,0.0,0.0,0.0,0.0,0.0,0.0,0.0,0.0,0.0,0.0,0.0,0.0,0.0,0.0,0.0,0.0,0.0,0.0,0.0,0.0,0.0,0.0,0.0,0.0,0.0,0.0,0.0,0.0,0.0,0.0,0.0,0.0,0.0,0.0,0.0,0.0,0.0,0.0,0.0,0.0,0.0,0.0,0.0,0.0,0.0,0.0,0.0,0.0,0.0,0.0,0.0,0.0,0.0,0.0,0.0,0.0,4.4615,4.4615,4.4615,4.4615,4.4615,4.4615,4.4615,4.4479,4.4147,0.0,0.0,0.0,0.0,0.0,0.0,0.0,0.0,0.0,0.0,0.0,0.0,0.0,0.0,0.0,0.0,0.0,0.0,0.0,0.0,0.0,0.0,0.0,0.0,0.0,0.0,0.0,0.0,0.0,0.0,0.0,0.0,0.0,0.0,0.0,0.0,0.0,0.0,0.0,0.0,0.0,0.0,0.0,0.0,0.0,0.0,0.0,0.0,0.0,0.0,0.0,0.0,0.0,0.0,0.0,0.0,0.0,0.0,0.0,0.0,0.0,0.0,0.0,0.0,0.0,0.0,0.0,0.0,0.0,0.0,0.0,0.0,0.0,0.0,0.0,0.0,0.0,0.0,0.0,0.0,0.0,0.0,0.0,0.0,0.0,0.0,0.0,0.0,0.0,0.0,0.0,0.0,0.0,0.0,0.0,0.0,0.0,0.0,0.0,0.0,0.0,0.0,4.4615,4.4615,4.4615,4.4615,4.4615,4.4615,4.4615,4.4615,4.4615,4.4615,0.0,0.0,0.0,0.0,0.0,0.0,0.0,0.0,0.0,0.0,0.0,0.0,0.0,0.0,0.0,0.0,0.0,0.0,0.0,0.0,0.0,0.0,0.0,0.0,0.0,0.0,0.0,0.0,0.0,0.0,0.0,0.0,0.0,0.0,0.0,0.0,0.0,0.0,0.0,0.0,0.0,0.0,0.0,0.0,0.0,0.0,0.0,0.0,0.0,0.0,0.0,0.0,0.0,0.0,0.0,0.0,0.0,0.0,0.0,0.0,0.0,0.0,0.0,0.0,0.0,0.0,0.0,0.0,0.0,0.0,0.0,0.0,0.0,0.0,0.0,0.0,0.0,0.0,0.0,0.0,0.0,0.0,0.0,0.0,0.0,0.0,0.0,0.0,0.0,0.0,0.0,0.0,0.0,0.0,0.0,0.0,0.0,0.0,0.0,0.0,0.0,0.0,4.4615,4.4615,4.4615,4.4615,4.4615,4.4615,4.4615,4.4615,4.4615,0.0,0.0,0.0,0.0,0.0,0.0,0.0,0.0,0.0,0.0,0.0,0.0,0.0,0.0,0.0,0.0,0.0,0.0,0.0,0.0,0.0,0.0,0.0,0.0,0.0,0.0,0.0,0.0,0.0,0.0,0.0,0.0,0.0,0.0,0.0,0.0,0.0,0.0,0.0,0.0,0.0,0.0,0.0,0.0,0.0,0.0,0.0,0.0,0.0,0.0,0.0,0.0,0.0,0.0,0.0,0.0,0.0,0.0,0.0,0.0,0.0,0.0,0.0,0.0,0.0,0.0,0.0,0.0,0.0,0.0,0.0,0.0,0.0,0.0,0.0,0.0,0.0,0.0,0.0,0.0,0.0,0.0,0.0,0.0,0.0,0.0,0.0,0.0,0.0,0.0,0.0,0.0,0.0,0.0,0.0,0.0,0.0,0.0,0.0,0.0,0.0,0.0,0.0,4.4615,4.4615,4.4615,4.4615,4.4615,4.4615,4.4615,4.4615,4.4615,4.4615,0.0,0.0,0.0,0.0,0.0,0.0,0.0,0.0,0.0,0.0,0.0,0.0,0.0,0.0,0.0,0.0,0.0,0.0,0.0,0.0,0.0,0.0,0.0,0.0,0.0,0.0,0.0,0.0,0.0,0.0,0.0,0.0,0.0,0.0,0.0,0.0,0.0,0.0,0.0,0.0,0.0,0.0,0.0,0.0,0.0,0.0,0.0,0.0,0.0,0.0,0.0,0.0,0.0,0.0,0.0,0.0,0.0,0.0,0.0,0.0,0.0,0.0,0.0,0.0,0.0,0.0,0.0,0.0,0.0,0.0,0.0,0.0,0.0,0.0,0.0,0.0,0.0,0.0,0.0,0.0,0.0,0.0,0.0,0.0,0.0,0.0,0.0,0.0,0.0,0.0,0.0,0.0,0.0,0.0,0.0,0.0,0.0,0.0,0.0,0.0,0.0,0.0,4.4615,4.4615,4.4615,4.4615,4.4615,4.4615,4.4615,4.4615,4.4615,4.4615,0.0,0.0,0.0,0.0,0.0,0.0,0.0,0.0,0.0,0.0,0.0,0.0,0.0,0.0,0.0,0.0,0.0,0.0,0.0,0.0,0.0,0.0,0.0,0.0,0.0,0.0,0.0,0.0,0.0,0.0,0.0,0.0,0.0,0.0,0.0,0.0,0.0,0.0,0.0,0.0,0.0,0.0,0.0,0.0,0.0,0.0,0.0,0.0,0.0,0.0,0.0,0.0,0.0,0.0,0.0,0.0,0.0,0.0,0.0,0.0,0.0,0.0,0.0,0.0,0.0,0.0,0.0,0.0,0.0,0.0,0.0,0.0,0.0,0.0,0.0,0.0,0.0,0.0,0.0,0.0,0.0,0.0,0.0,0.0,0.0,0.0,0.0,0.0,0.0,0.0,0.0,0.0,0.0,0.0,0.0,0.0,0.0,0.0,0.0,0.0,0.0,0.0,4.4818,4.475,4.4716,4.4716,4.4649,4.4615,4.4615,4.4615,4.4615,4.4615,0.0,0.0,0.0,0.0,0.0,0.0,0.0,0.0,0.0,0.0,0.0,0.0,0.0,0.0,0.0,0.0,0.0,0.0,0.0,0.0,0.0,0.0,0.0,0.0,0.0,0.0,0.0,0.0,0.0,0.0,0.0,0.0,0.0,0.0,0.0,0.0,0.0,0.0,0.0,0.0,0.0,0.0,0.0,0.0,0.0,0.0,0.0,0.0,0.0,0.0,0.0,0.0,0.0,0.0,0.0,0.0,0.0,0.0,0.0,0.0,4.7277,4.7307,0.0,0.0,0.0,0.0,0.0,0.0,0.0,0.0,0.0,0.0,0.0,0.0,0.0,0.0,0.0,0.0,0.0,0.0,0.0,0.0,0.0,0.0,0.0,0.0,0.0,0.0,0.0,0.0,0.0,0.0,0.0,0.0,0.0,0.0,0.0,0.0,0.0,0.0,0.0,0.0,4.6312,4.5805,4.5466,4.5466,4.4925,4.4615,4.4615,4.4615,4.4615,4.4615,4.4615,0.0,0.0,0.0,0.0,0.0,0.0,0.0,0.0,0.0,0.0,0.0,0.0,0.0,0.0,0.0,0.0,0.0,0.0,0.0,0.0,0.0,0.0,0.0,0.0,0.0,0.0,0.0,0.0,0.0,0.0,0.0,0.0,0.0,0.0,0.0,0.0,0.0,0.0,0.0,0.0,0.0,0.0,0.0,0.0,0.0,0.0,0.0,0.0,0.0,0.0,0.0,0.0,0.0,0.0,0.0,0.0,0.0,0.0,0.0,4.8332,4.8309,0.0,0.0,0.0,0.0,0.0,0.0,0.0,0.0,0.0,0.0,0.0,0.0,0.0,0.0,0.0,0.0,0.0,0.0,0.0,0.0,0.0,0.0,0.0,0.0,0.0,0.0,0.0,0.0,0.0,0.0,0.0,0.0,0.0,0.0,0.0,0.0,0.0,0.0,0.0,0.0,4.6786,4.6481,4.6244,4.6244,4.5872,4.5664,4.5664,4.5664,4.5664,4.5664,4.5664,0.0,0.0,0.0,0.0,0.0,0.0,0.0,0.0,0.0,0.0,0.0,0.0,0.0,0.0,0.0,0.0,0.0,0.0,0.0,0.0,0.0,0.0,0.0,0.0,0.0,0.0,0.0,0.0,0.0,0.0,0.0,0.0,0.0,0.0,0.0,0.0,0.0,0.0,0.0,0.0,0.0,0.0,0.0,0.0,0.0,0.0,0.0,0.0,0.0,0.0,0.0,0.0,0.0,4.9233,4.9107,4.9199,4.9077,4.9049,4.9018,4.929,4.932,4.9229,4.95,0.0,0.0,0.0,0.0,0.0,0.0,0.0,0.0,0.0,0.0,0.0,0.0,0.0,0.0,0.0,0.0,0.0,0.0,0.0,0.0,0.0,0.0,4.9018,4.9018,4.9018,4.9018,4.9018,0.0,0.0,0.0,0.0,0.0,0.0,0.0,0.0,0.0,0.0,0.0,4.7192,4.7056,4.6989,4.6989,4.6887,4.6786,4.6786,4.6786,4.6786,4.6786,4.6786,4.6515,0.0,0.0,0.0,0.0,0.0,0.0,0.0,0.0,0.0,0.0,0.0,0.0,0.0,0.0,0.0,0.0,0.0,0.0,0.0,0.0,0.0,0.0,0.0,0.0,0.0,0.0,0.0,0.0,0.0,0.0,0.0,0.0,4.9168,4.9015,0.0,0.0,0.0,0.0,0.0,0.0,0.0,0.0,0.0,0.0,0.0,0.0,0.0,4.9199,4.9199,4.935,4.9441,4.95,4.9441,4.935,4.9199,4.9168,4.9107,4.9018,4.9049,0.0,4.9199,4.926,0.0,0.0,0.0,0.0,0.0,0.0,0.0,0.0,0.0,0.0,0.0,0.0,0.0,0.0,0.0,0.0,0.0,0.0,0.0,0.0,0.0,0.0,4.9018,4.9018,4.9018,4.9018,4.9018,4.9018,4.9018,4.9018,4.9018,4.9018,0.0,0.0,0.0,0.0,0.0,0.0,4.8714,4.8173,4.7736,4.7736,4.7192,4.6786,4.6786,4.6786,4.6786,4.6786,4.6786,4.6752,4.665,4.665,0.0,0.0,0.0,0.0,0.0,0.0,0.0,0.0,0.0,0.0,0.0,0.0,0.0,0.0,0.0,0.0,0.0,0.0,0.0,0.0,0.0,0.0,0.0,0.0,0.0,0.0,0.0,0.0,0.0,4.95,4.9471,4.9381,4.9624,4.9713,0.0,0.0,0.0,0.0,0.0,0.0,0.0,0.0,0.0,4.9381,4.935,4.932,4.9199,4.929,4.9381,4.95,4.95,4.9381,4.9199,4.9199,4.9107,4.9018,4.9018,4.9015,4.9077,4.9168,4.929,4.9441,0.0,0.0,0.0,0.0,4.959,4.956,4.9381,4.932,4.932,4.932,0.0,0.0,0.0,0.0,0.0,0.0,0.0,4.9018,4.9018,4.9018,4.9018,4.9018,4.9018,4.9018,4.9018,4.9018,4.9018,4.9018,4.9018,4.9018,4.9018,4.9018,0.0,0.0,0.0,4.9018,4.9018,4.8714,4.8545,4.8545,4.824,4.8037,4.8037,4.8037,4.8037,4.8037,4.8037,4.7868,4.7428,4.7428,4.7225,0.0,0.0,0.0,0.0,0.0,0.0,0.0,0.0,0.0,0.0,0.0,0.0,0.0,0.0,0.0,0.0,0.0,0.0,0.0,0.0,0.0,0.0,0.0,0.0,0.0,0.0,0.0,0.0,4.9649,4.9649,4.9649,4.9801,4.986,0.0,0.0,0.0,0.0,0.0,0.0,5.0011,4.9952,4.9801,4.956,4.9471,4.935,4.9199,4.9403,4.9596,4.9718,4.9983,4.996,4.9777,4.9777,4.9613,4.9289,4.9289,4.9187,4.9018,4.9107,4.9168,4.9199,4.935,4.9441,4.9471,4.9441,4.9411,4.9381,4.9199,4.9138,4.9138,4.9138,4.9168,4.9229,4.9381,0.0,0.0,0.0,0.0,4.9018,4.9018,4.9018,4.9018,4.9018,4.9018,4.9018,4.9018,4.9018,4.9018,4.9018,4.9018,4.9018,4.9018,4.9018,0.0,4.9018,4.9018,4.9018,4.9018,4.9018,4.9018,4.9018,4.9018,4.9018,4.9018,4.9018,4.9018,4.9018,4.9018,4.8748,4.8176,4.8206,4.7936,4.7361,0.0,0.0,0.0,0.0,0.0,0.0,0.0,0.0,0.0,0.0,0.0,0.0,0.0,0.0,0.0,0.0,0.0,0.0,0.0,0.0,0.0,0.0,0.0,0.0,0.0,0.0,0.0,0.0,0.0,4.95,4.9619,0.0,0.0,0.0,0.0,4.9982,5.0011,5.0011,5.0011,4.983,4.9708,4.9679,4.9381,4.9199,4.9199,4.9977,5.0317,5.0382,5.1188,5.1529,5.1371,5.1371,5.0869,5.0033,5.0033,4.9627,4.9018,4.9018,4.9077,4.9199,4.9199,4.932,4.9471,4.929,4.9229,4.9199,4.908,4.9018,4.9018,4.9018,4.9077,4.9199,4.9199,4.9199,0.0,0.0,4.9107,4.9018,4.9018,4.9018,4.9018,4.9018,4.9018,4.9018,4.9018,4.9018,4.9018,4.9018,4.9018,4.9018,4.9018,0.0,4.9018,4.9018,4.9018,4.9018,4.9018,4.9018,4.9018,4.9018,4.9018,4.9018,4.9018,4.9018,4.9018,4.9018,4.9018,4.8984,4.8951,4.8951,4.8951,4.8883,4.8883,0.0,0.0,0.0,0.0,0.0,0.0,0.0,0.0,0.0,0.0,0.0,0.0,0.0,0.0,0.0,0.0,0.0,0.0,0.0,0.0,0.0,0.0,0.0,0.0,0.0,0.0,0.0,0.0,4.9801,4.986,0.0,4.9889,4.9982,5.0011,5.0011,5.0011,5.0218,5.07,5.0641,5.0759,5.115,5.0936,5.0813,5.0813,5.1026,5.1162,5.1256,5.1558,5.1631,5.1505,5.1505,5.1242,5.0811,5.0811,5.0676,5.0439,5.0439,4.9895,4.9046,4.9046,4.9107,4.9168,4.9077,4.9046,4.9046,4.9018,4.9018,4.9018,4.9018,4.9015,4.9046,4.9046,4.9416,4.9788,4.9788,5.0098,5.0439,5.0439,5.0439,5.0439,5.0439,5.0439,5.0439,5.0439,5.0439,5.0439,5.0439,4.9661,4.9018,4.9018,4.9018,4.9018,4.9018,4.9018,4.9018,4.9018,4.9018,4.9018,4.9018,4.9018,4.9018,4.9018,4.9018,4.9018,4.9018,4.9018,4.9018,4.9018,4.9018,4.9018,4.9018,4.9018,4.9018,0.0,0.0,0.0,0.0,0.0,0.0,0.0,0.0,0.0,0.0,0.0,0.0,0.0,0.0,0.0,0.0,0.0,0.0,0.0,0.0,0.0,0.0,0.0,0.0,0.0,4.9918,5.0011,5.0011,5.0011,5.0114,5.0355,5.039,5.0493,5.0735,5.0735,5.0976,5.1459,5.1434,5.158,5.2066,5.1819,5.1694,5.1694,5.1807,5.1879,5.1911,5.2183,5.2255,5.2158,5.2158,5.1924,5.1589,5.1589,5.1454,5.1185,5.1185,5.0642,4.9763,4.9763,4.9763,4.9763,4.9763,4.9763,4.9763,4.9763,4.9763,4.9763,4.9763,4.9763,4.9763,4.9763,5.0067,5.0473,5.0473,5.0845,5.1185,5.1185,5.1185,5.1185,5.1185,5.1185,5.1185,5.1185,5.1185,5.1185,5.1185,5.0405,4.9763,4.9763,4.9763,4.9763,4.9763,4.9763,4.9763,4.9763,4.9763,4.9763,4.9763,4.9763,4.9763,4.9763,4.9763,4.9661,4.939,4.9357,4.9255,4.9018,4.9018,4.9018,4.9018,4.9018,4.9018,4.9018,0.0,0.0,0.0,0.0,0.0,0.0,0.0,0.0,0.0,0.0,0.0,0.0,0.0,0.0,0.0,0.0,0.0,0.0,0.0,0.0,0.0,0.0,0.0,5.0011,5.0011,5.0011,5.0045,5.0045,5.0321,5.105,5.1149,5.1459,5.2119,5.2188,5.2188,5.2222,5.21,5.2135,5.2257,5.195,5.1762,5.1762,5.2354,5.2531,5.2334,5.3145,5.3518,5.3518,5.3518,5.3078,5.2334,5.2334,5.1928,5.1252,5.1252,5.1252,5.1252,5.1219,5.1185,5.1185,5.1185,5.1185,5.1185,5.1185,5.1185,5.1185,5.1185,5.1185,5.1185,5.1185,5.1219,5.1219,5.1219,5.1219,5.1252,5.1252,5.1252,5.1252,5.1252,5.1252,5.1252,5.1252,5.1252,5.1252,5.1252,5.1252,5.1285,5.1217,5.1185,5.1185,5.1185,5.1185,0.0,5.1185,5.1185,5.1185,5.1185,5.1185,5.1185,5.1185,5.1185,5.0913,5.0168,5.0135,4.9796,4.912,4.9086,4.9052,4.9052,4.9018,4.9018,4.9018,0.0,0.0,0.0,0.0,0.0,0.0,0.0,0.0,0.0,0.0,0.0,0.0,0.0,0.0,0.0,0.0,0.0,0.0,0.0,0.0,0.0,5.2567,5.1843,5.0037,4.9889,5.0218,5.0735,5.0804,5.1055,5.1687,5.1817,5.1951,5.2066,5.2157,5.2429,5.3046,5.3049,5.3197,5.3619,5.3462,5.3365,5.3365,5.331,5.3279,5.3345,5.3449,5.3518,5.3518,5.3518,5.3382,5.3179,5.3179,5.3078,5.2875,5.2875,5.2875,5.2773,5.1657,5.1185,5.1185,5.1185,5.1185,5.1185,5.1185,5.1185,5.1185,5.1185,5.1185,5.1185,5.1185,5.1589,5.1995,5.1995,5.2435,5.2875,5.2875,5.2875,5.2875,5.2875,5.2875,5.2875,5.2875,5.2875,5.2875,5.2875,5.2875,5.2536,5.1388,5.1185,5.1185,5.1185,5.1185,5.1185,5.1185,5.1185,5.1185,5.1185,5.1185,5.1185,5.1185,5.1185,5.1116,5.0913,5.0913,5.0811,5.0608,5.0608,5.0338,4.9796,4.9255,4.9018,0.0,0.0,0.0,0.0,0.0,0.0,0.0,0.0,0.0,0.0,0.0,0.0,0.0,0.0,0.0,0.0,0.0,0.0,0.0,0.0,0.0,0.0,5.3115,5.2394,5.0961,5.0848,5.105,5.1438,5.1507,5.1722,5.2417,5.2485,5.2588,5.2994,5.306,5.3232,5.3714,5.3685,5.3825,5.4173,5.4078,5.398,5.398,5.3817,5.3685,5.3618,5.3517,5.3518,5.3518,5.3518,5.3518,5.3518,5.3518,5.3518,5.3518,5.3518,5.3518,5.3416,0.0,0.0,0.0,0.0,5.2164,5.2164,5.2164,5.2164,5.2164,5.2164,5.2164,5.2164,5.2164,5.2469,5.2807,5.2807,5.3145,5.3518,5.3518,5.3518,5.3518,5.3518,5.3518,5.3518,5.3518,5.3518,5.3518,5.3518,5.3518,0.0,5.2334,5.2164,5.2164,5.2164,5.2164,5.2164,5.2164,5.2164,5.2164,5.2164,5.2164,5.2032,5.1699,5.1665,0.0,0.0,0.0,5.116,5.1185,5.0858,0.0,0.0,0.0,4.942,4.942,4.942,0.0,0.0,4.8974,4.9018,0.0,0.0,0.0,0.0,0.0,0.0,0.0,0.0,0.0,0.0,0.0,0.0,0.0,0.0,0.0,0.0,5.2942,5.2429,5.2398,5.2463,5.2398,5.2173,5.2111,5.2355,5.3141,5.3051,5.3357,5.4365,5.4303,5.4207,5.4239,5.411,0.0,0.0,0.0,5.4117,5.4117,5.4153,5.4056,5.3788,5.3754,5.3721,5.3619,5.3619,5.3585,5.3518,5.3518,5.3518,5.3518,5.3518,5.3518,5.3518,5.3518,5.3518,5.3518,5.3518,5.3518,5.3518,5.3518,0.0,0.0,5.3518,5.3518,5.3518,5.3518,5.3518,5.3518,5.3518,5.3518,5.3518,5.3518,5.3518,5.3518,5.3518,5.3416,5.3382,5.3484,5.3416,5.3382,5.3484,5.3518,5.3518,5.3518,5.3518,5.3518,5.3518,5.3518,5.3518,5.3518,5.3518,5.3518,5.3518,5.3416,0.0,5.2343,5.2236,5.1902,5.1278,5.1245,5.1224,5.1193,5.0424,5.0357,5.1156,5.0325,4.9883,4.9986,4.9883,4.9501,4.8792,4.8928,4.8971,0.0,0.0,0.0,0.0,0.0,0.0,0.0,0.0,0.0,0.0,0.0,0.0,0.0,0.0,0.0,5.4287,5.4184,5.3983,5.3825,5.3952,5.3808,5.3222,5.2835,5.2953,5.3738,5.3871,5.3971,5.411,5.4175,5.4271,5.4431,5.4271,5.4143,5.4045,5.4595,5.4836,5.4668,5.5144,5.5415,5.5518,5.5346,0.0,5.4397,5.4397,5.4059,5.3518,5.3518,5.3518,5.3518,5.3518,5.3518,5.3518,5.3518,5.3518,5.3518,5.3518,5.3518,5.3518,5.3518,5.3518,5.3518,5.3518,5.3518,5.3518,5.3518,5.3518,0.0,5.3518,5.3518,5.3518,5.3518,5.3518,5.3518,5.3518,5.3007,5.2729,5.3348,5.2972,5.2729,5.3348,5.3518,5.3518,5.3518,5.3518,5.3518,5.3518,5.3518,5.3518,5.3518,5.3518,5.3518,5.3518,5.2903,5.2449,5.2307,5.1733,5.1557,5.204,5.2075,5.1795,5.1161,5.0322,5.0317,5.1122,4.9761,4.936,4.9986,4.936,4.8936,4.8792,4.8819,4.883,0.0,0.0,0.0,0.0,0.0,0.0,0.0,0.0,0.0,0.0,0.0,5.408,5.4425,0.0,5.4463,5.4367,5.4431,5.4431,5.4239,5.4239,5.407,5.3597,5.3528,5.3633,5.3979,5.398,5.415,5.4658,5.4658,5.483,5.5207,5.5207,5.5141,5.5008,5.5383,5.5485,5.5417,5.5687,5.5856,5.5856,5.5751,5.5513,5.5141,5.5141,5.4972,5.46,5.46,5.46,5.4566,5.4194,5.4059,5.4025,5.3653,5.3518,5.3518,5.3518,5.3518,5.3518,5.3518,5.3518,5.3518,5.3518,5.3518,5.3518,5.3518,5.3518,5.3518,5.3518,5.3212,5.2903,5.2903,5.2903,5.2903,5.2903,5.259,5.2513,5.3233,5.2765,5.2393,5.3155,5.3654,5.3939,5.3939,5.3939,5.3846,5.3551,5.3518,5.3348,5.2938,5.2903,5.2764,5.231,5.1951,5.1549,5.114,5.0729,5.0653,5.1065,5.1475,5.1549,5.1107,5.0338,5.0295,5.107,4.9973,4.9555,4.9964,4.9555,4.9139,4.8716,4.8677,4.872,0.0,0.0,0.0,0.0,0.0,0.0,0.0,5.1119,5.2019,5.236,5.3394,5.4259,5.4431,5.4431,5.4367,5.4239,5.4303,5.4335,5.4175,5.4247,5.4187,5.3888,5.412,5.4251,5.4153,5.4157,5.4564,5.5479,5.5413,5.5552,5.6064,5.6133,5.6099,5.603,5.6131,5.6233,5.6233,5.6334,5.6297,5.6156,5.6156,5.6055,5.5919,5.5919,5.5852,5.5681,5.5681,5.5681,5.5683,5.5074,5.4803,5.4735,5.416,5.3923,5.389,5.3619,5.3518,5.3518,5.3518,5.3382,5.328,5.345,5.328,5.3076,5.3382,5.3382,5.3314,5.3653,5.3104,5.2539,5.2672,5.2561,5.2452,5.2452,5.2342,5.2433,5.314,5.2639,5.2262,5.296,5.3672,5.4128,5.4128,5.4128,5.4063,5.3715,5.3651,5.3373,5.2561,5.2597,5.2452,5.1829,5.1453,5.0916,5.0119,5.0199,5.0176,4.985,5.0607,5.0934,5.0615,4.9986,5.0026,5.0843,5.0033,4.971,4.9908,4.971,4.93,4.8604,4.8604,4.8675,4.9982,4.9982,5.0011,5.0011,5.0011,5.0183,0.0,5.0961,5.1382,5.2946,5.3232,5.3447,5.4102,5.4239,5.4239,5.4207,5.411,5.4045,5.4013,5.476,5.5072,5.4567,5.4533,5.4568,5.4703,5.5417,5.5962,5.6099,5.6099,5.6167,5.6438,5.6201,5.6098,5.6167,5.6677,5.6981,5.6981,5.7448,5.7681,5.7645,5.7645,5.7306,5.6697,5.6697,5.6325,5.5681,5.5681,5.5681,5.5681,5.5615,5.5581,5.5581,5.5513,5.548,5.531,5.3991,5.3518,5.3518,5.3518,5.3007,5.2555,5.328,5.252,5.1627,5.3076,5.2972,5.2688,5.409,5.3841,5.3331,5.3993,5.3596,5.2987,5.2987,5.2436,5.2148,5.2928,5.2485,5.2154,5.2939,5.3175,5.3253,5.3253,5.3253,5.3492,5.4192,5.4302,5.3973,5.3104,5.371,5.4121,5.4047,5.2674,5.1486,5.0665,5.1278,5.111,4.98,5.0492,5.0299,4.8934,4.8811,4.9147,5.0026,4.9219,4.9138,4.9908,4.9138,4.8687,4.8604,4.8604,4.8625,5.0011,5.0011,5.0011,5.0011,4.9889,5.0066,5.0912,5.1305,5.1863,5.3153,5.3579,5.383,5.4139,5.4143,5.4045,5.3948,5.3948,5.4151,5.4561,5.487,5.5178,5.5519,5.5755,5.5786,5.5519,5.586,5.6269,5.6677,5.6711,5.6951,5.743,5.7498,5.7428,5.7359,5.7594,5.7693,5.7586,5.7782,5.7881,5.7881,5.7881,5.7712,5.7442,5.7442,5.7273,5.6968,5.7075,5.7109,5.6968,5.6635,5.6501,5.6467,5.5921,5.5856,5.5962,5.5075,5.4803,5.4803,5.4803,5.4561,5.4317,5.4665,5.4317,5.382,5.3964,5.3784,5.3526,5.3676,5.3139,5.2545,5.2875,5.2693,5.2412,5.2412,5.2127,5.209,5.284,5.2345,5.1993,5.2753,5.3291,5.3592,5.3592,5.3592,5.3716,5.4083,5.3883,5.3331,5.2533,5.2733,5.2773,5.229,5.1623,5.1095,5.074,5.101,5.0929,5.034,5.0576,5.0494,4.9835,4.9835,4.9789,4.976,4.9429,4.9202,4.9138,4.8769,4.8604,4.8604,4.8604,4.8604,4.9982,4.9982,4.9918,4.9918,4.9997,5.0312,5.1163,5.1829,5.2492,5.3404,5.3862,5.4078,5.4078,5.398,5.3882,5.3717,5.3954,5.436,5.4939,5.5281,5.5689,5.6303,5.6843,5.7008,5.6536,5.6572,5.6845,5.7355,5.7389,5.7627,5.8171,5.8312,5.8278,5.8171,5.8169,5.8063,5.7991,5.7918,5.7918,5.7991,5.7918,5.7918,5.7954,5.7918,5.7918,5.7991,5.8169,5.8169,5.8029,5.7662,5.7424,5.7355,5.6705,5.6642,5.6747,5.622,5.5772,5.5435,5.5364,5.5043,5.4682,5.4935,5.4682,5.4311,5.4091,5.3902,5.3667,5.3473,5.282,5.2229,5.2418,5.2314,5.2103,5.2103,5.2103,5.226,5.2762,5.2368,5.2144,5.2606,5.3201,5.362,5.362,5.362,5.362,5.362,5.3281,5.2781,5.2188,5.2356,5.2146,5.1339,5.1481,5.1525,5.1295,5.1251,5.1159,5.0974,5.0974,5.0882,5.0697,5.0697,5.0451,4.9989,4.9959,4.9712,4.9189,4.9189,4.9189,4.9189,4.9189,4.9189,4.9952,4.986,4.9708,4.9708,5.041,5.1227,5.1829,5.2398,5.3022,5.3969,5.3913,5.3717,5.3717,5.3717,5.3717,5.3717,5.4194,5.4669,5.4805,5.6097,5.6978,5.6801,5.7588,5.8065,5.785,5.7995,5.8137,5.8137,5.8171,5.8171,5.8171,5.8027,5.7991,5.8171,5.7991,5.7991,5.8205,5.7991,5.7991,5.8205,5.7991,5.7991,5.8171,5.7991,5.7991,5.8171,5.8171,5.8312,5.849,5.8456,5.835,5.8173,5.8351,5.8315,5.8031,5.7156,5.5954,5.4685,5.4535,5.3402,5.2127,5.2932,5.2127,5.1138,5.2693,5.2613,5.2286,5.3769,5.3556,5.3007,5.3755,5.3328,5.2681,5.2681,5.2681,5.2681,5.2712,5.2667,5.2698,5.2698,5.2698,5.2743,5.2743,5.2743,5.2743,5.2743,5.2712,5.2681,5.2681,5.3415,5.3601,5.2726,5.3415,5.3558,5.2726,5.2637,5.2359,5.1713,5.1682,5.1374,5.0728,5.0697,5.0697,5.0667,5.0667,5.0667,5.0636,5.0636,5.0636,5.0636,5.0636,5.0636,4.9767,5.0026,5.0283,5.0283,5.0925,5.1679,5.2367,5.268,5.309,5.3874,5.3882,5.3717,5.3717,5.3617,5.3584,5.3584,5.4127,5.4838,5.5519,5.6332,5.7109,5.7656,5.7891,5.7954,5.7918,5.8063,5.8135,5.7991,5.8099,5.8171,5.8171,5.8169,5.8099,5.8171,5.8135,5.8063,5.7991,5.7918,5.7918,5.7991,5.7918,5.7991,5.8171,5.7991,5.8063,5.8419,5.8419,5.8384,5.8277,5.7811,5.752,5.726,5.6619,5.6503,5.6586,5.6041,5.523,5.4487,5.4879,5.464,5.4195,5.4479,5.4195,5.3742,5.37,5.3492,5.326,5.3244,5.2959,5.2834,5.3095,5.2922,5.2698,5.2698,5.2698,5.2698,5.2698,5.2698,5.2698,5.2698,5.2698,5.2852,5.3314,5.3375,5.3529,5.3945,5.3283,5.2698,5.2698,5.2966,5.3024,5.2743,5.2935,5.3024,5.2698,5.2698,5.2606,5.239,5.2359,5.2267,5.2052,5.2021,5.1836,5.1374,5.1374,5.1128,5.0697,5.0697,5.0697,5.0697,5.0697,5.0697,4.9962,5.0283,5.0636,5.0847,5.1589,5.2301,5.2652,5.2961,5.3302,5.378,5.375,5.3617,5.3617,5.3551,5.3518,5.3518,5.4329,5.5176,5.5823,5.6633,5.741,5.8029,5.7954,5.7881,5.7881,5.8063,5.8099,5.7918,5.8027,5.8063,5.8063,5.8063,5.8099,5.8171,5.8099,5.8063,5.7991,5.7918,5.7881,5.7881,5.7954,5.8027,5.8063,5.7954,5.8063,5.8384,5.8063,5.7918,5.7811,5.7372,5.7072,5.6844,5.6231,5.608,5.6159,5.528,5.4662,5.4369,5.4704,5.4653,5.4359,5.4359,5.4359,5.4264,5.3707,5.3565,5.3434,5.2877,5.2698,5.2698,5.2698,5.2698,5.276,5.3006,5.3067,5.3129,5.3375,5.3437,5.3437,5.3437,5.3437,5.356,5.3976,5.4037,5.4191,5.4621,5.3991,5.3437,5.3437,5.3437,5.3437,5.3437,5.3437,5.3437,5.3437,5.3437,5.3345,5.3098,5.3067,5.2975,5.2729,5.2698,5.2513,5.2082,5.2082,5.1867,5.1405,5.1405,5.1405,5.1405,5.1405,5.1405,5.0397,5.0636,5.081,5.1403,5.234,5.3046,5.2728,5.3174,5.3717,5.3684,5.3584,5.3518,5.3518,5.3518,5.3518,5.3518,5.4735,5.5681,5.5681,5.6968,5.7881,5.7881,5.7881,5.7881,5.7881,5.8063,5.8133,5.7918,5.7918,5.7918,5.7881,5.7952,5.8058,5.8239,5.8128,5.8126,5.8307,5.8126,5.7983,5.7949,5.8131,5.8131,5.7918,5.7881,5.7991,5.8171,5.7297,5.7072,5.726,5.7147,5.6996,5.6844,5.6925,5.6849,5.6465,5.4861,5.4264,5.4264,5.4114,5.3452,5.2698,5.2698,5.2698,5.2698,5.2698,5.2729,5.276,5.276,5.279,5.2821,5.2821,5.2821,5.2975,5.3622,5.3775,5.396,5.4529,5.4683,5.4683,5.4683,5.4714,5.4745,5.4745,5.4775,5.4806,5.4806,5.4806,5.4775,5.4683,5.4683,5.4683,5.4683,5.4683,5.4683,5.4683,5.4683,5.4406,5.3806,5.3775,5.3498,5.2852,5.2821,5.2821,5.2821,5.279,5.276,5.276,5.2729,5.2698,5.2698,5.2698,5.2698,5.0413,5.1136,5.1922,5.2061,5.2835,5.3477,5.3313,5.3482,5.3684,5.3584,5.3517,5.3518,5.3518,5.3518,5.3518,5.3518,5.4735,5.5681,5.5681,5.6968,5.7881,5.7881,5.7881,5.7881,5.7881,5.7954,5.7954,5.7881,5.8027,5.8063,5.7918,5.8535,5.895,5.8987,5.9675,5.9981,5.9837,5.9651,5.9268,5.8727,5.8764,5.8533,5.8099,5.7954,5.8063,5.8419,5.8027,5.7918,5.7848,5.6509,5.5883,5.5563,5.4317,5.3793,5.3801,5.385,5.3992,5.422,5.4629,5.3892,5.2698,5.2698,5.2698,5.2698,5.2698,5.3067,5.3468,5.3468,5.3837,5.416,5.416,5.416,5.4222,5.4375,5.4437,5.4468,5.4652,5.4683,5.4683,5.4683,5.513,5.5438,5.5438,5.5899,5.6238,5.6238,5.6238,5.5869,5.4806,5.4683,5.4683,5.4683,5.4683,5.4683,5.4683,5.4683,5.4621,5.4437,5.4437,5.4345,5.4191,5.416,5.416,5.416,5.3714,5.3468,5.3422,5.2944,5.2698,5.2698,5.2698,5.2698,5.0699,5.1583,5.25,5.2739,5.3279,5.3651,5.3517,5.3551,5.3584,5.3551,5.3518,5.3518,5.3518,5.3518,5.3518,5.3518,5.4735,5.5681,5.5681,5.6968,5.7881,5.7881,5.7881,5.7881,5.7881,5.8186,5.8389,5.8389,5.8499,5.8499,5.8389,5.9285,5.984,5.9916,6.0469,6.0671,6.0449,6.0337,5.9987,5.9471,5.958,5.9488,5.9191,5.9081,5.9154,5.9302,5.8717,5.827,5.7963,5.6953,5.6334,5.5834,5.4913,5.4504,5.4491,5.4479,5.4589,5.4787,5.516,5.4696,5.3909,5.3773,5.3682,5.3591,5.3591,5.3868,5.4129,5.4129,5.4406,5.4683,5.4683,5.4683,5.4745,5.5099,5.5161,5.5253,5.5561,5.5622,5.5622,5.5622,5.593,5.6146,5.6146,5.6532,5.681,5.681,5.681,5.6532,5.5715,5.5622,5.5622,5.5622,5.5622,5.5622,5.5622,5.5622,5.5499,5.5161,5.5161,5.5037,5.4683,5.4683,5.4683,5.4683,5.4314,5.4129,5.4129,5.373,5.3591,5.3591,5.3591,5.3591,5.1216,5.2025,5.287,5.3382,5.3618,5.3651,5.3517,5.3518,5.3518,5.3517,5.3484,5.3484,5.3551,5.3551,5.3518,5.3517,5.4735,5.5681,5.5681,5.6968,5.7881,5.7881,5.7881,5.7915,5.8017,5.8626,5.9066,5.9204,5.9306,5.9306,5.9204,6.0174,6.0839,6.1092,6.1089,6.1015,6.0864,6.0826,6.0646,6.0325,6.0581,6.0622,6.0557,6.0557,6.0449,6.0227,5.9276,5.8485,5.7827,5.7702,5.7322,5.6785,5.6698,5.6611,5.6523,5.5879,5.5669,5.5669,5.5763,5.5794,5.5671,5.5255,5.4916,5.473,5.473,5.4745,5.4806,5.4806,5.4914,5.5007,5.5007,5.5007,5.513,5.5715,5.5838,5.5992,5.6686,5.681,5.681,5.681,5.681,5.681,5.681,5.681,5.681,5.681,5.681,5.681,5.681,5.681,5.681,5.681,5.681,5.681,5.681,5.681,5.6532,5.5869,5.5838,5.5592,5.4991,5.5007,5.5007,5.5007,5.4868,5.4806,5.4806,5.4714,5.4683,5.4683,5.4683,5.4683,5.2063,5.2804,5.3514,5.3484,5.3618,5.3651,5.3517,5.3518,5.3517,5.3651,5.3584,5.3584,5.3883,5.3685,5.3517,5.3651,5.4804,5.5681,5.5681,5.6968,5.7881,5.7881,5.7881,5.8118,5.8761,5.893,5.9306,6.0102,6.0785,6.0853,6.017,6.1257,6.2272,6.3076,6.2778,6.2665,6.2812,6.2472,6.2089,6.1589,6.1627,6.1323,6.0745,6.0745,6.0303,5.9582,5.9354,5.88,5.7985,5.727,5.6883,5.6742,5.6023,5.574,5.5757,5.6184,5.6495,5.6772,5.7291,5.734,5.6918,5.5565,5.5055,5.4962,5.4776,5.5099,5.553,5.553,5.5961,5.6471,5.6471,5.6471,5.6502,5.6594,5.6625,5.6656,5.6779,5.681,5.681,5.681,5.681,5.681,5.681,5.681,5.681,5.681,5.681,5.681,5.681,5.681,5.681,5.681,5.681,5.681,5.681,5.681,5.6748,5.6625,5.6625,5.6563,5.6471,5.6471,5.6471,5.6471,5.5838,5.553,5.553,5.4976,5.4683,5.4683,5.4683,5.4683,5.23,5.2941,5.3584,5.3551,5.3551,5.3584,5.3484,5.3518,5.3517,5.3684,5.3584,5.3584,5.3915,5.3718,5.3551,5.3684,5.4839,5.5681,5.5681,5.6968,5.7881,5.7881,5.7881,5.8186,5.893,5.9445,6.0099,6.0959,6.193,6.2074,6.1211,6.2193,6.3036,6.3565,6.3414,6.3302,6.3302,6.3114,6.2829,6.2453,6.26,6.2432,6.209,6.1643,6.1187,6.0723,6.0163,5.9464,5.8659,5.8268,5.7904,5.7547,5.7127,5.6975,5.7007,5.7321,5.7539,5.7663,5.787,5.7825,5.7512,5.6482,5.606,5.5966,5.5824,5.5992,5.6238,5.6238,5.6532,5.681,5.681,5.681,5.681,5.681,5.681,5.681,5.681,5.681,5.681,5.681,5.681,5.681,5.681,5.681,5.681,5.681,5.681,5.681,5.681,5.681,5.681,5.681,5.681,5.681,5.681,5.681,5.681,5.681,5.681,5.681,5.681,5.681,5.681,5.681,5.6471,5.6238,5.6238,5.593,5.5776,5.5776,5.5776,5.5776,5.257,5.3077,5.3584,5.3551,5.3551,5.3584,5.3518,5.3518,5.3551,5.3717,5.3618,5.3618,5.4013,5.3784,5.3551,5.375,5.4873,5.5681,5.5681,5.6968,5.7881,5.7881,5.7881,5.8254,5.9167,5.9963,6.086,6.1817,6.2809,6.3062,6.2295,6.2956,6.3452,6.36,6.3563,6.3489,6.3377,6.3302,6.3152,6.2851,6.3004,6.2966,6.274,6.2116,6.1642,6.1439,6.0567,5.9783,5.9107,5.9107,5.8746,5.8321,5.8321,5.8321,5.8321,5.8321,5.8321,5.8274,5.8089,5.7918,5.7731,5.7322,5.7019,5.6858,5.681,5.681,5.681,5.681,5.681,5.681,5.681,5.681,5.681,5.681,5.681,5.681,5.681,5.681,5.681,5.681,5.681,5.681,5.681,5.681,5.681,5.681,5.681,5.6871,5.7025,5.7025,5.7087,5.7241,5.6994,5.681,5.681,5.681,5.681,5.681,5.681,5.681,5.681,5.681,5.681,5.681,5.681,5.681,5.681,5.681,5.681,5.681,5.681,5.681,5.3382,5.365,5.3849,5.3551,5.3718,5.3849,5.3551,5.3518,5.3584,5.3882,5.3718,5.3685,5.437,5.3949,5.3584,5.3915,5.4941,5.5681,5.5681,5.6968,5.7881,5.7881,5.7881,5.8457,5.9844,6.0303,6.1136,6.2757,6.3305,6.3528,6.3459,6.3528,6.36,6.36,6.3414,6.3414,6.3563,6.3377,6.3004,6.2358,6.2397,6.1929,6.1127,6.1044,6.0544,5.9805,5.9674,5.9177,5.8413,5.8413,5.8367,5.8321,5.8321,5.8321,5.8321,5.8321,5.8321,5.8321,5.8274,5.7918,5.7543,5.7495,5.7306,5.7067,5.6858,5.681,5.681,5.681,5.681,5.681,5.681,5.681,5.681,5.681,5.681,5.681,5.681,5.681,5.681,5.681,5.681,5.681,5.681,5.681,5.681,5.681,5.681,5.7025,5.7641,5.7734,5.7949,5.8516,5.7549,5.681,5.681,5.681,5.681,5.681,5.681,5.681,5.681,5.681,5.681,5.681,5.681,5.681,5.681,5.681,5.681,5.681,5.681,5.681,5.3518,5.3584,5.3685,5.3617,5.3717,5.3816,5.3783,5.3718,5.3717,5.4045,5.3784,5.3651,5.4207,5.3948,5.3651,0.0,0.0,0.0,5.5858,5.6773,5.7588,5.8029,5.7954,5.8564,6.0201,6.0523,6.1431,6.3237,6.3007,6.3045,6.3563,6.36,6.36,6.36,6.3526,6.3526,6.36,6.2969,6.2552,6.2318,6.173,6.125,6.0879,6.0332,5.9935,5.9543,5.9075,5.861,5.8321,5.8321,5.8321,5.8321,5.8321,5.8321,5.8321,5.8321,5.8321,5.8274,5.7918,5.7684,5.7448,5.7163,5.7019,5.6875,5.681,5.681,5.681,5.681,5.681,5.681,5.681,5.681,5.681,5.681,5.681,5.681,5.681,5.681,5.681,5.681,5.7148,5.7426,5.7426,5.7765,5.8011,5.8011,5.8011,5.8134,5.8381,5.8362,5.8485,5.8762,5.83,5.7857,5.7457,5.7426,5.7241,5.684,5.681,5.681,5.681,5.681,5.681,5.681,5.681,5.681,5.681,5.681,5.681,5.681,5.681,5.681,5.3551,5.3584,5.3651,5.3617,5.375,5.3882,5.3915,5.3849,5.3882,5.4143,5.3916,5.3784,5.4207,5.4013,5.3816,0.0,0.0,5.5314,5.5962,5.6642,5.739,5.8174,5.8099,5.8637,6.0313,6.0857,6.1654,6.309,6.2397,6.2127,6.2745,6.2783,6.3045,6.36,6.36,6.3489,6.323,6.2591,6.2009,6.1487,6.0837,6.0374,6.0108,5.9487,5.9222,5.9177,5.8564,5.8321,5.8321,5.8321,5.8321,5.8321,5.8321,5.8321,5.8321,5.8321,5.8274,5.8136,5.7731,5.7543,5.7353,5.6971,5.6858,5.681,5.681,5.681,5.681,5.681,5.681,5.681,5.681,5.681,5.681,5.681,5.6964,5.7118,5.7118,5.7272,5.7395,5.7395,5.7795,5.8134,5.8134,5.8454,5.8793,5.8793,5.8793,5.8854,5.907,5.907,5.9162,5.9347,5.9378,5.9008,5.8146,5.8134,5.7869,5.7426,5.7395,5.7395,5.7395,5.7395,5.7395,5.7395,5.721,5.7118,5.7118,5.6902,5.681,5.681,5.681,5.681,5.3717,5.3849,5.3915,5.3584,5.385,5.411,5.3783,5.3849,5.4045,5.4175,5.4078,5.4078,5.4431,5.4207,5.4045,5.4175,5.4728,0.0,5.6065,5.6711,5.746,5.8388,5.8348,5.8783,6.0279,6.12,6.1883,6.2279,6.1413,6.092,6.092,6.092,6.177,6.3563,6.36,6.3193,6.2318,6.2318,6.1406,5.9631,5.9587,5.9133,5.8321,5.8321,5.8321,5.8321,5.8321,5.8321,5.8321,5.8321,5.8321,5.8321,5.8321,5.8321,5.8321,5.8321,5.8136,5.7871,5.7871,5.7543,5.7084,5.7084,5.6971,5.681,5.681,5.681,5.681,5.681,5.681,5.681,5.681,5.681,5.681,5.681,5.7333,5.7795,5.7795,5.83,5.8762,5.8762,5.8762,5.8762,5.8762,5.8793,5.8793,5.8793,5.8793,5.9008,5.9686,5.9778,6.0024,6.0701,6.0763,6.024,5.8885,5.8762,5.8762,5.8762,5.8762,5.8762,5.8762,5.8762,5.8762,5.8762,5.8165,5.7795,5.7795,5.7148,5.681,5.681,5.681,5.681,5.3915,5.3948,5.398,5.398,5.4078,5.4207,5.4239,5.4175,5.4175,5.4367,5.4175,5.4045,5.4271,5.4207,5.411,5.4078,5.4413,5.5096,5.6267,5.6096,5.6601,5.8494,5.9448,5.9834,5.9708,6.0458,6.1078,6.1291,6.0501,6.0247,6.0879,6.092,6.1454,6.2668,6.2088,6.1929,6.2318,6.1044,6.0194,5.9587,5.8985,5.8564,5.8321,5.8321,5.8321,5.8321,5.8321,5.8321,5.8321,5.8321,5.8321,5.8321,5.8321,5.8321,5.8321,5.8321,5.8136,5.7871,5.7684,5.7401,5.7115,5.6923,5.6858,5.681,5.681,5.681,5.681,5.681,5.681,5.681,5.681,5.7148,5.7487,5.7487,5.8011,5.8454,5.8454,5.8639,5.8793,5.8793,5.9162,5.947,5.947,5.9839,6.0147,6.0147,6.0147,6.024,6.0455,6.0486,6.0547,6.0763,6.0794,6.0424,5.9562,5.947,5.9285,5.8824,5.8793,5.8793,5.8793,5.8793,5.8793,5.8793,5.8577,5.8454,5.8454,5.8239,5.79,5.7487,5.7025,5.681,0.0,5.4078,5.4078,5.411,5.4207,5.4335,5.4367,5.4335,5.4335,5.4463,5.4335,5.4207,5.4303,5.4303,5.4271,5.4207,5.4335,5.4982,5.6299,5.5823,5.5941,5.7642,5.9017,5.9665,5.9197,5.972,6.0194,6.0374,5.9587,5.9355,5.9892,5.9935,6.0365,6.125,6.1044,6.1003,6.1283,6.0194,5.9443,5.9088,5.8564,5.8321,5.8321,5.8321,5.8321,5.8321,5.8321,5.8321,0.0,5.8321,5.8321,5.8321,5.8321,5.8321,5.8321,5.8321,5.8089,5.7731,5.7543,5.7258,5.6971,5.6858,5.681,5.681,5.681,5.681,5.681,5.681,5.6994,5.7179,5.7179,5.7703,5.8196,5.8196,5.867,5.9162,5.9162,5.9378,5.9532,5.9532,5.987,6.0178,6.0178,6.0517,6.0794,6.0794,6.0794,6.0794,6.0794,6.0794,6.0794,6.0794,6.0794,6.064,6.0209,6.0178,5.9993,5.9562,5.9532,5.9532,5.9532,5.9532,5.9532,5.9532,5.9285,5.9162,5.9162,5.8916,5.8577,5.8146,5.7518,5.7179,0.0,0.0,0.0,0.0,5.4271,5.4431,5.4271,5.4367,0.0,5.4494,5.4494,5.4494,5.4494,5.4494,5.4494,5.4494,5.4494,5.4982,5.6332,5.5925,5.5643,5.6171,5.7442,5.8419,5.8646,5.9003,5.9278,5.9455,5.876,5.8321,5.8321,5.8321,5.8701,5.9487,6.0289,6.0332,5.9587,5.9575,5.912,5.8321,5.8321,5.8321,5.8321,5.8321,5.8321,5.8321,5.8321,5.8321,5.8321,5.8321,5.8321,5.8321,5.8321,5.8321,5.8321,5.8321,5.7965,5.7495,5.7495,5.7163,5.681,5.681,5.681,5.681,5.681,5.681,5.681,5.6871,5.7333,5.7826,5.7888,5.8381,5.8854,5.8854,5.9378,5.987,5.987,6.0363,6.0794,6.0794,6.0794,6.0794,6.0794,6.0794,6.0794,6.0794,6.0794,6.0794,6.0794,6.0794,6.0794,6.0794,6.0794,6.0794,6.0794,6.0794,6.0794,6.0794,6.0794,6.0794,6.0794,6.0794,6.0794,6.0794,6.0178,5.987,5.987,5.9193,5.8854,5.8824,5.8146,5.7888,0.0,0.0,0.0,0.0,5.4431,5.4463,0.0,5.4463,5.4494,5.4494,5.4494,5.4494,5.4494,5.4494,5.4494,5.4494,5.4494,5.5014,5.6498,5.7018,5.6746,5.5547,5.6734,5.7609,5.7534,5.8109,5.8574,5.8624,5.8413,5.8321,5.8321,5.8321,5.8413,5.861,5.8805,5.9133,5.9619,5.894,5.8473,5.8321,5.8321,5.8321,5.8321,5.8321,5.8321,5.8321,5.8321,5.8321,5.8321,5.8321,5.8321,5.8321,5.8321,5.8321,5.8321,5.8321,5.7965,5.7495,5.7495,5.7163,5.681,5.681,5.681,5.681,5.681,5.681,5.6933,5.7426,5.7703,5.7949,5.8423,5.9039,5.9562,5.9562,6.0086,6.0547,6.0547,6.0701,6.0794,6.0794,6.0794,6.0794,6.0794,6.0794,6.0794,6.0794,6.0794,6.0794,6.0794,6.0794,6.0794,6.0794,6.0794,6.0794,6.0794,6.0794,6.0794,6.0794,6.0794,6.0794,6.0794,6.0794,6.0794,6.0794,6.064,6.0547,6.0547,5.987,5.9562,5.9532,5.8854,5.8547,5.4494,5.4494,5.4494,5.4494,5.4494,5.4494,5.4494,0.0,5.4494,5.4494,5.4494,5.4494,5.4494,5.4494,5.4494,5.4494,5.4482,5.4737,5.5494,5.6486,5.6498,5.4842,5.5661,5.6411,5.6634,5.7368,5.7968,5.8257,5.8321,5.8321,5.8321,5.8321,5.8321,5.8321,5.8321,5.8518,5.8985,5.8518,5.8321,5.8321,5.8321,5.8321,5.8321,5.8321,5.8321,5.8321,5.8321,5.8228,5.8136,5.8274,5.8228,5.8136,5.8136,5.8182,5.8274,5.8011,5.7731,5.7495,5.7353,5.7067,5.681,5.681,5.681,5.681,5.681,5.7025,5.7364,5.7734,5.8258,5.8793,5.9131,5.9747,6.024,6.024,6.0547,6.0794,6.0794,6.0794,6.0794,6.0794,6.0794,6.0794,6.0794,6.0794,6.0794,6.0794,6.0794,6.0794,6.0794,6.0794,6.0794,6.0794,6.0794,6.0794,6.0794,6.0794,6.0794,6.0794,6.0794,6.0794,6.0794,6.0794,6.0794,6.0794,6.0794,6.0794,6.0794,6.0424,6.024,6.024,5.9562,5.9255,5.4494,5.4494,5.4494,5.4494,5.4494,5.4494,5.4494,0.0,5.4494,5.4494,5.4494,5.4494,5.4494,5.4494,5.4494,5.4494,5.4531,5.4472,5.424,5.5332,5.5628,5.4242,5.4609,5.5241,5.5967,5.6568,5.72,5.7895,5.8053,5.8116,5.8116,5.8257,5.8321,5.8321,5.8321,5.8321,5.8321,5.8321,5.8321,5.8321,5.8321,5.8321,5.8321,5.8321,5.8321,5.8321,5.8274,5.8136,5.7918,5.8136,5.8011,5.7825,5.7825,5.7965,5.8136,5.7684,5.7495,5.737,5.7132,5.6923,5.681,5.681,5.681,5.684,5.6933,5.7426,5.798,5.8104,5.8916,5.9809,5.9932,6.0363,6.0794,6.0794,6.0794,6.0794,6.0794,6.0794,6.0794,6.0794,6.0794,6.0794,6.0794,6.0794,6.0794,6.0794,6.0794,6.0794,6.0794,6.0794,6.0794,6.0794,6.0794,6.0794,6.0794,6.0794,6.0794,6.0794,6.0794,6.0794,6.0794,6.0794,6.0794,6.0794,6.0794,6.0794,6.0794,6.0794,6.0794,6.0794,6.0209,5.9932,5.4494,5.4494,5.4494,5.4494,5.4494,5.4494,5.4494,5.4494,5.4494,5.4494,5.4494,5.4494,5.4494,5.4494,5.4494,5.4494,5.494,5.5077,5.4305,5.4899,5.514,5.42,5.4198,5.4514,5.5197,5.5355,5.5746,5.6441,5.7042,5.739,5.739,5.7958,5.8321,5.8321,5.8321,5.8321,5.8321,5.8321,5.8321,5.8321,5.8321,5.8321,5.8321,5.8321,5.8321,5.8274,5.8089,5.7918,5.7871,5.7684,5.759,5.759,5.759,5.759,5.7637,5.7543,5.7353,5.7132,5.6923,5.681,5.681,5.681,5.681,5.6933,5.7487,5.8085,5.8731,5.9316,5.9624,5.9932,6.0486,6.0732,6.0794,6.0794,6.0794,6.0794,6.0794,6.0794,6.0794,6.0794,6.0794,6.0794,6.0794,6.0794,6.0794,6.0794,6.0794,6.0794,6.0794,6.0794,6.0794,6.0794,6.0794,6.0794,6.0794,6.0794,6.0794,6.0794,6.0794,6.0794,6.0794,6.0794,6.0794,6.0794,6.0794,6.0794,6.0794,6.0794,6.0794,6.0794,6.0701,6.064,5.4494,5.4494,5.4494,5.4494,5.4494,5.4494,5.4494,5.4494,5.4494,5.4494,5.4494,5.4494,5.4494,5.4494,5.448,5.4397,5.5037,5.5199,5.425,5.4791,5.4985,5.42,5.4103,5.4356,5.5007,5.5102,5.543,5.6125,5.6473,5.6663,5.6663,5.6979,5.7326,5.7674,5.7706,5.7895,5.8321,5.8321,5.8321,5.8321,5.8321,5.8321,5.8321,5.8321,5.8228,5.8089,5.7965,5.7731,5.7495,5.7495,5.7401,5.7275,5.7275,5.7401,5.7495,5.7353,5.7163,5.6923,5.6858,5.681,5.681,5.681,5.7056,5.7426,5.7734,5.8485,5.9378,5.9686,6.0055,6.0393,6.0732,6.0794,6.0794,6.0794,6.0794,6.0794,6.0794,6.0794,6.0794,6.0794,6.0794,6.0794,6.0794,6.0794,6.0794,6.0794,6.0794,6.0794,6.0794,6.0794,6.0794,6.0794,6.0794,6.0794,6.0794,6.0794,6.0794,6.0794,6.0794,6.0794,6.0794,6.0794,6.0794,6.0794,6.0794,6.0794,6.0794,6.0794,6.0794,6.0794,6.0794,6.0794,5.4494,5.4391,5.4287,5.446,5.4494,5.4494,5.4494,5.4494,5.4494,5.4494,5.4494,5.4494,5.4494,5.4494,5.4457,5.4313,5.4834,5.4966,5.4221,5.4633,5.4768,5.4157,5.4103,5.4292,5.483,5.4893,5.5114,5.5651,5.5841,5.5936,5.5936,5.6094,5.6441,5.6947,5.7137,5.7484,5.8022,5.818,5.8321,5.8321,5.8321,5.8321,5.8321,5.8321,5.8182,5.7965,5.7871,5.759,5.718,5.7306,5.7211,5.7019,5.7019,5.7163,5.7306,5.7115,5.6923,5.681,5.681,5.681,5.681,5.681,5.7272,5.7857,5.8011,5.8854,5.9809,5.9993,6.0393,6.0794,6.0794,6.0794,6.0794,6.0794,6.0794,6.0794,6.0794,6.0794,6.0794,6.0794,6.0794,6.0794,6.0794,6.0794,6.0794,6.0794,6.0794,6.0794,6.0794,6.0794,6.0794,6.0794,6.0794,6.0794,6.0794,6.0794,6.0794,6.0794,6.0794,6.0794,6.0794,6.0794,6.0794,6.0794,6.0794,6.0794,6.0794,6.0794,6.0794,6.0794,6.0794,6.0794,5.4494,5.4011,5.3632,5.4356,5.4494,5.4494,5.4494,5.4494,5.4494,5.4494,5.4494,5.4494,5.4494,5.4494,5.4457,5.4313,5.4324,5.4323,5.4137,5.4146,5.4157,5.4103,5.4103,5.4134,5.4166,5.4166,5.4198,5.4261,5.4861,5.5165,5.5165,5.5841,5.622,5.6252,5.6884,5.7263,5.7295,5.7958,5.8321,5.8321,5.8321,5.8321,5.8321,5.8321,5.8274,5.8228,5.7731,5.7495,5.7448,5.7019,5.6858,5.681,5.681,5.6858,5.6858,5.681,5.681,5.681,5.681,5.681,5.681,5.681,5.7272,5.7949,5.8516,5.9224,5.9932,6.0547,6.0763,6.0794,6.0794,6.0794,6.0794,6.0794,6.0794,6.0794,6.0794,6.0794,6.0794,6.0794,6.0794,6.0794,6.0794,6.0794,6.0794,6.0794,6.0794,6.0794,6.0794,6.0794,6.0794,6.0794,6.0794,6.0794,6.0794,6.0794,6.0794,6.0794,6.0794,6.0794,6.0794,6.0794,6.0794,6.0794,6.0794,6.0794,6.0794,6.0794,6.0794,6.0794,6.0794,6.0794,5.3218,5.2873,5.2839,5.3632,5.3839,5.3942,5.4391,5.4494,5.4494,5.4494,5.4494,5.4494,5.4494,5.4494,5.4457,5.4313,5.4287,5.4246,5.4137,5.4103,5.4103,5.4103,5.4103,5.4103,5.4103,5.4103,5.4103,5.4103,5.4324,5.4482,5.4482,5.4735,5.5083,5.5525,5.5734,5.6302,5.72,5.7302,5.7694,5.8321,5.8321,5.8321,5.8321,5.8321,5.8136,5.7778,5.759,5.7353,5.7019,5.6858,5.681,5.681,5.681,5.681,5.681,5.681,5.681,5.681,5.681,5.681,5.6871,5.7303,5.7888,5.8516,5.9193,5.987,6.0455,6.0732,6.0794,6.0794,6.0794,6.0794,6.0794,6.0794,6.0794,6.0794,6.0794,6.0794,6.0794,6.0794,6.0794,6.0794,6.0794,6.0794,6.0794,6.0794,6.0794,6.0794,6.0794,6.0794,6.0794,6.0794,6.0794,6.0794,6.0794,6.0794,6.0794,6.0794,6.0794,6.0794,6.0794,6.0794,6.0794,6.0794,6.0794,6.0794,6.0794,6.0794,6.0794,6.0794,6.0794,6.0794,5.2356,5.2015,5.2084,5.3149,5.3218,5.3287,5.4287,5.4494,5.4494,5.4494,5.4494,5.4494,5.4494,5.4494,5.4457,5.4313,5.4287,5.4246,5.4137,5.4103,5.4103,5.4103,5.4103,5.4103,5.4103,5.4103,5.4103,5.4103,5.4103,5.4103,5.4103,5.4103,5.4324,5.4755,5.4976,5.5544,5.6523,5.6707,5.7132,5.7835,5.7963,5.8136,5.8321,5.8321,5.8058,5.7637,5.7543,5.7258,5.6906,5.681,5.681,5.681,5.681,5.681,5.681,5.681,5.681,5.681,5.681,5.6964,5.721,5.7672,5.8362,5.9193,5.9655,6.027,6.0794,6.0794,6.0794,6.0794,6.0794,6.0794,6.0794,6.0794,6.0794,6.0794,6.0794,6.0794,6.0794,6.0794,6.0794,6.0794,6.0794,6.0794,6.0794,6.0794,6.0794,6.0794,6.0794,6.0794,6.0794,6.0794,6.0794,6.0794,6.0794,6.0794,6.0794,6.0794,6.0794,6.0794,6.0794,6.0794,6.0794,6.0794,6.0794,6.0794,6.0794,6.0794,6.0794,6.0794,6.0794,6.0794,5.2153,5.1636,5.1459,5.3011,5.2804,5.2601,5.4149,5.4494,5.4494,5.4494,5.4494,5.4494,5.4494,5.4463,5.4424,5.4313,5.4287,5.4246,5.4137,5.4103,5.4103,5.4103,5.4103,5.4103,5.4103,5.4103,5.4103,5.4103,5.4103,5.4103,5.4103,5.4103,5.4103,5.4103,5.4723,5.507,5.5102,5.6235,5.6789,5.6789,5.7246,5.7778,5.8274,5.8274,5.8182,5.7871,5.7637,5.7322,5.7084,5.6875,5.681,5.681,5.681,5.681,5.681,5.681,5.681,5.681,5.681,5.7241,5.7826,5.7826,5.8701,5.9778,5.9809,6.027,6.0794,6.0794,6.0794,6.0794,6.0794,6.0794,6.0794,6.0794,6.0794,6.0794,6.0794,6.0794,6.0794,6.0794,6.0794,6.0794,6.0794,6.0794,6.0794,6.0794,6.0794,6.0794,6.0794,6.0794,6.0794,6.0794,6.0794,6.0794,6.0794,6.0794,6.0794,6.0794,6.0794,6.0794,6.0794,6.0794,6.0794,6.0794,6.0794,6.0794,6.0794,6.0794,6.0794,6.0794,6.0794,6.0794,5.0804,5.0493,5.07,5.2183,5.236,5.2601,5.4149,5.4494,5.4494,5.4494,5.4076,5.3881,5.4399,5.3616,5.3034,5.3536,5.3574,5.3485,5.3418,5.3787,5.4103,5.4103,5.4103,5.4103,5.4103,5.4103,5.4103,5.4103,5.4103,5.4103,5.4103,5.4103,5.4103,5.4103,5.4292,5.464,5.5102,5.5583,5.615,5.6789,5.7105,5.737,5.7731,5.7731,5.759,5.7322,5.7227,5.7115,5.6875,5.681,5.681,5.681,5.681,5.681,5.681,5.681,5.681,5.681,5.681,5.7241,5.7888,5.8331,5.907,5.987,6.0363,6.064,6.0794,6.0794,6.0794,6.0794,6.0794,6.0794,6.0794,6.0794,6.0794,6.0794,6.0794,6.0794,6.0794,6.0794,6.0794,6.0794,6.0794,6.0794,6.0794,6.0794,6.0794,6.0794,6.0794,6.0794,6.0794,6.0794,6.0794,6.0794,6.0794,6.0794,6.0794,6.0794,6.0794,6.0794,6.0794,6.0794,6.0794,6.0794,6.0794,6.0794,6.0794,6.0794,6.0794,6.0794,6.0794,6.0794,5.0114,5.0011,5.0355,5.1808,5.2188,5.2601,5.4149,5.4494,5.4494,5.4494,5.3913,5.3516,5.3979,5.3043,5.2332,5.2762,5.2764,5.282,5.3091,5.3439,5.3787,5.4071,5.4103,5.4103,5.4103,5.4103,5.4103,5.4103,5.4103,5.4103,5.4103,5.4103,5.4103,5.4103,5.4103,5.4292,5.4703,5.5162,5.5669,5.6244,5.6745,5.7067,5.7211,5.7401,5.7322,5.7084,5.7019,5.6923,5.681,5.681,5.681,5.681,5.681,5.681,5.681,5.681,5.681,5.684,5.7118,5.7672,5.83,5.8947,5.9624,6.027,6.0671,6.0794,6.0794,6.0794,6.0794,6.0794,6.0794,6.0794,6.0794,6.0794,6.0794,6.0794,6.0794,6.0794,6.0794,6.0794,6.0794,6.0794,6.0794,6.0794,6.0794,6.0794,6.0794,6.0794,6.0794,6.0794,6.0794,6.0794,6.0794,6.0794,6.0794,6.0794,6.0794,6.0794,6.0794,6.0794,6.0794,6.0794,6.0794,6.0794,6.0794,6.0794,6.0794,6.0794,6.0794,6.0794,6.0794,6.0794,5.0011,5.0011,5.0355,5.1808,5.2291,5.2804,5.4184,5.4494,5.4494,5.4494,5.3848,5.3315,5.3382,5.263,5.1973,5.1988,5.1997,5.2234,5.2796,5.3028,5.3344,5.3945,5.4071,5.4103,5.4103,5.4103,5.4103,5.4103,5.4103,5.4103,5.4103,5.4103,5.4103,5.4103,5.4103,5.406,5.406,5.4867,5.5328,5.5391,5.626,5.6748,5.681,5.7258,5.7306,5.7036,5.6906,5.681,5.681,5.681,5.681,5.681,5.681,5.681,5.681,5.681,5.681,5.6902,5.758,5.8258,5.8885,5.9562,6.024,6.0794,6.0794,6.0794,6.0794,6.0794,6.0794,6.0794,6.0794,6.0794,6.0794,6.0794,6.0794,6.0794,6.0794,6.0794,6.0794,6.0794,6.0794,6.0794,6.0794,6.0794,6.0824,6.0886,6.0886,6.0917,6.0978,6.0978,6.0978,6.0978,6.0978,6.0978,6.0978,6.0978,6.0978,6.0978,6.0917,6.0917,6.0978,6.0855,6.0794,6.0794,6.0794,6.0794,6.0794,6.0794,6.0794,6.0794,6.0794,6.0824,5.0011,5.0011,5.0355,5.1808,5.3115,5.4115,5.4425,5.4494,5.4494,5.4494,5.3415,5.263,5.3281,5.174,5.0596,5.1221,5.1275,5.1311,5.1426,5.2396,5.3155,5.3313,5.3787,5.4103,5.4103,5.4103,5.4103,5.4103,5.4103,5.4103,5.4103,5.4103,5.4103,5.4103,5.3962,5.3876,5.3876,5.4206,5.4665,5.5147,5.5672,5.6255,5.681,5.6906,5.6954,5.6858,5.681,5.681,5.681,5.681,5.681,5.681,5.681,5.681,5.681,5.681,5.681,5.6902,5.758,5.8258,5.8885,5.9562,6.024,6.0794,6.0794,6.0794,6.0794,6.0794,6.0794,6.0794,6.0794,6.0794,6.0794,6.0794,6.0794,6.0794,6.0794,6.0794,6.0794,6.0794,6.0794,6.0794,6.0794,6.0794,6.0978,6.1502,6.1594,6.1779,6.2302,6.2394,6.2394,6.2394,6.2394,6.2394,6.2394,6.2394,6.2394,6.2394,6.1902,6.184,6.2364,6.1379,6.0794,6.0794,6.0794,6.0794,6.0794,6.0794,6.0794,6.0794,6.0794,6.1071,5.0011,5.0011,5.0355,5.1808,5.3356,5.4494,5.4494,5.4494,5.4494,5.4494,5.3281,5.235,5.2768,5.122,5.0018,5.0448,5.0493,5.0595,5.0983,5.1606,5.2333,5.3028,5.3408,5.3755,5.4071,5.4103,5.4103,5.4103,5.4103,5.406,5.3931,5.3962,5.3962,5.3962,5.3714,5.3671,5.3789,5.3992,5.445,5.5101,5.5517,5.6084,5.681,5.681,5.681,5.681,5.681,5.681,5.681,5.681,5.681,5.681,5.681,5.681,5.681,5.681,5.7025,5.7395,5.8073,5.8701,5.9378,6.0055,6.0517,6.0794,6.0794,6.0794,6.0794,6.0794,6.0794,6.0794,6.0794,6.0794,6.0794,6.0794,6.0794,6.0794,6.0794,6.0794,6.0794,6.0794,6.0794,6.0794,6.0794,6.1071,6.1502,6.2179,6.2302,6.2425,6.2764,6.2825,6.2825,6.2825,6.2825,6.2825,6.2825,6.2825,6.2825,6.2825,6.2487,6.2456,6.2794,6.2148,6.1779,6.1779,6.1779,6.1779,6.1779,6.1779,6.1779,6.1779,6.1779,6.1963,5.0011,5.0183,5.0666,5.1908,5.3356,5.4494,5.4494,5.4399,5.4335,5.4463,5.3281,5.2208,5.2208,5.0957,4.9892,4.9892,4.9892,5.0121,5.069,5.0951,5.1448,5.2776,5.3028,5.3376,5.404,5.4103,5.4103,5.4103,5.406,5.4005,5.3789,5.3746,5.3746,5.3746,5.3496,5.3452,5.3659,5.3823,5.428,5.5039,5.5594,5.6176,5.681,5.681,5.681,5.681,5.681,5.681,5.681,5.681,5.681,5.681,5.681,5.681,5.681,5.6933,5.7333,5.7919,5.867,5.9316,5.9901,6.0578,6.0794,6.0794,6.0794,6.0794,6.0794,6.0794,6.0794,6.0794,6.0794,6.0794,6.0794,6.0794,6.0794,6.0794,6.0794,6.0794,6.0794,6.0794,6.0886,6.0978,6.0978,6.1532,6.221,6.2887,6.2979,6.3041,6.3164,6.3164,6.3164,6.3164,6.3164,6.3164,6.3164,6.3164,6.3164,6.3164,6.3071,6.3041,6.3164,6.3071,6.3041,6.3164,6.2948,6.2825,6.2825,6.2825,6.2825,6.2825,6.2825,6.2887,5.0011,5.0942,5.1946,5.2153,5.3356,5.4494,5.4494,5.4011,5.3749,5.4367,5.3281,5.2208,5.2208,5.0957,4.9892,4.9892,4.9892,4.9923,5.0058,5.0595,5.1259,5.2049,5.2712,5.3376,5.404,5.4103,5.4103,5.4103,5.3962,5.3833,5.3789,5.3584,5.3421,5.3421,5.3233,5.3175,5.3219,5.3001,5.3544,5.476,5.607,5.6717,5.681,5.681,5.681,5.681,5.681,5.681,5.681,5.681,5.681,5.681,5.681,5.681,5.6871,5.7457,5.7734,5.8011,5.9224,5.9716,5.9901,6.0578,6.0794,6.0794,6.0794,6.0794,6.0794,6.0794,6.0794,6.0794,6.0794,6.0794,6.0794,6.0794,6.0794,6.0794,6.0794,6.0794,6.0794,6.0794,6.1286,6.1686,6.1686,6.224,6.2918,6.3595,6.3687,6.3903,6.4549,6.4611,6.4611,6.4611,6.4611,6.4611,6.4611,6.4611,6.4611,6.4611,6.4026,6.3964,6.458,6.4026,6.3995,6.4611,6.3441,6.2825,6.2825,6.2825,6.2825,6.2825,6.2825,6.3133,5.0011,5.0804,5.1671,5.2084,5.308,5.4011,5.4425,5.4271,5.3979,5.3913,5.3009,5.2208,5.2208,5.0957,4.9892,4.9892,4.9892,4.9892,4.9892,5.0184,5.0658,5.1353,5.2049,5.2776,5.3471,5.3882,5.406,5.3962,5.3833,5.3702,5.344,5.3277,5.3233,5.3233,5.2966,5.2953,5.3086,5.2833,5.3375,5.4714,5.6115,5.681,5.681,5.681,5.681,5.681,5.681,5.681,5.681,5.681,5.681,5.681,5.681,5.681,5.6902,5.758,5.8073,5.8485,5.9439,6.0055,6.0393,6.0701,6.0794,6.0794,6.0794,6.0794,6.0794,6.0794,6.0794,6.0794,6.0794,6.0794,6.0794,6.0794,6.0794,6.0794,6.0794,6.0794,6.0917,6.1286,6.1902,6.2487,6.2887,6.3195,6.3626,6.4334,6.4426,6.4549,6.4857,6.4888,6.4888,6.4888,6.4888,6.4888,6.4888,6.4888,6.4888,6.4888,6.4611,6.458,6.4888,6.458,6.458,6.4888,6.4303,6.3995,6.3995,6.3995,6.3995,6.3995,6.3995,6.4149,5.0011,5.0562,5.1252,5.1774,5.2666,5.3529,5.4115,5.4036,5.3814,5.3449,5.242,5.1667,5.1885,5.0805,4.9892,4.9892,4.9892,4.9892,4.9892,4.9892,5.0184,5.092,5.1575,5.2302,5.3028,5.3681,5.3931,5.3789,5.3702,5.3484,5.3131,5.3042,5.2997,5.2997,5.2788,5.2819,5.2997,5.3158,5.3745,5.4714,5.6115,5.681,5.681,5.681,5.681,5.681,5.681,5.681,5.681,5.681,5.681,5.681,5.681,5.6902,5.7148,5.7826,5.8454,5.9131,5.9809,6.0363,6.0794,6.0794,6.0794,6.0794,6.0794,6.0794,6.0794,6.0794,6.0794,6.0794,6.0794,6.0794,6.0794,6.0794,6.0917,6.104,6.104,6.104,6.1255,6.1933,6.261,6.3225,6.3749,6.3964,6.4272,6.4826,6.4888,6.4888,6.4888,6.4888,6.4888,6.4888,6.4888,6.4888,6.4888,6.4888,6.4888,6.4888,6.4888,6.4888,6.4888,6.4888,6.4888,6.4888,6.4888,6.4888,6.4888,6.4888,6.4888,6.4888,6.4888,6.4888,5.0011,5.0562,5.1114,5.1149,5.2287,5.3425,5.346,5.2875,5.2526,5.3247,5.159,5.0253,5.1027,5.0486,4.9892,4.9892,4.9892,4.9892,4.9892,4.9892,5.0184,5.092,5.1575,5.2302,5.3028,5.351,5.3789,5.3789,5.3396,5.3131,5.3086,5.2863,5.2698,5.2698,5.2729,5.2729,5.2698,5.3991,5.4621,5.4714,5.6115,5.681,5.681,5.681,5.681,5.681,5.681,5.681,5.681,5.681,5.681,5.681,5.681,5.721,5.7857,5.8485,5.9162,5.9839,6.0517,6.0763,6.0794,6.0794,6.0794,6.0794,6.0794,6.0794,6.0794,6.0794,6.0794,6.0794,6.0794,6.0794,6.0794,6.0794,6.1286,6.1748,6.1748,6.1748,6.1963,6.2641,6.3318,6.3779,6.3756,6.4395,6.4857,6.4888,6.4888,6.4888,6.4888,6.4888,6.4888,6.4888,6.4888,6.4888,6.4888,6.4888,6.4888,6.4888,6.4888,6.4888,6.4888,6.4888,6.4888,6.4888,6.4888,6.4888,6.4888,6.4888,6.4888,6.4888,6.4888,6.4888,5.0011,5.0183,5.0528,5.1011,5.1873,5.277,5.3287,5.3528,5.3449,5.2769,5.235,5.1773,5.0531,5.0097,4.9892,4.9892,4.9892,4.9892,4.9892,4.9892,5.0026,5.0279,5.1322,5.2112,5.2365,5.3258,5.3746,5.3584,5.3277,5.3042,5.2863,5.2743,5.2698,5.2698,5.2698,5.2698,5.2698,5.4052,5.4683,5.4714,5.6115,5.681,5.681,5.681,5.681,5.681,5.681,5.681,5.681,5.681,5.681,5.681,5.681,5.7241,5.7888,5.8516,5.9193,5.9901,6.0578,6.0794,6.0794,6.0794,6.0794,6.0794,6.0794,6.0794,6.0794,6.0794,6.0794,6.0794,6.0794,6.0794,6.0917,6.1348,6.1963,6.2579,6.301,6.3102,6.3164,6.341,6.4026,6.4518,6.4518,6.4734,6.4888,6.4888,6.4888,6.4888,6.4888,6.4888,6.4888,6.4888,6.4888,6.4888,6.4888,6.4888,6.4888,6.4888,6.4888,6.4888,6.4888,6.4888,6.4888,6.4888,6.4888,6.4888,6.4888,6.4888,6.4888,6.4888,6.4888,6.4888,5.0011,5.0011,5.0114,5.0631,5.1494,5.2326,5.2873,5.3389,5.3415,5.242,5.2208,5.1773,5.0175,4.9892,4.9892,4.9892,4.9892,4.9892,4.9812,4.9852,4.9892,4.9812,5.1123,5.1976,5.1893,5.2941,5.354,5.3321,5.31,5.2908,5.2729,5.2698,5.2698,5.2698,5.2698,5.2698,5.2698,5.4052,5.4683,5.4714,5.6115,5.681,5.681,5.681,5.681,5.681,5.681,5.681,5.681,5.681,5.681,5.684,5.7056,5.758,5.8227,5.8885,5.9562,6.0178,6.064,6.0794,6.0794,6.0794,6.0794,6.0794,6.0794,6.0794,6.0794,6.0794,6.0794,6.0855,6.1071,6.1317,6.1656,6.2333,6.2825,6.3349,6.4026,6.3995,6.3903,6.4149,6.458,6.4888,6.4888,6.4888,6.4888,6.4888,6.4888,6.4888,6.4888,6.4888,6.4888,6.4888,6.4888,6.4888,6.4888,6.4888,6.4888,6.4888,6.4888,6.4888,6.4888,6.4888,6.4888,6.4888,6.4888,6.4888,6.4888,6.4888,6.4888,6.4888,6.4888,6.4888,0.0,0.0,0.0,5.0011,5.1114,5.2188,5.2188,5.2233,5.2246,5.2243,5.107,4.9979,4.9939,4.9931,4.9931,4.9931,4.9892,4.9852,4.9653,4.9773,4.9812,4.9653,5.1001,5.1893,5.1717,5.2727,5.3321,5.3131,5.2863,5.2698,5.2698,5.2698,5.2698,5.2698,5.2698,5.2729,5.2729,5.4006,5.4683,5.4745,5.6115,5.681,5.681,5.681,5.681,5.681,5.681,5.681,5.681,5.681,5.681,5.6902,5.758,5.8208,5.8885,5.9562,6.0209,6.0794,6.0794,6.0794,6.0794,6.0794,6.0794,6.0794,6.0794,6.0794,6.0794,6.0794,6.0824,6.0978,6.1656,6.2333,6.301,6.3687,6.3841,6.4057,6.4764,6.4364,6.4057,6.4764,6.4888,6.4888,6.4888,6.4888,6.4888,6.4888,6.4888,6.4888,6.4888,6.4888,6.4888,6.4888,6.4888,6.4888,6.4888,6.4888,6.4888,6.4888,6.4888,6.4888,6.4888,6.4888,6.4888,6.4888,6.4888,6.4888,6.4888,6.4888,6.4888,6.4888,6.4888,6.4888,5.0011,0.0,0.0,0.0,0.0,0.0,5.2188,5.3043,5.3715,5.318,5.2733,5.2098,5.0951,5.0794,5.0602,4.9979,4.9892,4.9892,4.9852,4.9773,4.9693,4.9613,5.0724,5.1445,5.1434,5.2468,5.3144,5.3131,5.2863,5.2698,5.2698,5.2698,5.2698,5.2698,5.2698,5.2944,5.3437,5.4252,5.4976,5.5438,5.6378,5.681,5.681,5.681,5.681,5.681,5.681,5.681,5.681,5.681,5.7118,5.7549,5.7734,5.8535,5.9532,5.9716,6.0209,6.0794,6.0794,6.0794,6.0794,6.0794,6.0794,6.0794,6.0794,6.0794,6.0794,6.0794,6.1163,6.1686,6.2364,6.3041,6.3595,6.3779,6.4241,6.4641,6.4857,6.4734,6.4672,6.4857,6.4888,6.4888,6.4888,6.4888,6.4888,6.4888,6.4888,6.4888,6.4888,6.4888,6.4888,6.4888,6.4888,6.4888,6.4888,6.4888,6.4888,6.4888,6.4888,6.4888,6.4888,6.4888,6.4888,6.4888,6.4888,6.4888,6.4888,6.4888,6.4888,6.4888,6.4888,6.4888,0.0,0.0,0.0,0.0,0.0,0.0,5.2632,5.3413,5.3913,5.3483,5.2905,5.217,5.1252,5.0832,5.0448,4.9971,4.9892,4.9892,4.9812,4.9661,4.9573,4.9461,5.0559,5.1276,5.118,5.2337,5.3042,5.2953,5.2819,5.2698,5.2698,5.2698,5.2698,5.2698,5.2698,5.3037,5.3714,5.4345,5.5068,5.5715,5.6471,5.681,5.681,5.681,5.681,5.681,5.681,5.6964,5.7241,5.7241,5.7457,5.7888,5.8442,5.9101,5.9809,6.0116,6.0455,6.0794,6.0794,6.0794,6.0794,6.0794,6.0794,6.0794,6.0794,6.0794,6.0855,6.1132,6.1902,6.2733,6.3133,6.3749,6.4272,6.4272,6.458,6.4888,6.4888,6.4888,6.4888,6.4888,6.4888,6.4888,6.4888,6.4888,6.4888,6.4888,6.4888,6.4888,6.4888,6.4888,6.4888,6.4888,6.4888,6.4888,6.4888,6.4888,6.4888,6.4888,6.4888,6.4888,6.4888,6.4888,6.4888,6.4888,6.4888,6.4888,6.4888,6.4888,6.4888,6.4888,6.4888,6.4888,0.0,0.0,0.0,0.0,5.1774,0.0,5.3253,5.3466,5.3516,5.3516,5.2348,5.1364,5.1364,5.0685,5.0136,5.0018,5.0018,4.9939,4.9661,4.9582,4.9501,4.93,5.0372,5.1087,5.0967,5.2175,5.286,5.2698,5.2698,5.2698,5.2698,5.2698,5.2698,5.2698,5.279,5.316,5.3837,5.4514,5.5161,5.5807,5.6502,5.681,5.681,5.681,5.681,5.681,5.6902,5.7272,5.7826,5.798,5.7993,5.8165,5.9316,5.9839,5.9963,6.0578,6.0794,6.0794,6.0794,6.0794,6.0794,6.0794,6.0794,6.0794,6.0794,6.0855,6.1071,6.1809,6.2887,6.3841,6.3933,6.4426,6.4888,6.4888,6.4888,6.4888,6.4888,6.4888,6.4888,6.4888,6.4888,6.4888,6.4888,6.4888,6.4888,6.4888,6.4888,6.4888,6.4888,6.4888,6.4888,6.4888,6.4888,6.4888,6.4888,6.4888,6.4888,6.4888,6.4888,6.4888,6.4888,6.4888,6.4888,6.4888,6.4888,6.4888,6.4888,6.4888,6.4888,6.4888,6.4888,6.4888,0.0,0.0,0.0,5.1946,5.2597,0.0,5.3356,5.3883,5.4303,5.4303,5.355,5.2974,5.2974,5.2279,5.1557,5.0951,5.087,5.064,4.9939,4.9541,4.934,4.93,4.9719,5.0209,5.0722,5.1524,5.2158,5.2667,5.2698,5.2698,5.2698,5.2698,5.2698,5.2698,5.3252,5.3837,5.4468,5.5191,5.5869,5.6594,5.6748,5.681,5.681,5.681,5.681,5.684,5.7395,5.7703,5.7869,5.8947,5.9408,5.9439,5.9686,6.0116,6.0609,6.0763,6.0794,6.0794,6.0794,6.0794,6.0794,6.0794,6.0794,6.0794,6.0794,6.1194,6.1871,6.3102,6.3626,6.3964,6.4549,6.4795,6.4888,6.4888,6.4888,6.4888,6.4888,6.4888,6.4888,6.4888,6.4888,6.4888,6.4888,6.4888,6.4888,6.4888,6.4888,6.4888,6.4888,6.4888,6.4888,6.4888,6.4888,6.4888,6.4888,6.4888,6.4888,6.4888,6.4888,6.4888,6.4888,6.4888,6.4888,6.4888,6.4888,6.4888,6.4888,6.4888,6.4888,6.4888,6.4888,6.4888,5.2321,5.2188,5.2291,5.2701,5.3115,0.0,0.0,5.4253,5.4494,5.4494,5.3913,5.3382,5.3382,5.2735,5.1957,5.1215,5.1102,5.0832,4.9979,4.9541,4.9331,4.9331,4.9543,4.9959,5.0636,5.1313,5.199,5.2667,5.2698,5.2698,5.2698,5.2698,5.2698,5.2698,5.3375,5.4006,5.4683,5.5376,5.6053,5.681,5.681,5.681,5.681,5.681,5.6994,5.7333,5.7672,5.8196,5.8824,5.9501,5.9993,6.0301,6.0301,6.0486,6.0794,6.0794,6.0794,6.0794,6.0794,6.0794,6.0794,6.0794,6.0794,6.0855,6.1194,6.2025,6.2948,6.3626,6.4087,6.4426,6.4795,6.4888,6.4888,6.4888,6.4888,6.4888,6.4888,6.4888,6.4888,6.4888,6.4888,6.4888,6.4888,6.4888,6.4888,6.4888,6.4888,6.4888,6.4888,6.4888,6.4888,6.4888,6.4888,6.4888,6.4888,6.4888,6.4888,6.4888,6.4888,6.4888,6.4888,6.4888,6.4888,6.4888,6.4888,6.4888,6.4888,6.4888,6.4888,6.4888,6.4888,6.4888,5.2839,5.2636,5.2804,5.346,5.3632,5.377,0.0,0.0,0.0,5.4494,5.4011,5.3583,5.3583,5.3078,5.2285,5.1267,5.1353,5.1117,4.9833,4.9584,4.9461,4.934,4.9419,4.9805,5.0648,5.148,5.2113,5.2667,5.2698,5.2698,5.2698,5.2698,5.2698,5.2698,5.3498,5.4129,5.4683,5.5499,5.6176,5.681,5.681,5.681,5.681,5.6933,5.7303,5.7826,5.8054,5.8793,5.9809,5.9932,6.0301,6.0794,6.0794,6.0794,6.0794,6.0794,6.0794,6.0794,6.0794,6.0794,6.0794,6.0794,6.0886,6.1132,6.1963,6.2948,6.3841,6.3995,6.4457,6.4888,6.4888,6.4888,6.4888,6.4888,6.4888,6.4888,6.4888,6.4888,6.4888,6.4888,6.4888,6.4888,6.4888,6.4888,6.4888,6.4888,6.4888,6.4888,6.4888,6.4888,6.4888,6.4888,6.4888,6.4888,6.4888,6.4888,6.4888,6.4888,6.4888,6.4888,6.4888,6.4888,6.4888,6.4888,6.4888,6.4888,6.4888,6.4888,6.4888,6.4888,6.4888,6.4888,5.4287,5.4253,5.4253,5.4356,5.4391,5.4391,5.4494,0.0,5.4494,5.4494,0.0,5.4367,5.4367,0.0,0.0,5.1426,5.2236,5.216,4.9313,4.9699,5.0112,4.9622,4.9068,4.9334,5.0832,5.1924,5.2637,5.2698,5.2698,5.2698,5.2698,5.2698,5.2698,5.2698,5.396,5.4591,5.4683,5.5992,5.6717,5.681,5.681,5.681,5.684,5.7426,5.7734,5.7888,5.9039,5.9655,5.9839,6.0424,6.0732,6.0794,6.0794,6.0794,6.0794,6.0794,6.0794,6.0794,6.0794,6.0794,6.0794,6.0794,6.1194,6.1933,6.3195,6.3718,6.3964,6.4611,6.4826,6.4888,6.4888,6.4888,6.4888,6.4888,6.4888,6.4888,6.4888,6.4888,6.4888,6.4888,6.4888,6.4888,6.4888,6.4888,6.4888,6.4888,6.4888,6.4888,6.4888,6.4888,6.4888,6.4888,6.4888,6.4888,6.4888,6.4888,6.4888,6.4888,6.4888,6.4888,6.4888,6.4888,6.4888,6.4888,6.4888,6.4888,6.4888,6.4888,6.4888,6.4888,6.4888,6.4888,5.4494,5.4494,5.4494,5.4494,5.4494,5.4494,5.4494,5.4494,5.4494,5.4494,0.0,0.0,0.0,0.0,0.0,0.0,5.2976,5.2739,5.0913,5.0532,5.0197,4.9661,4.9015,4.92,5.0672,5.1603,5.2298,5.2698,5.2698,5.2698,5.2698,5.3098,5.3283,5.3283,5.4607,5.5284,5.5284,5.6269,5.681,5.681,5.681,5.681,5.684,5.7518,5.8042,5.8423,5.9378,6.0024,6.0393,6.0671,6.0794,6.0794,6.0794,6.0794,6.0794,6.0794,6.0794,6.0794,6.0794,6.0794,6.0855,6.1255,6.2117,6.3071,6.3656,6.4118,6.4518,6.4826,6.4888,6.4888,6.4888,6.4888,6.4888,6.4888,6.4888,6.4888,6.4888,6.4888,6.4888,6.4888,6.4888,6.4888,6.4888,6.4888,6.4888,6.4888,6.4888,6.4888,6.4888,6.4888,6.4888,6.4888,6.4888,6.4888,6.4888,6.4888,6.4888,6.4888,6.4888,6.4888,6.4888,6.4888,6.4888,6.4888,6.4888,6.4888,6.4888,6.4888,6.4888,6.4888,6.4888,6.4888,5.4494,5.4494,5.4494,5.4494,5.4494,5.4494,5.4494,5.4494,5.4494,5.4494,5.4494,0.0,0.0,0.0,0.0,0.0,0.0,5.3146,5.1569,5.0964,5.0506,4.9939,4.9365,4.9416,5.0574,5.1313,5.199,5.2667,5.2698,5.2698,5.2698,5.3345,5.3714,5.3714,5.5007,5.5684,5.5684,5.644,5.681,5.681,5.681,5.6902,5.7118,5.7795,5.8423,5.9101,5.9778,6.0332,6.0794,6.0794,6.0794,6.0794,6.0794,6.0794,6.0794,6.0794,6.0794,6.0794,6.0794,6.0917,6.1225,6.2086,6.3041,6.3872,6.4057,6.4487,6.4888,6.4888,6.4888,6.4888,6.4888,6.4888,6.4888,6.4888,6.4888,6.4888,6.4888,6.4888,6.4888,6.4888,6.4888,6.4888,6.4888,6.4888,6.4888,6.4888,6.4888,6.4888,6.4888,6.4888,6.4888,6.4888,6.4888,6.4888,6.4888,6.4888,6.4888,6.4888,6.4888,6.4888,6.4888,6.4888,6.4888,6.4888,6.4888,6.4888,6.4888,6.4888,6.4888,6.4888,6.4888,6.4888,5.4494,5.4494,5.4494,5.4494,5.4494,5.4494,5.4494,5.4494,5.4494,5.4494,5.4494,5.4494,5.4494,0.0,0.0,0.0,0.0,0.0,0.0,5.0749,5.1299,5.0531,5.0169,5.014,5.0679,5.1313,5.199,5.2667,5.2698,5.2698,5.2698,5.3345,5.3714,5.3714,5.5007,5.5684,5.5684,5.644,5.681,5.681,5.681,5.7148,5.7795,5.8423,5.9131,5.9809,6.0486,6.0763,6.0794,6.0794,6.0794,6.0794,6.0794,6.0794,6.0794,6.0794,6.0794,6.0794,6.0794,6.1225,6.1994,6.3318,6.3779,6.3964,6.4641,6.4888,6.4888,6.4888,6.4888,6.4888,6.4888,6.4888,6.4888,6.4888,6.4888,6.4888,6.4888,6.4888,6.4888,6.4888,6.4888,6.4888,6.4888,6.4888,6.4888,6.4888,6.4888,6.4888,6.4888,6.4888,6.4888,6.4888,6.4888,6.4888,6.4888,6.4888,6.4888,6.4888,6.4888,6.4888,6.4888,6.4888,6.4888,6.4888,6.4888,6.4888,6.4888,6.4888,6.4888,6.4888,6.4888,6.4888,5.5253,5.4874,5.4494,5.4494,5.4494,5.4494,5.4494,5.4494,5.4494,5.4494,5.4494,5.4494,5.4494,0.0,0.0,0.0,0.0,0.0,0.0,5.0973,5.019,4.9309,4.9305,4.9718,5.0617,5.0913,5.1498,5.2637,5.2698,5.2914,5.3345,5.3976,5.4576,5.5007,5.593,5.644,5.644,5.6686,5.681,5.681,5.681,5.7179,5.7857,5.8485,5.9162,5.9839,6.0517,6.0794,6.0794,6.0794,6.0794,6.0794,6.0794,6.0794,6.0794,6.0794,6.0794,6.0855,6.1317,6.1902,6.2641,6.3533,6.4149,6.458,6.4826,6.4888,6.4888,6.4888,6.4888,6.4888,6.4888,6.4888,6.4888,6.4888,6.4888,6.4888,6.4888,6.4888,6.4888,6.4888,6.4888,6.4888,6.4888,6.4888,6.4888,6.4888,6.4888,6.4888,6.4888,6.4888,6.4888,6.4888,6.4888,6.4888,6.4888,6.4888,6.4888,6.4888,6.4888,6.4888,6.4888,6.4888,6.4888,6.4888,6.4888,6.4888,6.4888,6.4888,6.4888,6.4888,6.4888,6.4888,5.6046,5.5701,5.5322,5.5322,5.5322,5.5253,5.4977,5.4908,5.4839,5.4563,5.4494,5.4494,5.4494,0.0,0.0,0.0,0.0,0.0,0.0,5.1,4.963,4.8687,4.8759,4.9356,5.0574,5.0697,5.1251,5.2606,5.2698,5.3006,5.3683,5.4314,5.5037,5.5684,5.644,5.681,5.681,5.681,5.681,5.681,5.7056,5.7518,5.8196,5.8824,5.9501,6.0178,6.0609,6.0794,6.0794,6.0794,6.0794,6.0794,6.0794,6.0794,6.0794,6.0794,6.0948,6.1255,6.1933,6.261,6.3287,6.3995,6.4518,6.4888,6.4888,6.4888,6.4888,6.4888,6.4888,6.4888,6.4888,6.4888,6.4888,6.4888,6.4888,6.4888,6.4888,6.4888,6.4888,6.4888,6.4888,6.4888,6.4888,6.4888,6.4888,6.4888,6.4888,6.4888,6.4888,6.4888,6.4888,6.4888,6.4888,6.4888,6.4888,6.4888,6.4888,6.4888,6.4888,6.4888,6.4888,6.4888,6.5134,6.5596,6.5134,6.5134,6.5626,6.5134,6.4888,6.4888,6.4888,6.4888]}]]